<?xml version='1.0' encoding='UTF-8'?>
<gpx version="1.1" creator="https://www.komoot.de" xmlns="http://www.topografix.com/GPX/1/1" xmlns:xsi="http://www.w3.org/2001/XMLSchema-instance" xsi:schemaLocation="http://www.topografix.com/GPX/1/1 http://www.topografix.com/GPX/1/1/gpx.xsd">
  <metadata>
    <name>70_850HauenstChallhoe</name>
    <author>
      <link href="https://www.komoot.de">
        <text>komoot</text>
        <type>text/html</type>
      </link>
    </author>
  </metadata>
  <trk>
    <name>70_850HauenstChallhoe</name>
    <trkseg>
      <trkpt lat="47.541391" lon="7.870807">
        <ele>342.419908</ele>
        <time>2021-11-20T15:31:58.193Z</time>
      </trkpt>
      <trkpt lat="47.540933" lon="7.871187">
        <ele>342.419908</ele>
        <time>2021-11-20T15:32:10.061Z</time>
      </trkpt>
      <trkpt lat="47.540894" lon="7.871220">
        <ele>342.419908</ele>
        <time>2021-11-20T15:32:11.193Z</time>
      </trkpt>
      <trkpt lat="47.540693" lon="7.871390">
        <ele>342.419908</ele>
        <time>2021-11-20T15:32:16.588Z</time>
      </trkpt>
      <trkpt lat="47.540463" lon="7.871584">
        <ele>342.730327</ele>
        <time>2021-11-20T15:32:22.766Z</time>
      </trkpt>
      <trkpt lat="47.540265" lon="7.871808">
        <ele>343.194359</ele>
        <time>2021-11-20T15:32:28.248Z</time>
      </trkpt>
      <trkpt lat="47.540216" lon="7.871851">
        <ele>343.300436</ele>
        <time>2021-11-20T15:32:29.708Z</time>
      </trkpt>
      <trkpt lat="47.540034" lon="7.871970">
        <ele>343.670972</ele>
        <time>2021-11-20T15:32:34.276Z</time>
      </trkpt>
      <trkpt lat="47.539930" lon="7.872041">
        <ele>343.884258</ele>
        <time>2021-11-20T15:32:36.850Z</time>
      </trkpt>
      <trkpt lat="47.539841" lon="7.872151">
        <ele>344.100147</ele>
        <time>2021-11-20T15:32:39.870Z</time>
      </trkpt>
      <trkpt lat="47.539678" lon="7.872430">
        <ele>344.564079</ele>
        <time>2021-11-20T15:32:45.377Z</time>
      </trkpt>
      <trkpt lat="47.539222" lon="7.873416">
        <ele>345.933000</ele>
        <time>2021-11-20T15:33:02.919Z</time>
      </trkpt>
      <trkpt lat="47.538278" lon="7.874319">
        <ele>347.082342</ele>
        <time>2021-11-20T15:33:22.573Z</time>
      </trkpt>
      <trkpt lat="47.537716" lon="7.874966">
        <ele>347.969371</ele>
        <time>2021-11-20T15:33:36.548Z</time>
      </trkpt>
      <trkpt lat="47.537261" lon="7.875237">
        <ele>348.868296</ele>
        <time>2021-11-20T15:33:46.064Z</time>
      </trkpt>
      <trkpt lat="47.537182" lon="7.875293">
        <ele>349.028833</ele>
        <time>2021-11-20T15:33:48.053Z</time>
      </trkpt>
      <trkpt lat="47.536921" lon="7.875537">
        <ele>349.594570</ele>
        <time>2021-11-20T15:33:54.020Z</time>
      </trkpt>
      <trkpt lat="47.536757" lon="7.875759">
        <ele>350.001810</ele>
        <time>2021-11-20T15:33:58.622Z</time>
      </trkpt>
      <trkpt lat="47.536632" lon="7.875912">
        <ele>350.299045</ele>
        <time>2021-11-20T15:34:01.790Z</time>
      </trkpt>
      <trkpt lat="47.536444" lon="7.876177">
        <ele>350.774755</ele>
        <time>2021-11-20T15:34:08.751Z</time>
      </trkpt>
      <trkpt lat="47.535851" lon="7.877319">
        <ele>355.140786</ele>
        <time>2021-11-20T15:34:40.065Z</time>
      </trkpt>
      <trkpt lat="47.535770" lon="7.877432">
        <ele>355.663837</ele>
        <time>2021-11-20T15:34:44.245Z</time>
      </trkpt>
      <trkpt lat="47.535635" lon="7.877484">
        <ele>356.319541</ele>
        <time>2021-11-20T15:34:50.113Z</time>
      </trkpt>
      <trkpt lat="47.535551" lon="7.877487">
        <ele>356.714516</ele>
        <time>2021-11-20T15:34:52.021Z</time>
      </trkpt>
      <trkpt lat="47.535322" lon="7.877590">
        <ele>357.839519</ele>
        <time>2021-11-20T15:35:02.003Z</time>
      </trkpt>
      <trkpt lat="47.535088" lon="7.877742">
        <ele>359.040616</ele>
        <time>2021-11-20T15:35:09.852Z</time>
      </trkpt>
      <trkpt lat="47.534855" lon="7.878090">
        <ele>360.697408</ele>
        <time>2021-11-20T15:35:21.785Z</time>
      </trkpt>
      <trkpt lat="47.534778" lon="7.878270">
        <ele>361.429205</ele>
        <time>2021-11-20T15:35:29.121Z</time>
      </trkpt>
      <trkpt lat="47.534825" lon="7.878414">
        <ele>361.978489</ele>
        <time>2021-11-20T15:35:31.708Z</time>
      </trkpt>
      <trkpt lat="47.534946" lon="7.878790">
        <ele>363.408937</ele>
        <time>2021-11-20T15:35:43.785Z</time>
      </trkpt>
      <trkpt lat="47.534908" lon="7.878975">
        <ele>364.073018</ele>
        <time>2021-11-20T15:35:47.794Z</time>
      </trkpt>
      <trkpt lat="47.534659" lon="7.879415">
        <ele>366.044693</ele>
        <time>2021-11-20T15:36:02.262Z</time>
      </trkpt>
      <trkpt lat="47.534616" lon="7.879490">
        <ele>366.382601</ele>
        <time>2021-11-20T15:36:04.839Z</time>
      </trkpt>
      <trkpt lat="47.533892" lon="7.880353">
        <ele>369.760641</ele>
        <time>2021-11-20T15:36:32.501Z</time>
      </trkpt>
      <trkpt lat="47.533606" lon="7.880961">
        <ele>370.984573</ele>
        <time>2021-11-20T15:36:44.902Z</time>
      </trkpt>
      <trkpt lat="47.533374" lon="7.881639">
        <ele>372.240039</ele>
        <time>2021-11-20T15:36:55.967Z</time>
      </trkpt>
      <trkpt lat="47.533014" lon="7.882949">
        <ele>372.911873</ele>
        <time>2021-11-20T15:37:13.882Z</time>
      </trkpt>
      <trkpt lat="47.532859" lon="7.883508">
        <ele>372.912559</ele>
        <time>2021-11-20T15:37:19.760Z</time>
      </trkpt>
      <trkpt lat="47.532713" lon="7.884122">
        <ele>372.913297</ele>
        <time>2021-11-20T15:37:25.457Z</time>
      </trkpt>
      <trkpt lat="47.532699" lon="7.884224">
        <ele>372.913415</ele>
        <time>2021-11-20T15:37:26.411Z</time>
      </trkpt>
      <trkpt lat="47.532670" lon="7.884773">
        <ele>372.651885</ele>
        <time>2021-11-20T15:37:30.905Z</time>
      </trkpt>
      <trkpt lat="47.532658" lon="7.884989">
        <ele>372.428735</ele>
        <time>2021-11-20T15:37:32.517Z</time>
      </trkpt>
      <trkpt lat="47.532650" lon="7.885569">
        <ele>371.831430</ele>
        <time>2021-11-20T15:37:37.019Z</time>
      </trkpt>
      <trkpt lat="47.532505" lon="7.887120">
        <ele>370.219249</ele>
        <time>2021-11-20T15:37:48.971Z</time>
      </trkpt>
      <trkpt lat="47.532288" lon="7.887728">
        <ele>369.466332</ele>
        <time>2021-11-20T15:37:54.148Z</time>
      </trkpt>
      <trkpt lat="47.532011" lon="7.888896">
        <ele>368.105093</ele>
        <time>2021-11-20T15:38:03.377Z</time>
      </trkpt>
      <trkpt lat="47.531843" lon="7.889349">
        <ele>367.536783</ele>
        <time>2021-11-20T15:38:07.414Z</time>
      </trkpt>
      <trkpt lat="47.531560" lon="7.889776">
        <ele>367.222998</ele>
        <time>2021-11-20T15:38:12.354Z</time>
      </trkpt>
      <trkpt lat="47.531265" lon="7.889937">
        <ele>367.196737</ele>
        <time>2021-11-20T15:38:16.322Z</time>
      </trkpt>
      <trkpt lat="47.531076" lon="7.890029">
        <ele>367.180119</ele>
        <time>2021-11-20T15:38:19.163Z</time>
      </trkpt>
      <trkpt lat="47.530606" lon="7.890373">
        <ele>367.136327</ele>
        <time>2021-11-20T15:38:27.012Z</time>
      </trkpt>
      <trkpt lat="47.530322" lon="7.890690">
        <ele>367.106621</ele>
        <time>2021-11-20T15:38:33.006Z</time>
      </trkpt>
      <trkpt lat="47.529972" lon="7.891210">
        <ele>367.416448</ele>
        <time>2021-11-20T15:38:42.168Z</time>
      </trkpt>
      <trkpt lat="47.529714" lon="7.891609">
        <ele>367.803778</ele>
        <time>2021-11-20T15:38:49.501Z</time>
      </trkpt>
      <trkpt lat="47.529695" lon="7.891638">
        <ele>367.832109</ele>
        <time>2021-11-20T15:38:50.488Z</time>
      </trkpt>
      <trkpt lat="47.529235" lon="7.892158">
        <ele>368.432996</ele>
        <time>2021-11-20T15:39:01.421Z</time>
      </trkpt>
      <trkpt lat="47.528331" lon="7.892682">
        <ele>369.373782</ele>
        <time>2021-11-20T15:39:20.124Z</time>
      </trkpt>
      <trkpt lat="47.528003" lon="7.892732">
        <ele>369.668409</ele>
        <time>2021-11-20T15:39:25.830Z</time>
      </trkpt>
      <trkpt lat="47.527498" lon="7.892650">
        <ele>370.122348</ele>
        <time>2021-11-20T15:39:35.157Z</time>
      </trkpt>
      <trkpt lat="47.527011" lon="7.893061">
        <ele>370.617987</ele>
        <time>2021-11-20T15:39:45.353Z</time>
      </trkpt>
      <trkpt lat="47.526709" lon="7.893617">
        <ele>371.009204</ele>
        <time>2021-11-20T15:39:54.006Z</time>
      </trkpt>
      <trkpt lat="47.526504" lon="7.894030">
        <ele>371.290233</ele>
        <time>2021-11-20T15:40:00.327Z</time>
      </trkpt>
      <trkpt lat="47.526546" lon="7.894115">
        <ele>371.347981</ele>
        <time>2021-11-20T15:40:01.567Z</time>
      </trkpt>
      <trkpt lat="47.526602" lon="7.894342">
        <ele>371.480483</ele>
        <time>2021-11-20T15:40:04.574Z</time>
      </trkpt>
      <trkpt lat="47.526608" lon="7.894752">
        <ele>371.705324</ele>
        <time>2021-11-20T15:40:09.581Z</time>
      </trkpt>
      <trkpt lat="47.526576" lon="7.895117">
        <ele>371.907121</ele>
        <time>2021-11-20T15:40:14.023Z</time>
      </trkpt>
      <trkpt lat="47.526579" lon="7.895127">
        <ele>371.913120</ele>
        <time>2021-11-20T15:40:14.154Z</time>
      </trkpt>
      <trkpt lat="47.526601" lon="7.895175">
        <ele>371.944927</ele>
        <time>2021-11-20T15:40:14.828Z</time>
      </trkpt>
      <trkpt lat="47.526684" lon="7.895312">
        <ele>372.043117</ele>
        <time>2021-11-20T15:40:17.163Z</time>
      </trkpt>
      <trkpt lat="47.526615" lon="7.895508">
        <ele>372.147189</ele>
        <time>2021-11-20T15:40:19.838Z</time>
      </trkpt>
      <trkpt lat="47.526589" lon="7.895591">
        <ele>372.190269</ele>
        <time>2021-11-20T15:40:20.889Z</time>
      </trkpt>
      <trkpt lat="47.526565" lon="7.895692">
        <ele>372.240682</ele>
        <time>2021-11-20T15:40:22.146Z</time>
      </trkpt>
      <trkpt lat="47.526559" lon="7.895723">
        <ele>372.255866</ele>
        <time>2021-11-20T15:40:22.696Z</time>
      </trkpt>
      <trkpt lat="47.526238" lon="7.897258">
        <ele>373.012469</ele>
        <time>2021-11-20T15:40:41.255Z</time>
      </trkpt>
      <trkpt lat="47.525839" lon="7.898443">
        <ele>373.827538</ele>
        <time>2021-11-20T15:40:57.092Z</time>
      </trkpt>
      <trkpt lat="47.525783" lon="7.898584">
        <ele>373.946104</ele>
        <time>2021-11-20T15:40:59.373Z</time>
      </trkpt>
      <trkpt lat="47.525734" lon="7.898704">
        <ele>374.047748</ele>
        <time>2021-11-20T15:41:00.809Z</time>
      </trkpt>
      <trkpt lat="47.525605" lon="7.899006">
        <ele>374.306762</ele>
        <time>2021-11-20T15:41:05.660Z</time>
      </trkpt>
      <trkpt lat="47.525500" lon="7.899228">
        <ele>374.503217</ele>
        <time>2021-11-20T15:41:08.868Z</time>
      </trkpt>
      <trkpt lat="47.525195" lon="7.899847">
        <ele>375.058627</ele>
        <time>2021-11-20T15:41:19.515Z</time>
      </trkpt>
      <trkpt lat="47.524581" lon="7.901010">
        <ele>376.985880</ele>
        <time>2021-11-20T15:41:40.784Z</time>
      </trkpt>
      <trkpt lat="47.524527" lon="7.901116">
        <ele>377.172065</ele>
        <time>2021-11-20T15:41:43.093Z</time>
      </trkpt>
      <trkpt lat="47.524421" lon="7.901321">
        <ele>377.534107</ele>
        <time>2021-11-20T15:41:51.082Z</time>
      </trkpt>
      <trkpt lat="47.524371" lon="7.901417">
        <ele>377.704106</ele>
        <time>2021-11-20T15:41:54.971Z</time>
      </trkpt>
      <trkpt lat="47.524253" lon="7.901644">
        <ele>378.105792</ele>
        <time>2021-11-20T15:42:04.019Z</time>
      </trkpt>
      <trkpt lat="47.524233" lon="7.901684">
        <ele>378.175581</ele>
        <time>2021-11-20T15:42:05.569Z</time>
      </trkpt>
      <trkpt lat="47.524105" lon="7.901935">
        <ele>378.616620</ele>
        <time>2021-11-20T15:42:15.695Z</time>
      </trkpt>
      <trkpt lat="47.524053" lon="7.902011">
        <ele>378.768329</ele>
        <time>2021-11-20T15:42:19.020Z</time>
      </trkpt>
      <trkpt lat="47.523736" lon="7.902614">
        <ele>380.146971</ele>
        <time>2021-11-20T15:42:31.972Z</time>
      </trkpt>
      <trkpt lat="47.523596" lon="7.902876">
        <ele>380.776446</ele>
        <time>2021-11-20T15:42:37.951Z</time>
      </trkpt>
      <trkpt lat="47.523266" lon="7.903337">
        <ele>382.042188</ele>
        <time>2021-11-20T15:42:49.636Z</time>
      </trkpt>
      <trkpt lat="47.521825" lon="7.905747">
        <ele>388.032872</ele>
        <time>2021-11-20T15:43:47.845Z</time>
      </trkpt>
      <trkpt lat="47.520794" lon="7.907911">
        <ele>391.383910</ele>
        <time>2021-11-20T15:44:28.094Z</time>
      </trkpt>
      <trkpt lat="47.520749" lon="7.908027">
        <ele>391.536522</ele>
        <time>2021-11-20T15:44:30.214Z</time>
      </trkpt>
      <trkpt lat="47.520698" lon="7.908161">
        <ele>391.711995</ele>
        <time>2021-11-20T15:44:31.936Z</time>
      </trkpt>
      <trkpt lat="47.520025" lon="7.910953">
        <ele>393.850508</ele>
        <time>2021-11-20T15:45:18.854Z</time>
      </trkpt>
      <trkpt lat="47.520007" lon="7.911009">
        <ele>393.967592</ele>
        <time>2021-11-20T15:45:19.330Z</time>
      </trkpt>
      <trkpt lat="47.519956" lon="7.911165">
        <ele>394.294792</ele>
        <time>2021-11-20T15:45:30.716Z</time>
      </trkpt>
      <trkpt lat="47.519921" lon="7.911269">
        <ele>394.514157</ele>
        <time>2021-11-20T15:45:31.829Z</time>
      </trkpt>
      <trkpt lat="47.519645" lon="7.911898">
        <ele>395.930265</ele>
        <time>2021-11-20T15:45:43.409Z</time>
      </trkpt>
      <trkpt lat="47.519183" lon="7.912644">
        <ele>397.841139</ele>
        <time>2021-11-20T15:46:10.116Z</time>
      </trkpt>
      <trkpt lat="47.519055" lon="7.912811">
        <ele>398.318039</ele>
        <time>2021-11-20T15:46:19.778Z</time>
      </trkpt>
      <trkpt lat="47.518820" lon="7.913091">
        <ele>399.017784</ele>
        <time>2021-11-20T15:46:27.153Z</time>
      </trkpt>
      <trkpt lat="47.518033" lon="7.914054">
        <ele>401.033272</ele>
        <time>2021-11-20T15:46:53.011Z</time>
      </trkpt>
      <trkpt lat="47.517976" lon="7.914148">
        <ele>401.201700</ele>
        <time>2021-11-20T15:46:54.866Z</time>
      </trkpt>
      <trkpt lat="47.517140" lon="7.915867">
        <ele>404.210093</ele>
        <time>2021-11-20T15:47:27.346Z</time>
      </trkpt>
      <trkpt lat="47.517038" lon="7.916039">
        <ele>404.546456</ele>
        <time>2021-11-20T15:47:30.935Z</time>
      </trkpt>
      <trkpt lat="47.516946" lon="7.916165">
        <ele>404.819135</ele>
        <time>2021-11-20T15:47:34.212Z</time>
      </trkpt>
      <trkpt lat="47.516287" lon="7.916882">
        <ele>406.600183</ele>
        <time>2021-11-20T15:47:54.170Z</time>
      </trkpt>
      <trkpt lat="47.515613" lon="7.917513">
        <ele>408.341569</ele>
        <time>2021-11-20T15:48:14.382Z</time>
      </trkpt>
      <trkpt lat="47.515086" lon="7.917919">
        <ele>409.638870</ele>
        <time>2021-11-20T15:48:27.708Z</time>
      </trkpt>
      <trkpt lat="47.514270" lon="7.918422">
        <ele>410.800603</ele>
        <time>2021-11-20T15:48:45.878Z</time>
      </trkpt>
      <trkpt lat="47.512905" lon="7.919578">
        <ele>412.251465</ele>
        <time>2021-11-20T15:49:14.113Z</time>
      </trkpt>
      <trkpt lat="47.512556" lon="7.919960">
        <ele>412.500564</ele>
        <time>2021-11-20T15:49:21.278Z</time>
      </trkpt>
      <trkpt lat="47.512331" lon="7.920282">
        <ele>412.680167</ele>
        <time>2021-11-20T15:49:26.512Z</time>
      </trkpt>
      <trkpt lat="47.512197" lon="7.920511">
        <ele>412.797621</ele>
        <time>2021-11-20T15:49:29.843Z</time>
      </trkpt>
      <trkpt lat="47.511767" lon="7.921389">
        <ele>413.301196</ele>
        <time>2021-11-20T15:49:42.382Z</time>
      </trkpt>
      <trkpt lat="47.511415" lon="7.922417">
        <ele>413.933963</ele>
        <time>2021-11-20T15:49:56.134Z</time>
      </trkpt>
      <trkpt lat="47.511246" lon="7.922736">
        <ele>414.156544</ele>
        <time>2021-11-20T15:50:01.129Z</time>
      </trkpt>
      <trkpt lat="47.511001" lon="7.923070">
        <ele>414.427253</ele>
        <time>2021-11-20T15:50:07.437Z</time>
      </trkpt>
      <trkpt lat="47.510052" lon="7.924017">
        <ele>416.083528</ele>
        <time>2021-11-20T15:50:30.660Z</time>
      </trkpt>
      <trkpt lat="47.509886" lon="7.924134">
        <ele>416.356649</ele>
        <time>2021-11-20T15:50:34.844Z</time>
      </trkpt>
      <trkpt lat="47.509806" lon="7.924174">
        <ele>416.482088</ele>
        <time>2021-11-20T15:50:36.578Z</time>
      </trkpt>
      <trkpt lat="47.509676" lon="7.924247">
        <ele>416.688634</ele>
        <time>2021-11-20T15:50:39.449Z</time>
      </trkpt>
      <trkpt lat="47.509605" lon="7.924290">
        <ele>416.802592</ele>
        <time>2021-11-20T15:50:41.073Z</time>
      </trkpt>
      <trkpt lat="47.509572" lon="7.924311">
        <ele>416.855953</ele>
        <time>2021-11-20T15:50:42.049Z</time>
      </trkpt>
      <trkpt lat="47.509223" lon="7.924628">
        <ele>417.539699</ele>
        <time>2021-11-20T15:50:50.904Z</time>
      </trkpt>
      <trkpt lat="47.509032" lon="7.924863">
        <ele>417.997899</ele>
        <time>2021-11-20T15:50:56.411Z</time>
      </trkpt>
      <trkpt lat="47.509016" lon="7.924882">
        <ele>418.035742</ele>
        <time>2021-11-20T15:50:56.855Z</time>
      </trkpt>
      <trkpt lat="47.508667" lon="7.925295">
        <ele>418.860067</ele>
        <time>2021-11-20T15:51:06.796Z</time>
      </trkpt>
      <trkpt lat="47.508355" lon="7.925609">
        <ele>419.556115</ele>
        <time>2021-11-20T15:51:14.915Z</time>
      </trkpt>
      <trkpt lat="47.508106" lon="7.925799">
        <ele>420.072947</ele>
        <time>2021-11-20T15:51:21.016Z</time>
      </trkpt>
      <trkpt lat="47.508002" lon="7.925879">
        <ele>420.289181</ele>
        <time>2021-11-20T15:51:23.281Z</time>
      </trkpt>
      <trkpt lat="47.507856" lon="7.925990">
        <ele>420.649227</ele>
        <time>2021-11-20T15:51:27.007Z</time>
      </trkpt>
      <trkpt lat="47.506112" lon="7.927414">
        <ele>426.311850</ele>
        <time>2021-11-20T15:52:18.132Z</time>
      </trkpt>
      <trkpt lat="47.505881" lon="7.927601">
        <ele>427.285754</ele>
        <time>2021-11-20T15:52:27.624Z</time>
      </trkpt>
      <trkpt lat="47.505868" lon="7.927611">
        <ele>427.339947</ele>
        <time>2021-11-20T15:52:28.108Z</time>
      </trkpt>
      <trkpt lat="47.505814" lon="7.927657">
        <ele>427.570408</ele>
        <time>2021-11-20T15:52:30.002Z</time>
      </trkpt>
      <trkpt lat="47.505253" lon="7.928170">
        <ele>430.009588</ele>
        <time>2021-11-20T15:52:51.876Z</time>
      </trkpt>
      <trkpt lat="47.504799" lon="7.928777">
        <ele>432.127212</ele>
        <time>2021-11-20T15:53:07.711Z</time>
      </trkpt>
      <trkpt lat="47.504724" lon="7.928871">
        <ele>432.291157</ele>
        <time>2021-11-20T15:53:12.228Z</time>
      </trkpt>
      <trkpt lat="47.504650" lon="7.928941">
        <ele>432.437663</ele>
        <time>2021-11-20T15:53:14.200Z</time>
      </trkpt>
      <trkpt lat="47.504005" lon="7.929312">
        <ele>433.592089</ele>
        <time>2021-11-20T15:53:29.539Z</time>
      </trkpt>
      <trkpt lat="47.503815" lon="7.929426">
        <ele>433.934113</ele>
        <time>2021-11-20T15:53:32.408Z</time>
      </trkpt>
      <trkpt lat="47.503598" lon="7.929585">
        <ele>434.338054</ele>
        <time>2021-11-20T15:53:37.819Z</time>
      </trkpt>
      <trkpt lat="47.503528" lon="7.929650">
        <ele>434.475909</ele>
        <time>2021-11-20T15:53:38.877Z</time>
      </trkpt>
      <trkpt lat="47.503485" lon="7.929688">
        <ele>434.559456</ele>
        <time>2021-11-20T15:53:40.422Z</time>
      </trkpt>
      <trkpt lat="47.503014" lon="7.930220">
        <ele>435.279691</ele>
        <time>2021-11-20T15:53:50.506Z</time>
      </trkpt>
      <trkpt lat="47.502761" lon="7.930610">
        <ele>435.586103</ele>
        <time>2021-11-20T15:53:56.860Z</time>
      </trkpt>
      <trkpt lat="47.502613" lon="7.930856">
        <ele>435.772780</ele>
        <time>2021-11-20T15:54:00.658Z</time>
      </trkpt>
      <trkpt lat="47.502400" lon="7.931256">
        <ele>436.061413</ele>
        <time>2021-11-20T15:54:07.462Z</time>
      </trkpt>
      <trkpt lat="47.502023" lon="7.932158">
        <ele>436.615766</ele>
        <time>2021-11-20T15:54:20.479Z</time>
      </trkpt>
      <trkpt lat="47.501901" lon="7.932351">
        <ele>436.717342</ele>
        <time>2021-11-20T15:54:24.331Z</time>
      </trkpt>
      <trkpt lat="47.501794" lon="7.932466">
        <ele>436.792563</ele>
        <time>2021-11-20T15:54:26.151Z</time>
      </trkpt>
      <trkpt lat="47.501463" lon="7.932668">
        <ele>436.996231</ele>
        <time>2021-11-20T15:54:32.291Z</time>
      </trkpt>
      <trkpt lat="47.501075" lon="7.932885">
        <ele>437.232179</ele>
        <time>2021-11-20T15:54:39.824Z</time>
      </trkpt>
      <trkpt lat="47.500990" lon="7.932950">
        <ele>437.286604</ele>
        <time>2021-11-20T15:54:41.787Z</time>
      </trkpt>
      <trkpt lat="47.500843" lon="7.933102">
        <ele>437.388609</ele>
        <time>2021-11-20T15:54:44.530Z</time>
      </trkpt>
      <trkpt lat="47.500435" lon="7.933872">
        <ele>437.818411</ele>
        <time>2021-11-20T15:54:54.403Z</time>
      </trkpt>
      <trkpt lat="47.500386" lon="7.933937">
        <ele>437.864809</ele>
        <time>2021-11-20T15:54:55.239Z</time>
      </trkpt>
      <trkpt lat="47.500352" lon="7.933976">
        <ele>437.895140</ele>
        <time>2021-11-20T15:54:55.997Z</time>
      </trkpt>
      <trkpt lat="47.500275" lon="7.934029">
        <ele>437.955021</ele>
        <time>2021-11-20T15:54:57.150Z</time>
      </trkpt>
      <trkpt lat="47.500208" lon="7.934071">
        <ele>438.006329</ele>
        <time>2021-11-20T15:54:58.431Z</time>
      </trkpt>
      <trkpt lat="47.500193" lon="7.934023">
        <ele>438.031524</ele>
        <time>2021-11-20T15:54:58.893Z</time>
      </trkpt>
      <trkpt lat="47.500169" lon="7.933984">
        <ele>438.056655</ele>
        <time>2021-11-20T15:54:59.316Z</time>
      </trkpt>
      <trkpt lat="47.500138" lon="7.933956">
        <ele>438.082264</ele>
        <time>2021-11-20T15:54:59.834Z</time>
      </trkpt>
      <trkpt lat="47.500067" lon="7.933946">
        <ele>438.132556</ele>
        <time>2021-11-20T15:55:00.761Z</time>
      </trkpt>
      <trkpt lat="47.500034" lon="7.933965">
        <ele>438.157525</ele>
        <time>2021-11-20T15:55:01.576Z</time>
      </trkpt>
      <trkpt lat="47.499993" lon="7.933864">
        <ele>438.213659</ele>
        <time>2021-11-20T15:55:03.204Z</time>
      </trkpt>
      <trkpt lat="47.499822" lon="7.933272">
        <ele>438.520383</ele>
        <time>2021-11-20T15:55:11.081Z</time>
      </trkpt>
      <trkpt lat="47.499538" lon="7.932868">
        <ele>438.798140</ele>
        <time>2021-11-20T15:55:19.038Z</time>
      </trkpt>
      <trkpt lat="47.499421" lon="7.932805">
        <ele>438.997607</ele>
        <time>2021-11-20T15:55:22.089Z</time>
      </trkpt>
      <trkpt lat="47.499354" lon="7.932769">
        <ele>439.120646</ele>
        <time>2021-11-20T15:55:23.817Z</time>
      </trkpt>
      <trkpt lat="47.499088" lon="7.932741">
        <ele>439.580971</ele>
        <time>2021-11-20T15:55:29.694Z</time>
      </trkpt>
      <trkpt lat="47.498997" lon="7.932758">
        <ele>439.739301</ele>
        <time>2021-11-20T15:55:31.732Z</time>
      </trkpt>
      <trkpt lat="47.498925" lon="7.932781">
        <ele>439.866448</ele>
        <time>2021-11-20T15:55:33.439Z</time>
      </trkpt>
      <trkpt lat="47.498481" lon="7.933011">
        <ele>440.678457</ele>
        <time>2021-11-20T15:55:42.692Z</time>
      </trkpt>
      <trkpt lat="47.498431" lon="7.932995">
        <ele>440.766760</ele>
        <time>2021-11-20T15:55:43.915Z</time>
      </trkpt>
      <trkpt lat="47.498391" lon="7.932972">
        <ele>440.840835</ele>
        <time>2021-11-20T15:55:44.834Z</time>
      </trkpt>
      <trkpt lat="47.498196" lon="7.932613">
        <ele>441.378045</ele>
        <time>2021-11-20T15:55:51.557Z</time>
      </trkpt>
      <trkpt lat="47.498138" lon="7.932522">
        <ele>441.523945</ele>
        <time>2021-11-20T15:55:53.558Z</time>
      </trkpt>
      <trkpt lat="47.498068" lon="7.932426">
        <ele>441.688673</ele>
        <time>2021-11-20T15:55:56.005Z</time>
      </trkpt>
      <trkpt lat="47.497907" lon="7.932254">
        <ele>442.024204</ele>
        <time>2021-11-20T15:56:00.707Z</time>
      </trkpt>
      <trkpt lat="47.497676" lon="7.932013">
        <ele>442.482174</ele>
        <time>2021-11-20T15:56:07.186Z</time>
      </trkpt>
      <trkpt lat="47.497430" lon="7.931757">
        <ele>442.969475</ele>
        <time>2021-11-20T15:56:14.777Z</time>
      </trkpt>
      <trkpt lat="47.497221" lon="7.931528">
        <ele>443.390853</ele>
        <time>2021-11-20T15:56:20.774Z</time>
      </trkpt>
      <trkpt lat="47.497104" lon="7.931414">
        <ele>443.617841</ele>
        <time>2021-11-20T15:56:23.572Z</time>
      </trkpt>
      <trkpt lat="47.496998" lon="7.931330">
        <ele>443.812680</ele>
        <time>2021-11-20T15:56:25.983Z</time>
      </trkpt>
      <trkpt lat="47.496424" lon="7.931075">
        <ele>444.783820</ele>
        <time>2021-11-20T15:56:36.731Z</time>
      </trkpt>
      <trkpt lat="47.496205" lon="7.930904">
        <ele>445.251920</ele>
        <time>2021-11-20T15:56:40.751Z</time>
      </trkpt>
      <trkpt lat="47.496162" lon="7.930842">
        <ele>445.367427</ele>
        <time>2021-11-20T15:56:42.317Z</time>
      </trkpt>
      <trkpt lat="47.496117" lon="7.930763">
        <ele>445.501757</ele>
        <time>2021-11-20T15:56:43.585Z</time>
      </trkpt>
      <trkpt lat="47.496051" lon="7.930607">
        <ele>445.741038</ele>
        <time>2021-11-20T15:56:46.367Z</time>
      </trkpt>
      <trkpt lat="47.495985" lon="7.930428">
        <ele>446.006136</ele>
        <time>2021-11-20T15:56:49.199Z</time>
      </trkpt>
      <trkpt lat="47.495801" lon="7.929891">
        <ele>446.788885</ele>
        <time>2021-11-20T15:56:58.856Z</time>
      </trkpt>
      <trkpt lat="47.495622" lon="7.929400">
        <ele>447.514186</ele>
        <time>2021-11-20T15:57:07.469Z</time>
      </trkpt>
      <trkpt lat="47.495562" lon="7.929221">
        <ele>447.773954</ele>
        <time>2021-11-20T15:57:10.429Z</time>
      </trkpt>
      <trkpt lat="47.495530" lon="7.929063">
        <ele>447.988387</ele>
        <time>2021-11-20T15:57:12.903Z</time>
      </trkpt>
      <trkpt lat="47.495455" lon="7.928595">
        <ele>448.893916</ele>
        <time>2021-11-20T15:57:21.730Z</time>
      </trkpt>
      <trkpt lat="47.495268" lon="7.927740">
        <ele>451.070710</ele>
        <time>2021-11-20T15:57:38.740Z</time>
      </trkpt>
      <trkpt lat="47.495031" lon="7.927006">
        <ele>453.041209</ele>
        <time>2021-11-20T15:57:55.642Z</time>
      </trkpt>
      <trkpt lat="47.494945" lon="7.926765">
        <ele>453.701382</ele>
        <time>2021-11-20T15:58:02.285Z</time>
      </trkpt>
      <trkpt lat="47.494515" lon="7.925509">
        <ele>457.125578</ele>
        <time>2021-11-20T15:58:30.704Z</time>
      </trkpt>
      <trkpt lat="47.494438" lon="7.925289">
        <ele>457.729163</ele>
        <time>2021-11-20T15:58:36.137Z</time>
      </trkpt>
      <trkpt lat="47.494034" lon="7.924101">
        <ele>460.969185</ele>
        <time>2021-11-20T15:59:01.200Z</time>
      </trkpt>
      <trkpt lat="47.493708" lon="7.923049">
        <ele>463.736062</ele>
        <time>2021-11-20T15:59:22.772Z</time>
      </trkpt>
      <trkpt lat="47.493397" lon="7.921760">
        <ele>467.002086</ele>
        <time>2021-11-20T15:59:49.752Z</time>
      </trkpt>
      <trkpt lat="47.493307" lon="7.921373">
        <ele>468.098813</ele>
        <time>2021-11-20T15:59:58.246Z</time>
      </trkpt>
      <trkpt lat="47.493236" lon="7.921091">
        <ele>469.030184</ele>
        <time>2021-11-20T16:00:04.627Z</time>
      </trkpt>
      <trkpt lat="47.493132" lon="7.920716">
        <ele>470.284715</ele>
        <time>2021-11-20T16:00:13.677Z</time>
      </trkpt>
      <trkpt lat="47.492813" lon="7.919900">
        <ele>473.202362</ele>
        <time>2021-11-20T16:00:35.160Z</time>
      </trkpt>
      <trkpt lat="47.492584" lon="7.919482">
        <ele>474.867827</ele>
        <time>2021-11-20T16:00:47.932Z</time>
      </trkpt>
      <trkpt lat="47.492227" lon="7.918989">
        <ele>477.031871</ele>
        <time>2021-11-20T16:01:04.834Z</time>
      </trkpt>
      <trkpt lat="47.491324" lon="7.917985">
        <ele>481.914940</ele>
        <time>2021-11-20T16:01:41.619Z</time>
      </trkpt>
      <trkpt lat="47.490822" lon="7.917158">
        <ele>484.618048</ele>
        <time>2021-11-20T16:02:03.779Z</time>
      </trkpt>
      <trkpt lat="47.490607" lon="7.916690">
        <ele>485.699139</ele>
        <time>2021-11-20T16:02:13.977Z</time>
      </trkpt>
      <trkpt lat="47.490429" lon="7.916164">
        <ele>486.822943</ele>
        <time>2021-11-20T16:02:23.846Z</time>
      </trkpt>
      <trkpt lat="47.490283" lon="7.915612">
        <ele>487.955356</ele>
        <time>2021-11-20T16:02:33.674Z</time>
      </trkpt>
      <trkpt lat="47.489987" lon="7.914083">
        <ele>490.661714</ele>
        <time>2021-11-20T16:02:59.455Z</time>
      </trkpt>
      <trkpt lat="47.489951" lon="7.913893">
        <ele>490.984714</ele>
        <time>2021-11-20T16:03:02.449Z</time>
      </trkpt>
      <trkpt lat="47.489922" lon="7.913738">
        <ele>491.247976</ele>
        <time>2021-11-20T16:03:04.954Z</time>
      </trkpt>
      <trkpt lat="47.489843" lon="7.913398">
        <ele>491.836497</ele>
        <time>2021-11-20T16:03:10.300Z</time>
      </trkpt>
      <trkpt lat="47.489607" lon="7.912646">
        <ele>493.289546</ele>
        <time>2021-11-20T16:03:24.529Z</time>
      </trkpt>
      <trkpt lat="47.489216" lon="7.911685">
        <ele>496.208577</ele>
        <time>2021-11-20T16:03:46.843Z</time>
      </trkpt>
      <trkpt lat="47.489040" lon="7.911300">
        <ele>497.418153</ele>
        <time>2021-11-20T16:03:56.310Z</time>
      </trkpt>
      <trkpt lat="47.488908" lon="7.911009">
        <ele>498.330192</ele>
        <time>2021-11-20T16:04:04.871Z</time>
      </trkpt>
      <trkpt lat="47.488699" lon="7.910498">
        <ele>499.884534</ele>
        <time>2021-11-20T16:04:18.534Z</time>
      </trkpt>
      <trkpt lat="47.488366" lon="7.909318">
        <ele>502.940816</ele>
        <time>2021-11-20T16:04:44.406Z</time>
      </trkpt>
      <trkpt lat="47.488241" lon="7.908835">
        <ele>504.174500</ele>
        <time>2021-11-20T16:04:53.593Z</time>
      </trkpt>
      <trkpt lat="47.488185" lon="7.908663">
        <ele>504.629903</ele>
        <time>2021-11-20T16:04:57.645Z</time>
      </trkpt>
      <trkpt lat="47.488080" lon="7.908344">
        <ele>505.476272</ele>
        <time>2021-11-20T16:05:03.606Z</time>
      </trkpt>
      <trkpt lat="47.487763" lon="7.907711">
        <ele>507.391582</ele>
        <time>2021-11-20T16:05:18.663Z</time>
      </trkpt>
      <trkpt lat="47.487587" lon="7.907459">
        <ele>508.285694</ele>
        <time>2021-11-20T16:05:25.123Z</time>
      </trkpt>
      <trkpt lat="47.487378" lon="7.907191">
        <ele>509.295365</ele>
        <time>2021-11-20T16:05:32.322Z</time>
      </trkpt>
      <trkpt lat="47.487197" lon="7.906946">
        <ele>510.190943</ele>
        <time>2021-11-20T16:05:38.463Z</time>
      </trkpt>
      <trkpt lat="47.486969" lon="7.906583">
        <ele>511.413644</ele>
        <time>2021-11-20T16:05:46.771Z</time>
      </trkpt>
      <trkpt lat="47.486769" lon="7.905976">
        <ele>513.314594</ele>
        <time>2021-11-20T16:06:02.571Z</time>
      </trkpt>
      <trkpt lat="47.486724" lon="7.905485">
        <ele>515.928546</ele>
        <time>2021-11-20T16:06:16.794Z</time>
      </trkpt>
      <trkpt lat="47.486755" lon="7.904487">
        <ele>521.198990</ele>
        <time>2021-11-20T16:06:48.707Z</time>
      </trkpt>
      <trkpt lat="47.486721" lon="7.904326">
        <ele>522.088843</ele>
        <time>2021-11-20T16:06:55.118Z</time>
      </trkpt>
      <trkpt lat="47.486721" lon="7.904326">
        <ele>522.088843</ele>
        <time>2021-11-20T16:06:55.238Z</time>
      </trkpt>
      <trkpt lat="47.486787" lon="7.904241">
        <ele>522.771884</ele>
        <time>2021-11-20T16:07:00.861Z</time>
      </trkpt>
      <trkpt lat="47.486851" lon="7.904088">
        <ele>523.721148</ele>
        <time>2021-11-20T16:07:08.878Z</time>
      </trkpt>
      <trkpt lat="47.486956" lon="7.903776">
        <ele>525.559896</ele>
        <time>2021-11-20T16:07:26.412Z</time>
      </trkpt>
      <trkpt lat="47.487094" lon="7.903449">
        <ele>527.674048</ele>
        <time>2021-11-20T16:07:45.483Z</time>
      </trkpt>
      <trkpt lat="47.487618" lon="7.902286">
        <ele>535.920506</ele>
        <time>2021-11-20T16:08:56.515Z</time>
      </trkpt>
      <trkpt lat="47.488244" lon="7.900510">
        <ele>545.180490</ele>
        <time>2021-11-20T16:10:30.298Z</time>
      </trkpt>
      <trkpt lat="47.488318" lon="7.900297">
        <ele>545.887728</ele>
        <time>2021-11-20T16:10:40.191Z</time>
      </trkpt>
      <trkpt lat="47.488332" lon="7.900256">
        <ele>546.023379</ele>
        <time>2021-11-20T16:10:42.532Z</time>
      </trkpt>
      <trkpt lat="47.488488" lon="7.899603">
        <ele>548.068608</ele>
        <time>2021-11-20T16:11:06.642Z</time>
      </trkpt>
      <trkpt lat="47.488504" lon="7.899482">
        <ele>548.432691</ele>
        <time>2021-11-20T16:11:10.787Z</time>
      </trkpt>
      <trkpt lat="47.488505" lon="7.899198">
        <ele>549.271336</ele>
        <time>2021-11-20T16:11:14.972Z</time>
      </trkpt>
      <trkpt lat="47.488244" lon="7.897339">
        <ele>548.264247</ele>
        <time>2021-11-20T16:11:31.690Z</time>
      </trkpt>
      <trkpt lat="47.488196" lon="7.897116">
        <ele>547.916628</ele>
        <time>2021-11-20T16:11:33.096Z</time>
      </trkpt>
      <trkpt lat="47.488140" lon="7.896871">
        <ele>547.532476</ele>
        <time>2021-11-20T16:11:35.033Z</time>
      </trkpt>
      <trkpt lat="47.488083" lon="7.896718">
        <ele>547.272976</ele>
        <time>2021-11-20T16:11:36.126Z</time>
      </trkpt>
      <trkpt lat="47.487908" lon="7.896570">
        <ele>546.829939</ele>
        <time>2021-11-20T16:11:38.092Z</time>
      </trkpt>
      <trkpt lat="47.487851" lon="7.896587">
        <ele>546.702132</ele>
        <time>2021-11-20T16:11:38.846Z</time>
      </trkpt>
      <trkpt lat="47.487421" lon="7.896715">
        <ele>544.124915</ele>
        <time>2021-11-20T16:11:42.997Z</time>
      </trkpt>
      <trkpt lat="47.487234" lon="7.896710">
        <ele>542.870229</ele>
        <time>2021-11-20T16:11:44.728Z</time>
      </trkpt>
      <trkpt lat="47.487132" lon="7.896643">
        <ele>542.121585</ele>
        <time>2021-11-20T16:11:46.017Z</time>
      </trkpt>
      <trkpt lat="47.487062" lon="7.896463">
        <ele>541.180120</ele>
        <time>2021-11-20T16:11:47.245Z</time>
      </trkpt>
      <trkpt lat="47.487093" lon="7.896001">
        <ele>539.075443</ele>
        <time>2021-11-20T16:11:50.074Z</time>
      </trkpt>
      <trkpt lat="47.487149" lon="7.895169">
        <ele>535.285091</ele>
        <time>2021-11-20T16:11:55.053Z</time>
      </trkpt>
      <trkpt lat="47.487161" lon="7.894314">
        <ele>529.781795</ele>
        <time>2021-11-20T16:12:00.099Z</time>
      </trkpt>
      <trkpt lat="47.487170" lon="7.894195">
        <ele>528.949462</ele>
        <time>2021-11-20T16:12:00.763Z</time>
      </trkpt>
      <trkpt lat="47.487181" lon="7.894092">
        <ele>528.224624</ele>
        <time>2021-11-20T16:12:01.368Z</time>
      </trkpt>
      <trkpt lat="47.487216" lon="7.893977">
        <ele>527.347927</ele>
        <time>2021-11-20T16:12:02.202Z</time>
      </trkpt>
      <trkpt lat="47.487256" lon="7.893919">
        <ele>526.771883</ele>
        <time>2021-11-20T16:12:02.700Z</time>
      </trkpt>
      <trkpt lat="47.487323" lon="7.893893">
        <ele>526.059401</ele>
        <time>2021-11-20T16:12:03.292Z</time>
      </trkpt>
      <trkpt lat="47.487476" lon="7.893956">
        <ele>524.425814</ele>
        <time>2021-11-20T16:12:04.617Z</time>
      </trkpt>
      <trkpt lat="47.487632" lon="7.894208">
        <ele>522.050281</ele>
        <time>2021-11-20T16:12:06.644Z</time>
      </trkpt>
      <trkpt lat="47.487657" lon="7.894274">
        <ele>521.524361</ele>
        <time>2021-11-20T16:12:07.065Z</time>
      </trkpt>
      <trkpt lat="47.487689" lon="7.894368">
        <ele>520.792745</ele>
        <time>2021-11-20T16:12:07.652Z</time>
      </trkpt>
      <trkpt lat="47.487840" lon="7.894546">
        <ele>518.806963</ele>
        <time>2021-11-20T16:12:09.386Z</time>
      </trkpt>
      <trkpt lat="47.488123" lon="7.894358">
        <ele>515.666560</ele>
        <time>2021-11-20T16:12:11.994Z</time>
      </trkpt>
      <trkpt lat="47.488180" lon="7.894303">
        <ele>515.070314</ele>
        <time>2021-11-20T16:12:12.579Z</time>
      </trkpt>
      <trkpt lat="47.488216" lon="7.894259">
        <ele>514.661192</ele>
        <time>2021-11-20T16:12:12.954Z</time>
      </trkpt>
      <trkpt lat="47.488316" lon="7.893785">
        <ele>511.720993</ele>
        <time>2021-11-20T16:12:15.834Z</time>
      </trkpt>
      <trkpt lat="47.488417" lon="7.893532">
        <ele>509.981073</ele>
        <time>2021-11-20T16:12:17.542Z</time>
      </trkpt>
      <trkpt lat="47.488372" lon="7.893226">
        <ele>508.126815</ele>
        <time>2021-11-20T16:12:19.413Z</time>
      </trkpt>
      <trkpt lat="47.488323" lon="7.893133">
        <ele>507.428551</ele>
        <time>2021-11-20T16:12:20.086Z</time>
      </trkpt>
      <trkpt lat="47.488250" lon="7.893055">
        <ele>506.639592</ele>
        <time>2021-11-20T16:12:20.912Z</time>
      </trkpt>
      <trkpt lat="47.488168" lon="7.892899">
        <ele>505.469350</ele>
        <time>2021-11-20T16:12:22.110Z</time>
      </trkpt>
      <trkpt lat="47.488137" lon="7.892763">
        <ele>504.619501</ele>
        <time>2021-11-20T16:12:22.957Z</time>
      </trkpt>
      <trkpt lat="47.488084" lon="7.892534">
        <ele>503.186243</ele>
        <time>2021-11-20T16:12:24.430Z</time>
      </trkpt>
      <trkpt lat="47.487680" lon="7.891282">
        <ele>497.335451</ele>
        <time>2021-11-20T16:12:32.967Z</time>
      </trkpt>
      <trkpt lat="47.487518" lon="7.890485">
        <ele>494.637256</ele>
        <time>2021-11-20T16:12:38.337Z</time>
      </trkpt>
      <trkpt lat="47.487490" lon="7.890449">
        <ele>494.459305</ele>
        <time>2021-11-20T16:12:38.709Z</time>
      </trkpt>
      <trkpt lat="47.487367" lon="7.890321">
        <ele>493.737904</ele>
        <time>2021-11-20T16:12:40.189Z</time>
      </trkpt>
      <trkpt lat="47.486940" lon="7.889619">
        <ele>490.817794</ele>
        <time>2021-11-20T16:12:46.660Z</time>
      </trkpt>
      <trkpt lat="47.486763" lon="7.889251">
        <ele>489.586579</ele>
        <time>2021-11-20T16:12:49.797Z</time>
      </trkpt>
      <trkpt lat="47.486746" lon="7.889218">
        <ele>489.473473</ele>
        <time>2021-11-20T16:12:50.036Z</time>
      </trkpt>
      <trkpt lat="47.486185" lon="7.888073">
        <ele>485.618445</ele>
        <time>2021-11-20T16:12:59.351Z</time>
      </trkpt>
      <trkpt lat="47.485991" lon="7.887744">
        <ele>484.428249</ele>
        <time>2021-11-20T16:13:02.184Z</time>
      </trkpt>
      <trkpt lat="47.485842" lon="7.887493">
        <ele>483.477192</ele>
        <time>2021-11-20T16:13:04.274Z</time>
      </trkpt>
      <trkpt lat="47.485824" lon="7.887463">
        <ele>483.362278</ele>
        <time>2021-11-20T16:13:04.531Z</time>
      </trkpt>
      <trkpt lat="47.485730" lon="7.887323">
        <ele>482.796982</ele>
        <time>2021-11-20T16:13:05.812Z</time>
      </trkpt>
      <trkpt lat="47.484923" lon="7.886213">
        <ele>478.126916</ele>
        <time>2021-11-20T16:13:16.426Z</time>
      </trkpt>
      <trkpt lat="47.484859" lon="7.886144">
        <ele>477.791278</ele>
        <time>2021-11-20T16:13:17.142Z</time>
      </trkpt>
      <trkpt lat="47.484724" lon="7.885990">
        <ele>477.068767</ele>
        <time>2021-11-20T16:13:18.938Z</time>
      </trkpt>
      <trkpt lat="47.484124" lon="7.885514">
        <ele>474.789139</ele>
        <time>2021-11-20T16:13:25.843Z</time>
      </trkpt>
      <trkpt lat="47.483644" lon="7.884992">
        <ele>472.874985</ele>
        <time>2021-11-20T16:13:31.729Z</time>
      </trkpt>
      <trkpt lat="47.483551" lon="7.884901">
        <ele>472.516714</ele>
        <time>2021-11-20T16:13:32.877Z</time>
      </trkpt>
      <trkpt lat="47.483495" lon="7.884861">
        <ele>472.316898</ele>
        <time>2021-11-20T16:13:33.680Z</time>
      </trkpt>
      <trkpt lat="47.483344" lon="7.884768">
        <ele>471.791330</ele>
        <time>2021-11-20T16:13:35.312Z</time>
      </trkpt>
      <trkpt lat="47.482795" lon="7.884621">
        <ele>470.239027</ele>
        <time>2021-11-20T16:13:41.301Z</time>
      </trkpt>
      <trkpt lat="47.482343" lon="7.884501">
        <ele>469.153275</ele>
        <time>2021-11-20T16:13:46.114Z</time>
      </trkpt>
      <trkpt lat="47.482094" lon="7.884439">
        <ele>468.556274</ele>
        <time>2021-11-20T16:13:48.838Z</time>
      </trkpt>
      <trkpt lat="47.481625" lon="7.884355">
        <ele>467.439299</ele>
        <time>2021-11-20T16:13:53.910Z</time>
      </trkpt>
      <trkpt lat="47.481202" lon="7.884417">
        <ele>466.500394</ele>
        <time>2021-11-20T16:13:58.480Z</time>
      </trkpt>
      <trkpt lat="47.481022" lon="7.884472">
        <ele>466.195348</ele>
        <time>2021-11-20T16:14:00.373Z</time>
      </trkpt>
      <trkpt lat="47.480931" lon="7.884489">
        <ele>466.043119</ele>
        <time>2021-11-20T16:14:01.439Z</time>
      </trkpt>
      <trkpt lat="47.480537" lon="7.884477">
        <ele>465.389067</ele>
        <time>2021-11-20T16:14:05.820Z</time>
      </trkpt>
      <trkpt lat="47.479813" lon="7.884128">
        <ele>464.125300</ele>
        <time>2021-11-20T16:14:14.608Z</time>
      </trkpt>
      <trkpt lat="47.479273" lon="7.883853">
        <ele>463.674728</ele>
        <time>2021-11-20T16:14:21.477Z</time>
      </trkpt>
      <trkpt lat="47.479105" lon="7.883776">
        <ele>463.676975</ele>
        <time>2021-11-20T16:14:23.649Z</time>
      </trkpt>
      <trkpt lat="47.478811" lon="7.883733">
        <ele>463.680749</ele>
        <time>2021-11-20T16:14:27.412Z</time>
      </trkpt>
      <trkpt lat="47.478579" lon="7.883777">
        <ele>463.683737</ele>
        <time>2021-11-20T16:14:30.460Z</time>
      </trkpt>
      <trkpt lat="47.477249" lon="7.884423">
        <ele>465.911813</ele>
        <time>2021-11-20T16:14:56.921Z</time>
      </trkpt>
      <trkpt lat="47.476108" lon="7.884690">
        <ele>470.155669</ele>
        <time>2021-11-20T16:15:36.648Z</time>
      </trkpt>
      <trkpt lat="47.475795" lon="7.884698">
        <ele>471.692638</ele>
        <time>2021-11-20T16:15:48.665Z</time>
      </trkpt>
      <trkpt lat="47.475660" lon="7.884681">
        <ele>472.382198</ele>
        <time>2021-11-20T16:15:54.241Z</time>
      </trkpt>
      <trkpt lat="47.475395" lon="7.884643">
        <ele>473.737221</ele>
        <time>2021-11-20T16:16:04.826Z</time>
      </trkpt>
      <trkpt lat="47.474825" lon="7.884590">
        <ele>476.643929</ele>
        <time>2021-11-20T16:16:25.336Z</time>
      </trkpt>
      <trkpt lat="47.474703" lon="7.884534">
        <ele>477.294039</ele>
        <time>2021-11-20T16:16:30.950Z</time>
      </trkpt>
      <trkpt lat="47.474508" lon="7.884402">
        <ele>478.385430</ele>
        <time>2021-11-20T16:16:37.781Z</time>
      </trkpt>
      <trkpt lat="47.473290" lon="7.883592">
        <ele>481.389251</ele>
        <time>2021-11-20T16:17:14.113Z</time>
      </trkpt>
      <trkpt lat="47.473082" lon="7.883408">
        <ele>481.805728</ele>
        <time>2021-11-20T16:17:17.825Z</time>
      </trkpt>
      <trkpt lat="47.472670" lon="7.883027">
        <ele>482.184961</ele>
        <time>2021-11-20T16:17:24.544Z</time>
      </trkpt>
      <trkpt lat="47.471932" lon="7.882355">
        <ele>476.448976</ele>
        <time>2021-11-20T16:17:33.535Z</time>
      </trkpt>
      <trkpt lat="47.471600" lon="7.881776">
        <ele>473.051915</ele>
        <time>2021-11-20T16:17:37.933Z</time>
      </trkpt>
      <trkpt lat="47.471472" lon="7.881494">
        <ele>471.532128</ele>
        <time>2021-11-20T16:17:39.955Z</time>
      </trkpt>
      <trkpt lat="47.471451" lon="7.881438">
        <ele>471.245600</ele>
        <time>2021-11-20T16:17:40.330Z</time>
      </trkpt>
      <trkpt lat="47.471376" lon="7.881235">
        <ele>469.684824</ele>
        <time>2021-11-20T16:17:41.624Z</time>
      </trkpt>
      <trkpt lat="47.471173" lon="7.880721">
        <ele>463.772089</ele>
        <time>2021-11-20T16:17:44.990Z</time>
      </trkpt>
      <trkpt lat="47.471143" lon="7.880602">
        <ele>462.510614</ele>
        <time>2021-11-20T16:17:45.705Z</time>
      </trkpt>
      <trkpt lat="47.471122" lon="7.880528">
        <ele>461.713475</ele>
        <time>2021-11-20T16:17:46.154Z</time>
      </trkpt>
      <trkpt lat="47.471056" lon="7.880271">
        <ele>458.982845</ele>
        <time>2021-11-20T16:17:47.685Z</time>
      </trkpt>
      <trkpt lat="47.470688" lon="7.879298">
        <ele>447.908732</ele>
        <time>2021-11-20T16:17:53.920Z</time>
      </trkpt>
      <trkpt lat="47.470641" lon="7.879203">
        <ele>446.739425</ele>
        <time>2021-11-20T16:17:54.582Z</time>
      </trkpt>
      <trkpt lat="47.470626" lon="7.879175">
        <ele>446.384569</ele>
        <time>2021-11-20T16:17:54.779Z</time>
      </trkpt>
      <trkpt lat="47.470496" lon="7.878920">
        <ele>443.565717</ele>
        <time>2021-11-20T16:17:56.578Z</time>
      </trkpt>
      <trkpt lat="47.470372" lon="7.878664">
        <ele>441.542738</ele>
        <time>2021-11-20T16:17:58.346Z</time>
      </trkpt>
      <trkpt lat="47.470277" lon="7.878469">
        <ele>439.998762</ele>
        <time>2021-11-20T16:17:59.716Z</time>
      </trkpt>
      <trkpt lat="47.470106" lon="7.878102">
        <ele>437.135592</ele>
        <time>2021-11-20T16:18:02.293Z</time>
      </trkpt>
      <trkpt lat="47.469549" lon="7.877073">
        <ele>428.667785</ele>
        <time>2021-11-20T16:18:10.189Z</time>
      </trkpt>
      <trkpt lat="47.469512" lon="7.877020">
        <ele>428.178376</ele>
        <time>2021-11-20T16:18:10.637Z</time>
      </trkpt>
      <trkpt lat="47.469475" lon="7.876966">
        <ele>427.684477</ele>
        <time>2021-11-20T16:18:11.136Z</time>
      </trkpt>
      <trkpt lat="47.469413" lon="7.876875">
        <ele>427.028891</ele>
        <time>2021-11-20T16:18:12.022Z</time>
      </trkpt>
      <trkpt lat="47.469384" lon="7.876836">
        <ele>426.899996</ele>
        <time>2021-11-20T16:18:12.875Z</time>
      </trkpt>
      <trkpt lat="47.469354" lon="7.876797">
        <ele>426.768649</ele>
        <time>2021-11-20T16:18:13.226Z</time>
      </trkpt>
      <trkpt lat="47.469265" lon="7.876688">
        <ele>426.388653</ele>
        <time>2021-11-20T16:18:14.326Z</time>
      </trkpt>
      <trkpt lat="47.468740" lon="7.876159">
        <ele>424.299552</ele>
        <time>2021-11-20T16:18:20.848Z</time>
      </trkpt>
      <trkpt lat="47.468698" lon="7.876140">
        <ele>424.155108</ele>
        <time>2021-11-20T16:18:21.277Z</time>
      </trkpt>
      <trkpt lat="47.468788" lon="7.875770">
        <ele>423.280890</ele>
        <time>2021-11-20T16:18:24.097Z</time>
      </trkpt>
      <trkpt lat="47.468806" lon="7.875696">
        <ele>423.106047</ele>
        <time>2021-11-20T16:18:24.609Z</time>
      </trkpt>
      <trkpt lat="47.468925" lon="7.875205">
        <ele>421.946420</ele>
        <time>2021-11-20T16:18:28.315Z</time>
      </trkpt>
      <trkpt lat="47.468989" lon="7.874967">
        <ele>421.376972</ele>
        <time>2021-11-20T16:18:30.103Z</time>
      </trkpt>
      <trkpt lat="47.469050" lon="7.874738">
        <ele>420.983165</ele>
        <time>2021-11-20T16:18:32.107Z</time>
      </trkpt>
      <trkpt lat="47.469068" lon="7.874689">
        <ele>420.909761</ele>
        <time>2021-11-20T16:18:32.521Z</time>
      </trkpt>
      <trkpt lat="47.469097" lon="7.874606">
        <ele>420.786782</ele>
        <time>2021-11-20T16:18:33.155Z</time>
      </trkpt>
      <trkpt lat="47.469136" lon="7.874516">
        <ele>420.646070</ele>
        <time>2021-11-20T16:18:33.941Z</time>
      </trkpt>
      <trkpt lat="47.469173" lon="7.874432">
        <ele>420.514104</ele>
        <time>2021-11-20T16:18:34.733Z</time>
      </trkpt>
      <trkpt lat="47.469224" lon="7.874328">
        <ele>420.344989</ele>
        <time>2021-11-20T16:18:35.835Z</time>
      </trkpt>
      <trkpt lat="47.469422" lon="7.873965">
        <ele>419.731047</ele>
        <time>2021-11-20T16:18:39.246Z</time>
      </trkpt>
      <trkpt lat="47.469489" lon="7.873809">
        <ele>419.487775</ele>
        <time>2021-11-20T16:18:40.647Z</time>
      </trkpt>
      <trkpt lat="47.469626" lon="7.873477">
        <ele>418.975799</ele>
        <time>2021-11-20T16:18:43.523Z</time>
      </trkpt>
      <trkpt lat="47.469682" lon="7.873326">
        <ele>418.749101</ele>
        <time>2021-11-20T16:18:44.863Z</time>
      </trkpt>
      <trkpt lat="47.469710" lon="7.873249">
        <ele>418.634018</ele>
        <time>2021-11-20T16:18:45.444Z</time>
      </trkpt>
      <trkpt lat="47.469969" lon="7.872276">
        <ele>417.337291</ele>
        <time>2021-11-20T16:18:53.430Z</time>
      </trkpt>
      <trkpt lat="47.470156" lon="7.871491">
        <ele>416.437504</ele>
        <time>2021-11-20T16:18:59.727Z</time>
      </trkpt>
      <trkpt lat="47.470217" lon="7.871214">
        <ele>416.122561</ele>
        <time>2021-11-20T16:19:01.892Z</time>
      </trkpt>
      <trkpt lat="47.470245" lon="7.871088">
        <ele>415.979176</ele>
        <time>2021-11-20T16:19:02.890Z</time>
      </trkpt>
      <trkpt lat="47.470316" lon="7.870753">
        <ele>415.599639</ele>
        <time>2021-11-20T16:19:05.765Z</time>
      </trkpt>
      <trkpt lat="47.470333" lon="7.870669">
        <ele>415.504848</ele>
        <time>2021-11-20T16:19:06.382Z</time>
      </trkpt>
      <trkpt lat="47.470350" lon="7.870570">
        <ele>415.394424</ele>
        <time>2021-11-20T16:19:07.176Z</time>
      </trkpt>
      <trkpt lat="47.470379" lon="7.870338">
        <ele>415.139368</ele>
        <time>2021-11-20T16:19:09.162Z</time>
      </trkpt>
      <trkpt lat="47.470397" lon="7.870147">
        <ele>414.930889</ele>
        <time>2021-11-20T16:19:11.258Z</time>
      </trkpt>
      <trkpt lat="47.470378" lon="7.869626">
        <ele>414.614791</ele>
        <time>2021-11-20T16:19:17.276Z</time>
      </trkpt>
      <trkpt lat="47.470309" lon="7.869201">
        <ele>414.396839</ele>
        <time>2021-11-20T16:19:22.636Z</time>
      </trkpt>
      <trkpt lat="47.470234" lon="7.868884">
        <ele>414.229364</ele>
        <time>2021-11-20T16:19:26.645Z</time>
      </trkpt>
      <trkpt lat="47.470127" lon="7.868484">
        <ele>414.014854</ele>
        <time>2021-11-20T16:19:32.059Z</time>
      </trkpt>
      <trkpt lat="47.469915" lon="7.867494">
        <ele>413.495134</ele>
        <time>2021-11-20T16:19:45.226Z</time>
      </trkpt>
      <trkpt lat="47.469808" lon="7.866690">
        <ele>412.851061</ele>
        <time>2021-11-20T16:19:54.950Z</time>
      </trkpt>
      <trkpt lat="47.469764" lon="7.866452">
        <ele>412.657123</ele>
        <time>2021-11-20T16:19:57.961Z</time>
      </trkpt>
      <trkpt lat="47.469710" lon="7.866208">
        <ele>412.455323</ele>
        <time>2021-11-20T16:20:00.928Z</time>
      </trkpt>
      <trkpt lat="47.469629" lon="7.865918">
        <ele>412.208691</ele>
        <time>2021-11-20T16:20:04.683Z</time>
      </trkpt>
      <trkpt lat="47.469305" lon="7.864692">
        <ele>411.045429</ele>
        <time>2021-11-20T16:20:19.081Z</time>
      </trkpt>
      <trkpt lat="47.469011" lon="7.863405">
        <ele>409.392951</ele>
        <time>2021-11-20T16:20:33.792Z</time>
      </trkpt>
      <trkpt lat="47.468986" lon="7.863323">
        <ele>409.283531</ele>
        <time>2021-11-20T16:20:34.649Z</time>
      </trkpt>
      <trkpt lat="47.468943" lon="7.863195">
        <ele>409.109665</ele>
        <time>2021-11-20T16:20:36.197Z</time>
      </trkpt>
      <trkpt lat="47.468859" lon="7.862978">
        <ele>408.805491</ele>
        <time>2021-11-20T16:20:38.960Z</time>
      </trkpt>
      <trkpt lat="47.468825" lon="7.862900">
        <ele>408.692596</ele>
        <time>2021-11-20T16:20:39.936Z</time>
      </trkpt>
      <trkpt lat="47.468543" lon="7.862357">
        <ele>407.957799</ele>
        <time>2021-11-20T16:20:47.346Z</time>
      </trkpt>
      <trkpt lat="47.468224" lon="7.861805">
        <ele>407.351673</ele>
        <time>2021-11-20T16:20:55.508Z</time>
      </trkpt>
      <trkpt lat="47.467944" lon="7.861300">
        <ele>406.806540</ele>
        <time>2021-11-20T16:21:02.882Z</time>
      </trkpt>
      <trkpt lat="47.467266" lon="7.860107">
        <ele>405.604129</ele>
        <time>2021-11-20T16:21:21.593Z</time>
      </trkpt>
      <trkpt lat="47.467047" lon="7.859682">
        <ele>405.256572</ele>
        <time>2021-11-20T16:21:27.794Z</time>
      </trkpt>
      <trkpt lat="47.466922" lon="7.859398">
        <ele>405.036164</ele>
        <time>2021-11-20T16:21:31.758Z</time>
      </trkpt>
      <trkpt lat="47.466824" lon="7.859137">
        <ele>404.841988</ele>
        <time>2021-11-20T16:21:35.457Z</time>
      </trkpt>
      <trkpt lat="47.466673" lon="7.858620">
        <ele>404.475698</ele>
        <time>2021-11-20T16:21:42.012Z</time>
      </trkpt>
      <trkpt lat="47.466576" lon="7.858236">
        <ele>404.202890</ele>
        <time>2021-11-20T16:21:46.870Z</time>
      </trkpt>
      <trkpt lat="47.466518" lon="7.858022">
        <ele>403.975983</ele>
        <time>2021-11-20T16:21:48.788Z</time>
      </trkpt>
      <trkpt lat="47.466347" lon="7.856973">
        <ele>402.914001</ele>
        <time>2021-11-20T16:21:57.354Z</time>
      </trkpt>
      <trkpt lat="47.466344" lon="7.856945">
        <ele>402.886101</ele>
        <time>2021-11-20T16:21:57.536Z</time>
      </trkpt>
      <trkpt lat="47.466322" lon="7.856655">
        <ele>402.598900</ele>
        <time>2021-11-20T16:21:59.902Z</time>
      </trkpt>
      <trkpt lat="47.466310" lon="7.856541">
        <ele>402.485353</ele>
        <time>2021-11-20T16:22:00.765Z</time>
      </trkpt>
      <trkpt lat="47.466334" lon="7.856525">
        <ele>402.447029</ele>
        <time>2021-11-20T16:22:01.079Z</time>
      </trkpt>
      <trkpt lat="47.466353" lon="7.856496">
        <ele>402.407283</ele>
        <time>2021-11-20T16:22:01.392Z</time>
      </trkpt>
      <trkpt lat="47.466361" lon="7.856459">
        <ele>402.369052</ele>
        <time>2021-11-20T16:22:01.661Z</time>
      </trkpt>
      <trkpt lat="47.466359" lon="7.856420">
        <ele>402.330559</ele>
        <time>2021-11-20T16:22:01.956Z</time>
      </trkpt>
      <trkpt lat="47.466324" lon="7.856362">
        <ele>402.254044</ele>
        <time>2021-11-20T16:22:02.575Z</time>
      </trkpt>
      <trkpt lat="47.466298" lon="7.856354">
        <ele>402.215382</ele>
        <time>2021-11-20T16:22:02.866Z</time>
      </trkpt>
      <trkpt lat="47.466295" lon="7.856234">
        <ele>402.097201</ele>
        <time>2021-11-20T16:22:03.824Z</time>
      </trkpt>
      <trkpt lat="47.466298" lon="7.855895">
        <ele>401.763539</ele>
        <time>2021-11-20T16:22:06.337Z</time>
      </trkpt>
      <trkpt lat="47.466324" lon="7.855062">
        <ele>400.893536</ele>
        <time>2021-11-20T16:22:12.693Z</time>
      </trkpt>
      <trkpt lat="47.466332" lon="7.854775">
        <ele>400.589709</ele>
        <time>2021-11-20T16:22:14.865Z</time>
      </trkpt>
      <trkpt lat="47.466338" lon="7.854554">
        <ele>400.355762</ele>
        <time>2021-11-20T16:22:16.562Z</time>
      </trkpt>
      <trkpt lat="47.466331" lon="7.853936">
        <ele>399.701992</ele>
        <time>2021-11-20T16:22:21.405Z</time>
      </trkpt>
      <trkpt lat="47.466256" lon="7.853287">
        <ele>399.005567</ele>
        <time>2021-11-20T16:22:26.450Z</time>
      </trkpt>
      <trkpt lat="47.465906" lon="7.851776">
        <ele>397.677730</ele>
        <time>2021-11-20T16:22:39.317Z</time>
      </trkpt>
      <trkpt lat="47.465871" lon="7.851620">
        <ele>397.546574</ele>
        <time>2021-11-20T16:22:40.632Z</time>
      </trkpt>
      <trkpt lat="47.465896" lon="7.851603">
        <ele>397.514097</ele>
        <time>2021-11-20T16:22:40.960Z</time>
      </trkpt>
      <trkpt lat="47.465931" lon="7.851497">
        <ele>397.419965</ele>
        <time>2021-11-20T16:22:41.952Z</time>
      </trkpt>
      <trkpt lat="47.465925" lon="7.851458">
        <ele>397.388050</ele>
        <time>2021-11-20T16:22:42.275Z</time>
      </trkpt>
      <trkpt lat="47.465914" lon="7.851427">
        <ele>397.360113</ele>
        <time>2021-11-20T16:22:42.559Z</time>
      </trkpt>
      <trkpt lat="47.465853" lon="7.851380">
        <ele>397.278930</ele>
        <time>2021-11-20T16:22:43.408Z</time>
      </trkpt>
      <trkpt lat="47.465829" lon="7.851383">
        <ele>397.250501</ele>
        <time>2021-11-20T16:22:43.694Z</time>
      </trkpt>
      <trkpt lat="47.465714" lon="7.850917">
        <ele>396.854656</ele>
        <time>2021-11-20T16:22:47.760Z</time>
      </trkpt>
      <trkpt lat="47.465620" lon="7.850585">
        <ele>396.556460</ele>
        <time>2021-11-20T16:22:50.712Z</time>
      </trkpt>
      <trkpt lat="47.465558" lon="7.850405">
        <ele>396.377191</ele>
        <time>2021-11-20T16:22:52.382Z</time>
      </trkpt>
      <trkpt lat="47.465348" lon="7.849875">
        <ele>395.832044</ele>
        <time>2021-11-20T16:22:57.277Z</time>
      </trkpt>
      <trkpt lat="47.465152" lon="7.849351">
        <ele>395.300618</ele>
        <time>2021-11-20T16:23:01.991Z</time>
      </trkpt>
      <trkpt lat="47.464952" lon="7.848443">
        <ele>394.453169</ele>
        <time>2021-11-20T16:23:09.481Z</time>
      </trkpt>
      <trkpt lat="47.464909" lon="7.848219">
        <ele>394.254340</ele>
        <time>2021-11-20T16:23:11.326Z</time>
      </trkpt>
      <trkpt lat="47.464850" lon="7.847870">
        <ele>393.978151</ele>
        <time>2021-11-20T16:23:14.127Z</time>
      </trkpt>
      <trkpt lat="47.464820" lon="7.847644">
        <ele>393.801331</ele>
        <time>2021-11-20T16:23:16.038Z</time>
      </trkpt>
      <trkpt lat="47.464784" lon="7.847333">
        <ele>393.559091</ele>
        <time>2021-11-20T16:23:18.545Z</time>
      </trkpt>
      <trkpt lat="47.464771" lon="7.847028">
        <ele>393.324467</ele>
        <time>2021-11-20T16:23:21.042Z</time>
      </trkpt>
      <trkpt lat="47.464737" lon="7.846119">
        <ele>392.625530</ele>
        <time>2021-11-20T16:23:28.355Z</time>
      </trkpt>
      <trkpt lat="47.464585" lon="7.844988">
        <ele>392.073413</ele>
        <time>2021-11-20T16:23:38.151Z</time>
      </trkpt>
      <trkpt lat="47.464433" lon="7.844273">
        <ele>391.865542</ele>
        <time>2021-11-20T16:23:44.866Z</time>
      </trkpt>
      <trkpt lat="47.464386" lon="7.844088">
        <ele>391.810730</ele>
        <time>2021-11-20T16:23:46.515Z</time>
      </trkpt>
      <trkpt lat="47.464354" lon="7.843960">
        <ele>391.772881</ele>
        <time>2021-11-20T16:23:47.918Z</time>
      </trkpt>
      <trkpt lat="47.464234" lon="7.843434">
        <ele>391.618917</ele>
        <time>2021-11-20T16:23:53.090Z</time>
      </trkpt>
      <trkpt lat="47.464176" lon="7.843178">
        <ele>391.544036</ele>
        <time>2021-11-20T16:23:55.507Z</time>
      </trkpt>
      <trkpt lat="47.464165" lon="7.843130">
        <ele>391.529980</ele>
        <time>2021-11-20T16:23:56.042Z</time>
      </trkpt>
      <trkpt lat="47.464075" lon="7.842774">
        <ele>391.628272</ele>
        <time>2021-11-20T16:24:00.933Z</time>
      </trkpt>
      <trkpt lat="47.464053" lon="7.842690">
        <ele>391.654488</ele>
        <time>2021-11-20T16:24:01.656Z</time>
      </trkpt>
      <trkpt lat="47.463971" lon="7.842355">
        <ele>391.758173</ele>
        <time>2021-11-20T16:24:06.586Z</time>
      </trkpt>
      <trkpt lat="47.463922" lon="7.842123">
        <ele>391.828908</ele>
        <time>2021-11-20T16:24:08.916Z</time>
      </trkpt>
      <trkpt lat="47.463874" lon="7.841863">
        <ele>391.907344</ele>
        <time>2021-11-20T16:24:13.123Z</time>
      </trkpt>
      <trkpt lat="47.463685" lon="7.841203">
        <ele>392.115938</ele>
        <time>2021-11-20T16:24:21.512Z</time>
      </trkpt>
      <trkpt lat="47.463616" lon="7.840992">
        <ele>392.184150</ele>
        <time>2021-11-20T16:24:24.460Z</time>
      </trkpt>
      <trkpt lat="47.463588" lon="7.840904">
        <ele>392.212455</ele>
        <time>2021-11-20T16:24:25.352Z</time>
      </trkpt>
      <trkpt lat="47.463287" lon="7.840028">
        <ele>391.984392</ele>
        <time>2021-11-20T16:24:34.094Z</time>
      </trkpt>
      <trkpt lat="47.463133" lon="7.839561">
        <ele>391.747346</ele>
        <time>2021-11-20T16:24:38.666Z</time>
      </trkpt>
      <trkpt lat="47.463043" lon="7.839292">
        <ele>391.610418</ele>
        <time>2021-11-20T16:24:41.117Z</time>
      </trkpt>
      <trkpt lat="47.462982" lon="7.839106">
        <ele>391.516104</ele>
        <time>2021-11-20T16:24:43.512Z</time>
      </trkpt>
      <trkpt lat="47.462967" lon="7.839047">
        <ele>391.487347</ele>
        <time>2021-11-20T16:24:43.997Z</time>
      </trkpt>
      <trkpt lat="47.462936" lon="7.838934">
        <ele>391.431712</ele>
        <time>2021-11-20T16:24:44.942Z</time>
      </trkpt>
      <trkpt lat="47.462883" lon="7.838488">
        <ele>391.225119</ele>
        <time>2021-11-20T16:24:48.896Z</time>
      </trkpt>
      <trkpt lat="47.462873" lon="7.838016">
        <ele>390.952178</ele>
        <time>2021-11-20T16:24:52.747Z</time>
      </trkpt>
      <trkpt lat="47.462871" lon="7.837954">
        <ele>390.902093</ele>
        <time>2021-11-20T16:24:53.192Z</time>
      </trkpt>
      <trkpt lat="47.462869" lon="7.837866">
        <ele>390.831046</ele>
        <time>2021-11-20T16:24:53.810Z</time>
      </trkpt>
      <trkpt lat="47.462865" lon="7.837711">
        <ele>390.705886</ele>
        <time>2021-11-20T16:24:55.102Z</time>
      </trkpt>
      <trkpt lat="47.462856" lon="7.837506">
        <ele>390.540123</ele>
        <time>2021-11-20T16:24:56.900Z</time>
      </trkpt>
      <trkpt lat="47.462851" lon="7.837404">
        <ele>390.457603</ele>
        <time>2021-11-20T16:24:57.604Z</time>
      </trkpt>
      <trkpt lat="47.462748" lon="7.836556">
        <ele>389.762398</ele>
        <time>2021-11-20T16:25:04.168Z</time>
      </trkpt>
      <trkpt lat="47.462730" lon="7.836472">
        <ele>389.691295</ele>
        <time>2021-11-20T16:25:05.051Z</time>
      </trkpt>
      <trkpt lat="47.462700" lon="7.836337">
        <ele>389.576630</ele>
        <time>2021-11-20T16:25:06.261Z</time>
      </trkpt>
      <trkpt lat="47.462666" lon="7.836201">
        <ele>389.459629</ele>
        <time>2021-11-20T16:25:07.456Z</time>
      </trkpt>
      <trkpt lat="47.462586" lon="7.835900">
        <ele>389.198657</ele>
        <time>2021-11-20T16:25:10.128Z</time>
      </trkpt>
      <trkpt lat="47.462388" lon="7.834991">
        <ele>388.583486</ele>
        <time>2021-11-20T16:25:18.512Z</time>
      </trkpt>
      <trkpt lat="47.462375" lon="7.834910">
        <ele>388.536794</ele>
        <time>2021-11-20T16:25:19.222Z</time>
      </trkpt>
      <trkpt lat="47.462357" lon="7.834782">
        <ele>388.463469</ele>
        <time>2021-11-20T16:25:20.250Z</time>
      </trkpt>
      <trkpt lat="47.462317" lon="7.834216">
        <ele>388.144299</ele>
        <time>2021-11-20T16:25:25.195Z</time>
      </trkpt>
      <trkpt lat="47.462296" lon="7.833933">
        <ele>387.984625</ele>
        <time>2021-11-20T16:25:27.588Z</time>
      </trkpt>
      <trkpt lat="47.462285" lon="7.833721">
        <ele>387.865375</ele>
        <time>2021-11-20T16:25:29.267Z</time>
      </trkpt>
      <trkpt lat="47.462217" lon="7.832953">
        <ele>387.436051</ele>
        <time>2021-11-20T16:25:35.818Z</time>
      </trkpt>
      <trkpt lat="47.462179" lon="7.832744">
        <ele>387.356633</ele>
        <time>2021-11-20T16:25:37.582Z</time>
      </trkpt>
      <trkpt lat="47.462080" lon="7.832335">
        <ele>387.197221</ele>
        <time>2021-11-20T16:25:41.317Z</time>
      </trkpt>
      <trkpt lat="47.462048" lon="7.832204">
        <ele>387.146109</ele>
        <time>2021-11-20T16:25:42.539Z</time>
      </trkpt>
      <trkpt lat="47.461918" lon="7.831668">
        <ele>386.937149</ele>
        <time>2021-11-20T16:25:47.432Z</time>
      </trkpt>
      <trkpt lat="47.461787" lon="7.831158">
        <ele>386.736951</ele>
        <time>2021-11-20T16:25:52.443Z</time>
      </trkpt>
      <trkpt lat="47.461585" lon="7.830158">
        <ele>386.521788</ele>
        <time>2021-11-20T16:26:02.286Z</time>
      </trkpt>
      <trkpt lat="47.461548" lon="7.829918">
        <ele>386.562742</ele>
        <time>2021-11-20T16:26:04.502Z</time>
      </trkpt>
      <trkpt lat="47.461473" lon="7.829886">
        <ele>386.581951</ele>
        <time>2021-11-20T16:26:05.559Z</time>
      </trkpt>
      <trkpt lat="47.460850" lon="7.828883">
        <ele>386.808556</ele>
        <time>2021-11-20T16:26:19.738Z</time>
      </trkpt>
      <trkpt lat="47.460628" lon="7.828763">
        <ele>386.866720</ele>
        <time>2021-11-20T16:26:23.617Z</time>
      </trkpt>
      <trkpt lat="47.460011" lon="7.828663">
        <ele>387.562828</ele>
        <time>2021-11-20T16:26:36.033Z</time>
      </trkpt>
      <trkpt lat="47.459940" lon="7.828652">
        <ele>387.669264</ele>
        <time>2021-11-20T16:26:37.399Z</time>
      </trkpt>
      <trkpt lat="47.459537" lon="7.828672">
        <ele>388.270450</ele>
        <time>2021-11-20T16:26:46.551Z</time>
      </trkpt>
      <trkpt lat="47.459456" lon="7.828693">
        <ele>388.393057</ele>
        <time>2021-11-20T16:26:48.682Z</time>
      </trkpt>
      <trkpt lat="47.458992" lon="7.829105">
        <ele>389.199943</ele>
        <time>2021-11-20T16:26:59.854Z</time>
      </trkpt>
      <trkpt lat="47.458779" lon="7.829408">
        <ele>389.622952</ele>
        <time>2021-11-20T16:27:06.053Z</time>
      </trkpt>
      <trkpt lat="47.458605" lon="7.829769">
        <ele>389.901888</ele>
        <time>2021-11-20T16:27:12.406Z</time>
      </trkpt>
      <trkpt lat="47.458483" lon="7.830002">
        <ele>390.087305</ele>
        <time>2021-11-20T16:27:16.539Z</time>
      </trkpt>
      <trkpt lat="47.458385" lon="7.829959">
        <ele>390.182428</ele>
        <time>2021-11-20T16:27:18.842Z</time>
      </trkpt>
      <trkpt lat="47.458230" lon="7.829919">
        <ele>390.328843</ele>
        <time>2021-11-20T16:27:21.781Z</time>
      </trkpt>
      <trkpt lat="47.457731" lon="7.829812">
        <ele>390.798046</ele>
        <time>2021-11-20T16:27:33.437Z</time>
      </trkpt>
      <trkpt lat="47.457427" lon="7.829810">
        <ele>391.080938</ele>
        <time>2021-11-20T16:27:40.481Z</time>
      </trkpt>
      <trkpt lat="47.456847" lon="7.829841">
        <ele>391.580560</ele>
        <time>2021-11-20T16:27:52.638Z</time>
      </trkpt>
      <trkpt lat="47.456508" lon="7.829890">
        <ele>391.861256</ele>
        <time>2021-11-20T16:27:59.500Z</time>
      </trkpt>
      <trkpt lat="47.456217" lon="7.829960">
        <ele>392.104216</ele>
        <time>2021-11-20T16:28:06.569Z</time>
      </trkpt>
      <trkpt lat="47.455686" lon="7.830084">
        <ele>392.547226</ele>
        <time>2021-11-20T16:28:19.448Z</time>
      </trkpt>
      <trkpt lat="47.455667" lon="7.830016">
        <ele>392.588224</ele>
        <time>2021-11-20T16:28:20.908Z</time>
      </trkpt>
      <trkpt lat="47.455644" lon="7.829891">
        <ele>392.660409</ele>
        <time>2021-11-20T16:28:23.513Z</time>
      </trkpt>
      <trkpt lat="47.455626" lon="7.829799">
        <ele>392.713775</ele>
        <time>2021-11-20T16:28:24.814Z</time>
      </trkpt>
      <trkpt lat="47.455584" lon="7.829685">
        <ele>392.841150</ele>
        <time>2021-11-20T16:28:26.901Z</time>
      </trkpt>
      <trkpt lat="47.455556" lon="7.829615">
        <ele>392.954936</ele>
        <time>2021-11-20T16:28:28.117Z</time>
      </trkpt>
      <trkpt lat="47.455471" lon="7.829717">
        <ele>393.181420</ele>
        <time>2021-11-20T16:28:31.228Z</time>
      </trkpt>
      <trkpt lat="47.455265" lon="7.829874">
        <ele>393.660921</ele>
        <time>2021-11-20T16:28:35.778Z</time>
      </trkpt>
      <trkpt lat="47.455185" lon="7.829882">
        <ele>393.826826</ele>
        <time>2021-11-20T16:28:37.897Z</time>
      </trkpt>
      <trkpt lat="47.455119" lon="7.829864">
        <ele>393.965688</ele>
        <time>2021-11-20T16:28:39.942Z</time>
      </trkpt>
      <trkpt lat="47.454803" lon="7.829577">
        <ele>394.732971</ele>
        <time>2021-11-20T16:28:48.962Z</time>
      </trkpt>
      <trkpt lat="47.454625" lon="7.829495">
        <ele>395.118723</ele>
        <time>2021-11-20T16:28:53.008Z</time>
      </trkpt>
      <trkpt lat="47.454472" lon="7.829506">
        <ele>395.435668</ele>
        <time>2021-11-20T16:28:57.103Z</time>
      </trkpt>
      <trkpt lat="47.454371" lon="7.829564">
        <ele>395.659848</ele>
        <time>2021-11-20T16:28:59.615Z</time>
      </trkpt>
      <trkpt lat="47.454287" lon="7.829611">
        <ele>395.845675</ele>
        <time>2021-11-20T16:29:01.409Z</time>
      </trkpt>
      <trkpt lat="47.453989" lon="7.829813">
        <ele>396.502518</ele>
        <time>2021-11-20T16:29:09.649Z</time>
      </trkpt>
      <trkpt lat="47.453757" lon="7.829984">
        <ele>396.820796</ele>
        <time>2021-11-20T16:29:15.956Z</time>
      </trkpt>
      <trkpt lat="47.453492" lon="7.830220">
        <ele>397.200616</ele>
        <time>2021-11-20T16:29:22.229Z</time>
      </trkpt>
      <trkpt lat="47.453398" lon="7.830308">
        <ele>397.337214</ele>
        <time>2021-11-20T16:29:24.809Z</time>
      </trkpt>
      <trkpt lat="47.453250" lon="7.830464">
        <ele>397.560368</ele>
        <time>2021-11-20T16:29:28.120Z</time>
      </trkpt>
      <trkpt lat="47.453226" lon="7.830494">
        <ele>397.598953</ele>
        <time>2021-11-20T16:29:28.651Z</time>
      </trkpt>
      <trkpt lat="47.452618" lon="7.831252">
        <ele>398.575359</ele>
        <time>2021-11-20T16:29:43.397Z</time>
      </trkpt>
      <trkpt lat="47.452373" lon="7.831505">
        <ele>398.727254</ele>
        <time>2021-11-20T16:29:48.076Z</time>
      </trkpt>
      <trkpt lat="47.452175" lon="7.831696">
        <ele>398.779832</ele>
        <time>2021-11-20T16:29:51.872Z</time>
      </trkpt>
      <trkpt lat="47.451989" lon="7.831857">
        <ele>398.827767</ele>
        <time>2021-11-20T16:29:54.835Z</time>
      </trkpt>
      <trkpt lat="47.451701" lon="7.832106">
        <ele>398.901966</ele>
        <time>2021-11-20T16:29:59.657Z</time>
      </trkpt>
      <trkpt lat="47.451426" lon="7.832356">
        <ele>398.973763</ele>
        <time>2021-11-20T16:30:04.403Z</time>
      </trkpt>
      <trkpt lat="47.451327" lon="7.832461">
        <ele>399.000860</ele>
        <time>2021-11-20T16:30:06.365Z</time>
      </trkpt>
      <trkpt lat="47.451121" lon="7.832696">
        <ele>399.058726</ele>
        <time>2021-11-20T16:30:10.185Z</time>
      </trkpt>
      <trkpt lat="47.450016" lon="7.834124">
        <ele>400.360445</ele>
        <time>2021-11-20T16:30:36.499Z</time>
      </trkpt>
      <trkpt lat="47.449811" lon="7.834354">
        <ele>400.600469</ele>
        <time>2021-11-20T16:30:41.861Z</time>
      </trkpt>
      <trkpt lat="47.449669" lon="7.834494">
        <ele>400.762459</ele>
        <time>2021-11-20T16:30:45.288Z</time>
      </trkpt>
      <trkpt lat="47.449505" lon="7.834629">
        <ele>401.159254</ele>
        <time>2021-11-20T16:30:49.532Z</time>
      </trkpt>
      <trkpt lat="47.449275" lon="7.834788">
        <ele>401.695984</ele>
        <time>2021-11-20T16:30:55.086Z</time>
      </trkpt>
      <trkpt lat="47.448956" lon="7.834983">
        <ele>402.425702</ele>
        <time>2021-11-20T16:31:03.051Z</time>
      </trkpt>
      <trkpt lat="47.448978" lon="7.835062">
        <ele>402.547841</ele>
        <time>2021-11-20T16:31:04.774Z</time>
      </trkpt>
      <trkpt lat="47.448622" lon="7.835311">
        <ele>403.380370</ele>
        <time>2021-11-20T16:31:16.398Z</time>
      </trkpt>
      <trkpt lat="47.448051" lon="7.835889">
        <ele>404.914163</ele>
        <time>2021-11-20T16:31:36.946Z</time>
      </trkpt>
      <trkpt lat="47.447146" lon="7.836805">
        <ele>407.813078</ele>
        <time>2021-11-20T16:32:11.014Z</time>
      </trkpt>
      <trkpt lat="47.446145" lon="7.837696">
        <ele>411.023505</ele>
        <time>2021-11-20T16:32:46.989Z</time>
      </trkpt>
      <trkpt lat="47.446064" lon="7.837840">
        <ele>411.384078</ele>
        <time>2021-11-20T16:32:51.008Z</time>
      </trkpt>
      <trkpt lat="47.445528" lon="7.838233">
        <ele>413.087134</ele>
        <time>2021-11-20T16:33:10.226Z</time>
      </trkpt>
      <trkpt lat="47.445072" lon="7.838787">
        <ele>414.748792</ele>
        <time>2021-11-20T16:33:29.151Z</time>
      </trkpt>
      <trkpt lat="47.444584" lon="7.839628">
        <ele>416.764558</ele>
        <time>2021-11-20T16:33:53.022Z</time>
      </trkpt>
      <trkpt lat="47.443079" lon="7.842585">
        <ele>422.928475</ele>
        <time>2021-11-20T16:35:08.273Z</time>
      </trkpt>
      <trkpt lat="47.442391" lon="7.843670">
        <ele>424.497500</ele>
        <time>2021-11-20T16:35:35.972Z</time>
      </trkpt>
      <trkpt lat="47.438127" lon="7.849642">
        <ele>432.017143</ele>
        <time>2021-11-20T16:38:03.650Z</time>
      </trkpt>
      <trkpt lat="47.437750" lon="7.850017">
        <ele>432.507968</ele>
        <time>2021-11-20T16:38:13.822Z</time>
      </trkpt>
      <trkpt lat="47.437310" lon="7.850269">
        <ele>433.142448</ele>
        <time>2021-11-20T16:38:25.327Z</time>
      </trkpt>
      <trkpt lat="47.436663" lon="7.850327">
        <ele>434.053804</ele>
        <time>2021-11-20T16:38:41.992Z</time>
      </trkpt>
      <trkpt lat="47.436538" lon="7.850283">
        <ele>434.234468</ele>
        <time>2021-11-20T16:38:44.840Z</time>
      </trkpt>
      <trkpt lat="47.436479" lon="7.850260">
        <ele>434.320257</ele>
        <time>2021-11-20T16:38:46.856Z</time>
      </trkpt>
      <trkpt lat="47.436050" lon="7.850036">
        <ele>434.959948</ele>
        <time>2021-11-20T16:38:58.643Z</time>
      </trkpt>
      <trkpt lat="47.435954" lon="7.849967">
        <ele>435.110031</ele>
        <time>2021-11-20T16:39:01.959Z</time>
      </trkpt>
      <trkpt lat="47.434500" lon="7.848920">
        <ele>438.182555</ele>
        <time>2021-11-20T16:39:48.508Z</time>
      </trkpt>
      <trkpt lat="47.433795" lon="7.848524">
        <ele>439.357137</ele>
        <time>2021-11-20T16:40:06.887Z</time>
      </trkpt>
      <trkpt lat="47.433528" lon="7.848396">
        <ele>439.759680</ele>
        <time>2021-11-20T16:40:14.014Z</time>
      </trkpt>
      <trkpt lat="47.433365" lon="7.848309">
        <ele>440.008212</ele>
        <time>2021-11-20T16:40:18.128Z</time>
      </trkpt>
      <trkpt lat="47.432515" lon="7.847914">
        <ele>441.363293</ele>
        <time>2021-11-20T16:40:42.387Z</time>
      </trkpt>
      <trkpt lat="47.432368" lon="7.847858">
        <ele>441.694938</ele>
        <time>2021-11-20T16:40:46.237Z</time>
      </trkpt>
      <trkpt lat="47.431726" lon="7.847615">
        <ele>443.142771</ele>
        <time>2021-11-20T16:41:04.842Z</time>
      </trkpt>
      <trkpt lat="47.431292" lon="7.847484">
        <ele>444.110501</ele>
        <time>2021-11-20T16:41:17.733Z</time>
      </trkpt>
      <trkpt lat="47.430641" lon="7.847433">
        <ele>445.560164</ele>
        <time>2021-11-20T16:41:38.282Z</time>
      </trkpt>
      <trkpt lat="47.430098" lon="7.847528">
        <ele>446.819787</ele>
        <time>2021-11-20T16:41:55.077Z</time>
      </trkpt>
      <trkpt lat="47.429436" lon="7.847758">
        <ele>448.386373</ele>
        <time>2021-11-20T16:42:14.666Z</time>
      </trkpt>
      <trkpt lat="47.429321" lon="7.847805">
        <ele>448.661234</ele>
        <time>2021-11-20T16:42:18.249Z</time>
      </trkpt>
      <trkpt lat="47.428781" lon="7.847991">
        <ele>449.773900</ele>
        <time>2021-11-20T16:42:33.365Z</time>
      </trkpt>
      <trkpt lat="47.428268" lon="7.848175">
        <ele>450.714622</ele>
        <time>2021-11-20T16:42:47.943Z</time>
      </trkpt>
      <trkpt lat="47.427648" lon="7.848283">
        <ele>451.827141</ele>
        <time>2021-11-20T16:43:04.760Z</time>
      </trkpt>
      <trkpt lat="47.425165" lon="7.848031">
        <ele>456.160887</ele>
        <time>2021-11-20T16:44:12.718Z</time>
      </trkpt>
      <trkpt lat="47.425093" lon="7.848037">
        <ele>456.270227</ele>
        <time>2021-11-20T16:44:14.908Z</time>
      </trkpt>
      <trkpt lat="47.425016" lon="7.848030">
        <ele>456.387194</ele>
        <time>2021-11-20T16:44:16.898Z</time>
      </trkpt>
      <trkpt lat="47.424743" lon="7.847935">
        <ele>456.812432</ele>
        <time>2021-11-20T16:44:23.966Z</time>
      </trkpt>
      <trkpt lat="47.423887" lon="7.847874">
        <ele>458.111801</ele>
        <time>2021-11-20T16:44:46.112Z</time>
      </trkpt>
      <trkpt lat="47.423788" lon="7.847858">
        <ele>458.262798</ele>
        <time>2021-11-20T16:44:48.491Z</time>
      </trkpt>
      <trkpt lat="47.423488" lon="7.847784">
        <ele>458.902851</ele>
        <time>2021-11-20T16:44:56.592Z</time>
      </trkpt>
      <trkpt lat="47.423401" lon="7.847760">
        <ele>459.100071</ele>
        <time>2021-11-20T16:44:58.818Z</time>
      </trkpt>
      <trkpt lat="47.423326" lon="7.847739">
        <ele>459.270175</ele>
        <time>2021-11-20T16:45:00.843Z</time>
      </trkpt>
      <trkpt lat="47.423175" lon="7.847645">
        <ele>459.635295</ele>
        <time>2021-11-20T16:45:05.158Z</time>
      </trkpt>
      <trkpt lat="47.423160" lon="7.847639">
        <ele>459.669923</ele>
        <time>2021-11-20T16:45:05.586Z</time>
      </trkpt>
      <trkpt lat="47.422830" lon="7.847504">
        <ele>460.432951</ele>
        <time>2021-11-20T16:45:15.358Z</time>
      </trkpt>
      <trkpt lat="47.422224" lon="7.847204">
        <ele>461.857110</ele>
        <time>2021-11-20T16:45:35.257Z</time>
      </trkpt>
      <trkpt lat="47.421782" lon="7.847034">
        <ele>463.065216</ele>
        <time>2021-11-20T16:45:50.017Z</time>
      </trkpt>
      <trkpt lat="47.421469" lon="7.846914">
        <ele>464.047718</ele>
        <time>2021-11-20T16:46:00.695Z</time>
      </trkpt>
      <trkpt lat="47.421216" lon="7.846840">
        <ele>464.831349</ele>
        <time>2021-11-20T16:46:08.944Z</time>
      </trkpt>
      <trkpt lat="47.420292" lon="7.846569">
        <ele>467.693599</ele>
        <time>2021-11-20T16:46:38.994Z</time>
      </trkpt>
      <trkpt lat="47.419677" lon="7.846349">
        <ele>469.908705</ele>
        <time>2021-11-20T16:47:00.476Z</time>
      </trkpt>
      <trkpt lat="47.418787" lon="7.845930">
        <ele>473.208025</ele>
        <time>2021-11-20T16:47:33.440Z</time>
      </trkpt>
      <trkpt lat="47.418505" lon="7.845770">
        <ele>474.242040</ele>
        <time>2021-11-20T16:47:44.228Z</time>
      </trkpt>
      <trkpt lat="47.417834" lon="7.845378">
        <ele>475.994714</ele>
        <time>2021-11-20T16:48:08.263Z</time>
      </trkpt>
      <trkpt lat="47.417634" lon="7.845250">
        <ele>476.524139</ele>
        <time>2021-11-20T16:48:15.656Z</time>
      </trkpt>
      <trkpt lat="47.417039" lon="7.844872">
        <ele>478.097356</ele>
        <time>2021-11-20T16:48:33.660Z</time>
      </trkpt>
      <trkpt lat="47.416215" lon="7.844386">
        <ele>478.471646</ele>
        <time>2021-11-20T16:48:52.020Z</time>
      </trkpt>
      <trkpt lat="47.415184" lon="7.843954">
        <ele>478.369931</ele>
        <time>2021-11-20T16:49:11.416Z</time>
      </trkpt>
      <trkpt lat="47.415123" lon="7.843938">
        <ele>478.423432</ele>
        <time>2021-11-20T16:49:12.508Z</time>
      </trkpt>
      <trkpt lat="47.414737" lon="7.843840">
        <ele>478.960526</ele>
        <time>2021-11-20T16:49:20.935Z</time>
      </trkpt>
      <trkpt lat="47.414534" lon="7.843769">
        <ele>479.246600</ele>
        <time>2021-11-20T16:49:25.858Z</time>
      </trkpt>
      <trkpt lat="47.414111" lon="7.843761">
        <ele>479.826727</ele>
        <time>2021-11-20T16:49:37.093Z</time>
      </trkpt>
      <trkpt lat="47.413673" lon="7.843752">
        <ele>480.427434</ele>
        <time>2021-11-20T16:49:49.466Z</time>
      </trkpt>
      <trkpt lat="47.412891" lon="7.843894">
        <ele>482.147581</ele>
        <time>2021-11-20T16:50:13.857Z</time>
      </trkpt>
      <trkpt lat="47.412769" lon="7.843850">
        <ele>482.483381</ele>
        <time>2021-11-20T16:50:18.146Z</time>
      </trkpt>
      <trkpt lat="47.411785" lon="7.844178">
        <ele>485.180677</ele>
        <time>2021-11-20T16:50:43.787Z</time>
      </trkpt>
      <trkpt lat="47.411264" lon="7.844343">
        <ele>487.120049</ele>
        <time>2021-11-20T16:50:57.013Z</time>
      </trkpt>
      <trkpt lat="47.411235" lon="7.844348">
        <ele>487.239905</ele>
        <time>2021-11-20T16:50:57.505Z</time>
      </trkpt>
      <trkpt lat="47.411166" lon="7.844371">
        <ele>487.530275</ele>
        <time>2021-11-20T16:50:59.138Z</time>
      </trkpt>
      <trkpt lat="47.410433" lon="7.844607">
        <ele>490.609924</ele>
        <time>2021-11-20T16:51:21.750Z</time>
      </trkpt>
      <trkpt lat="47.410293" lon="7.844651">
        <ele>491.197496</ele>
        <time>2021-11-20T16:51:26.669Z</time>
      </trkpt>
      <trkpt lat="47.410148" lon="7.844709">
        <ele>491.814162</ele>
        <time>2021-11-20T16:51:31.629Z</time>
      </trkpt>
      <trkpt lat="47.409986" lon="7.844760">
        <ele>492.494116</ele>
        <time>2021-11-20T16:51:37.494Z</time>
      </trkpt>
      <trkpt lat="47.409830" lon="7.844820">
        <ele>493.222725</ele>
        <time>2021-11-20T16:51:43.996Z</time>
      </trkpt>
      <trkpt lat="47.409752" lon="7.844850">
        <ele>493.726135</ele>
        <time>2021-11-20T16:51:47.195Z</time>
      </trkpt>
      <trkpt lat="47.409665" lon="7.844882">
        <ele>494.286106</ele>
        <time>2021-11-20T16:51:51.353Z</time>
      </trkpt>
      <trkpt lat="47.409459" lon="7.844940">
        <ele>495.595900</ele>
        <time>2021-11-20T16:52:00.614Z</time>
      </trkpt>
      <trkpt lat="47.409210" lon="7.844968">
        <ele>497.155615</ele>
        <time>2021-11-20T16:52:11.344Z</time>
      </trkpt>
      <trkpt lat="47.409142" lon="7.844968">
        <ele>497.580333</ele>
        <time>2021-11-20T16:52:14.880Z</time>
      </trkpt>
      <trkpt lat="47.408437" lon="7.844931">
        <ele>501.986437</ele>
        <time>2021-11-20T16:52:43.521Z</time>
      </trkpt>
      <trkpt lat="47.408170" lon="7.844961">
        <ele>503.658895</ele>
        <time>2021-11-20T16:52:53.775Z</time>
      </trkpt>
      <trkpt lat="47.407704" lon="7.845059">
        <ele>505.323072</ele>
        <time>2021-11-20T16:53:11.484Z</time>
      </trkpt>
      <trkpt lat="47.406668" lon="7.845324">
        <ele>508.305426</ele>
        <time>2021-11-20T16:53:37.763Z</time>
      </trkpt>
      <trkpt lat="47.406444" lon="7.845434">
        <ele>508.974982</ele>
        <time>2021-11-20T16:53:41.600Z</time>
      </trkpt>
      <trkpt lat="47.406156" lon="7.845724">
        <ele>509.466548</ele>
        <time>2021-11-20T16:53:47.180Z</time>
      </trkpt>
      <trkpt lat="47.405939" lon="7.846047">
        <ele>509.616483</ele>
        <time>2021-11-20T16:53:52.139Z</time>
      </trkpt>
      <trkpt lat="47.405700" lon="7.846541">
        <ele>509.816534</ele>
        <time>2021-11-20T16:53:59.040Z</time>
      </trkpt>
      <trkpt lat="47.404908" lon="7.848505">
        <ele>510.958310</ele>
        <time>2021-11-20T16:54:24.329Z</time>
      </trkpt>
      <trkpt lat="47.404852" lon="7.848646">
        <ele>511.075477</ele>
        <time>2021-11-20T16:54:26.655Z</time>
      </trkpt>
      <trkpt lat="47.404726" lon="7.848932">
        <ele>511.320050</ele>
        <time>2021-11-20T16:54:29.629Z</time>
      </trkpt>
      <trkpt lat="47.404599" lon="7.849165">
        <ele>511.534458</ele>
        <time>2021-11-20T16:54:33.408Z</time>
      </trkpt>
      <trkpt lat="47.404383" lon="7.849389">
        <ele>511.813901</ele>
        <time>2021-11-20T16:54:38.413Z</time>
      </trkpt>
      <trkpt lat="47.403486" lon="7.850249">
        <ele>516.707143</ele>
        <time>2021-11-20T16:55:07.568Z</time>
      </trkpt>
      <trkpt lat="47.402868" lon="7.850841">
        <ele>521.142243</ele>
        <time>2021-11-20T16:55:39.321Z</time>
      </trkpt>
      <trkpt lat="47.401845" lon="7.851841">
        <ele>531.414125</ele>
        <time>2021-11-20T16:56:48.471Z</time>
      </trkpt>
      <trkpt lat="47.401481" lon="7.852058">
        <ele>535.005649</ele>
        <time>2021-11-20T16:57:10.240Z</time>
      </trkpt>
      <trkpt lat="47.400993" lon="7.852181">
        <ele>539.474552</ele>
        <time>2021-11-20T16:57:34.012Z</time>
      </trkpt>
      <trkpt lat="47.400748" lon="7.852175">
        <ele>540.396648</ele>
        <time>2021-11-20T16:57:43.897Z</time>
      </trkpt>
      <trkpt lat="47.399819" lon="7.851860">
        <ele>543.983495</ele>
        <time>2021-11-20T16:58:14.311Z</time>
      </trkpt>
      <trkpt lat="47.399740" lon="7.851900">
        <ele>544.297758</ele>
        <time>2021-11-20T16:58:15.573Z</time>
      </trkpt>
      <trkpt lat="47.397739" lon="7.852900">
        <ele>547.852066</ele>
        <time>2021-11-20T16:58:53.109Z</time>
      </trkpt>
      <trkpt lat="47.397584" lon="7.852978">
        <ele>548.020370</ele>
        <time>2021-11-20T16:58:55.990Z</time>
      </trkpt>
      <trkpt lat="47.397466" lon="7.853058">
        <ele>548.389526</ele>
        <time>2021-11-20T16:58:59.113Z</time>
      </trkpt>
      <trkpt lat="47.397399" lon="7.853113">
        <ele>548.646014</ele>
        <time>2021-11-20T16:59:01.573Z</time>
      </trkpt>
      <trkpt lat="47.397240" lon="7.853282">
        <ele>549.301473</ele>
        <time>2021-11-20T16:59:05.702Z</time>
      </trkpt>
      <trkpt lat="47.397171" lon="7.853390">
        <ele>549.637862</ele>
        <time>2021-11-20T16:59:08.422Z</time>
      </trkpt>
      <trkpt lat="47.397013" lon="7.853694">
        <ele>550.506025</ele>
        <time>2021-11-20T16:59:15.064Z</time>
      </trkpt>
      <trkpt lat="47.396956" lon="7.853787">
        <ele>550.790204</ele>
        <time>2021-11-20T16:59:17.402Z</time>
      </trkpt>
      <trkpt lat="47.396904" lon="7.853864">
        <ele>551.036576</ele>
        <time>2021-11-20T16:59:20.108Z</time>
      </trkpt>
      <trkpt lat="47.396734" lon="7.854071">
        <ele>551.773775</ele>
        <time>2021-11-20T16:59:25.722Z</time>
      </trkpt>
      <trkpt lat="47.396458" lon="7.854340">
        <ele>552.880240</ele>
        <time>2021-11-20T16:59:36.011Z</time>
      </trkpt>
      <trkpt lat="47.396094" lon="7.854648">
        <ele>554.357447</ele>
        <time>2021-11-20T16:59:50.902Z</time>
      </trkpt>
      <trkpt lat="47.395630" lon="7.854989">
        <ele>556.682150</ele>
        <time>2021-11-20T17:00:09.286Z</time>
      </trkpt>
      <trkpt lat="47.395563" lon="7.855042">
        <ele>557.023069</ele>
        <time>2021-11-20T17:00:12.011Z</time>
      </trkpt>
      <trkpt lat="47.395483" lon="7.855116">
        <ele>557.446471</ele>
        <time>2021-11-20T17:00:15.409Z</time>
      </trkpt>
      <trkpt lat="47.395428" lon="7.855175">
        <ele>557.751371</ele>
        <time>2021-11-20T17:00:17.547Z</time>
      </trkpt>
      <trkpt lat="47.395350" lon="7.855275">
        <ele>558.214647</ele>
        <time>2021-11-20T17:00:20.420Z</time>
      </trkpt>
      <trkpt lat="47.395261" lon="7.855418">
        <ele>558.804507</ele>
        <time>2021-11-20T17:00:24.785Z</time>
      </trkpt>
      <trkpt lat="47.395196" lon="7.855528">
        <ele>559.247883</ele>
        <time>2021-11-20T17:00:28.068Z</time>
      </trkpt>
      <trkpt lat="47.395075" lon="7.855775">
        <ele>560.173702</ele>
        <time>2021-11-20T17:00:34.296Z</time>
      </trkpt>
      <trkpt lat="47.395030" lon="7.855860">
        <ele>560.501368</ele>
        <time>2021-11-20T17:00:36.991Z</time>
      </trkpt>
      <trkpt lat="47.394997" lon="7.855921">
        <ele>560.738481</ele>
        <time>2021-11-20T17:00:38.626Z</time>
      </trkpt>
      <trkpt lat="47.394873" lon="7.856111">
        <ele>561.539889</ele>
        <time>2021-11-20T17:00:43.818Z</time>
      </trkpt>
      <trkpt lat="47.394762" lon="7.856268">
        <ele>562.211304</ele>
        <time>2021-11-20T17:00:49.107Z</time>
      </trkpt>
      <trkpt lat="47.394330" lon="7.856716">
        <ele>564.122343</ele>
        <time>2021-11-20T17:01:05.275Z</time>
      </trkpt>
      <trkpt lat="47.393840" lon="7.857424">
        <ele>566.604003</ele>
        <time>2021-11-20T17:01:25.083Z</time>
      </trkpt>
      <trkpt lat="47.393747" lon="7.857569">
        <ele>567.093576</ele>
        <time>2021-11-20T17:01:28.769Z</time>
      </trkpt>
      <trkpt lat="47.393712" lon="7.857629">
        <ele>567.287702</ele>
        <time>2021-11-20T17:01:30.345Z</time>
      </trkpt>
      <trkpt lat="47.393583" lon="7.857849">
        <ele>568.001074</ele>
        <time>2021-11-20T17:01:35.718Z</time>
      </trkpt>
      <trkpt lat="47.392873" lon="7.859213">
        <ele>573.070842</ele>
        <time>2021-11-20T17:02:08.673Z</time>
      </trkpt>
      <trkpt lat="47.392446" lon="7.860609">
        <ele>578.166277</ele>
        <time>2021-11-20T17:02:47.633Z</time>
      </trkpt>
      <trkpt lat="47.392252" lon="7.861291">
        <ele>581.403546</ele>
        <time>2021-11-20T17:03:07.892Z</time>
      </trkpt>
      <trkpt lat="47.392159" lon="7.861591">
        <ele>582.847479</ele>
        <time>2021-11-20T17:03:17.061Z</time>
      </trkpt>
      <trkpt lat="47.392013" lon="7.861871">
        <ele>584.394123</ele>
        <time>2021-11-20T17:03:26.117Z</time>
      </trkpt>
      <trkpt lat="47.391930" lon="7.862028">
        <ele>585.265849</ele>
        <time>2021-11-20T17:03:32.436Z</time>
      </trkpt>
      <trkpt lat="47.391861" lon="7.862140">
        <ele>585.928547</ele>
        <time>2021-11-20T17:03:36.842Z</time>
      </trkpt>
      <trkpt lat="47.390852" lon="7.863147">
        <ele>595.221978</ele>
        <time>2021-11-20T17:04:29.230Z</time>
      </trkpt>
      <trkpt lat="47.390658" lon="7.863426">
        <ele>597.428245</ele>
        <time>2021-11-20T17:04:41.214Z</time>
      </trkpt>
      <trkpt lat="47.390138" lon="7.864689">
        <ele>606.846895</ele>
        <time>2021-11-20T17:05:33.745Z</time>
      </trkpt>
      <trkpt lat="47.390057" lon="7.865367">
        <ele>612.502764</ele>
        <time>2021-11-20T17:06:03.009Z</time>
      </trkpt>
      <trkpt lat="47.390028" lon="7.865801">
        <ele>616.085428</ele>
        <time>2021-11-20T17:06:23.205Z</time>
      </trkpt>
      <trkpt lat="47.389913" lon="7.867526">
        <ele>630.010675</ele>
        <time>2021-11-20T17:07:43.536Z</time>
      </trkpt>
      <trkpt lat="47.389908" lon="7.868143">
        <ele>634.790114</ele>
        <time>2021-11-20T17:08:11.631Z</time>
      </trkpt>
      <trkpt lat="47.389999" lon="7.868629">
        <ele>638.695844</ele>
        <time>2021-11-20T17:08:31.114Z</time>
      </trkpt>
      <trkpt lat="47.390135" lon="7.868913">
        <ele>641.390302</ele>
        <time>2021-11-20T17:08:43.443Z</time>
      </trkpt>
      <trkpt lat="47.390810" lon="7.869784">
        <ele>650.426886</ele>
        <time>2021-11-20T17:09:29.895Z</time>
      </trkpt>
      <trkpt lat="47.391246" lon="7.870873">
        <ele>658.314392</ele>
        <time>2021-11-20T17:10:13.941Z</time>
      </trkpt>
      <trkpt lat="47.391248" lon="7.870968">
        <ele>658.906933</ele>
        <time>2021-11-20T17:10:18.063Z</time>
      </trkpt>
      <trkpt lat="47.391237" lon="7.871032">
        <ele>659.318583</ele>
        <time>2021-11-20T17:10:21.966Z</time>
      </trkpt>
      <trkpt lat="47.391155" lon="7.871190">
        <ele>660.559734</ele>
        <time>2021-11-20T17:10:27.177Z</time>
      </trkpt>
      <trkpt lat="47.391042" lon="7.871238">
        <ele>661.642501</ele>
        <time>2021-11-20T17:10:32.111Z</time>
      </trkpt>
      <trkpt lat="47.390859" lon="7.871070">
        <ele>663.394508</ele>
        <time>2021-11-20T17:10:43.974Z</time>
      </trkpt>
      <trkpt lat="47.390762" lon="7.870887">
        <ele>664.640920</ele>
        <time>2021-11-20T17:10:50.835Z</time>
      </trkpt>
      <trkpt lat="47.390678" lon="7.870726">
        <ele>665.730985</ele>
        <time>2021-11-20T17:10:59.535Z</time>
      </trkpt>
      <trkpt lat="47.390389" lon="7.870365">
        <ele>668.729140</ele>
        <time>2021-11-20T17:11:18.310Z</time>
      </trkpt>
      <trkpt lat="47.389733" lon="7.870073">
        <ele>674.156453</ele>
        <time>2021-11-20T17:11:51.064Z</time>
      </trkpt>
      <trkpt lat="47.389569" lon="7.869837">
        <ele>675.970173</ele>
        <time>2021-11-20T17:12:00.880Z</time>
      </trkpt>
      <trkpt lat="47.388898" lon="7.868496">
        <ele>679.513295</ele>
        <time>2021-11-20T17:12:33.303Z</time>
      </trkpt>
      <trkpt lat="47.388714" lon="7.868237">
        <ele>680.276949</ele>
        <time>2021-11-20T17:12:39.129Z</time>
      </trkpt>
      <trkpt lat="47.388570" lon="7.868126">
        <ele>680.764968</ele>
        <time>2021-11-20T17:12:41.960Z</time>
      </trkpt>
      <trkpt lat="47.388489" lon="7.868068">
        <ele>681.035421</ele>
        <time>2021-11-20T17:12:44.832Z</time>
      </trkpt>
      <trkpt lat="47.388334" lon="7.867941">
        <ele>681.567970</ele>
        <time>2021-11-20T17:12:46.808Z</time>
      </trkpt>
      <trkpt lat="47.387851" lon="7.867311">
        <ele>682.169832</ele>
        <time>2021-11-20T17:12:58.797Z</time>
      </trkpt>
      <trkpt lat="47.387697" lon="7.867213">
        <ele>682.317268</ele>
        <time>2021-11-20T17:13:01.153Z</time>
      </trkpt>
      <trkpt lat="47.387496" lon="7.867166">
        <ele>682.496197</ele>
        <time>2021-11-20T17:13:04.901Z</time>
      </trkpt>
      <trkpt lat="47.387363" lon="7.867215">
        <ele>682.616719</ele>
        <time>2021-11-20T17:13:07.511Z</time>
      </trkpt>
      <trkpt lat="47.386883" lon="7.867395">
        <ele>683.052147</ele>
        <time>2021-11-20T17:13:16.512Z</time>
      </trkpt>
      <trkpt lat="47.386603" lon="7.867395">
        <ele>683.305938</ele>
        <time>2021-11-20T17:13:22.302Z</time>
      </trkpt>
      <trkpt lat="47.386464" lon="7.867362">
        <ele>683.439227</ele>
        <time>2021-11-20T17:13:25.252Z</time>
      </trkpt>
      <trkpt lat="47.386040" lon="7.867365">
        <ele>683.840658</ele>
        <time>2021-11-20T17:13:33.384Z</time>
      </trkpt>
      <trkpt lat="47.385944" lon="7.867392">
        <ele>683.933180</ele>
        <time>2021-11-20T17:13:35.704Z</time>
      </trkpt>
      <trkpt lat="47.385795" lon="7.867435">
        <ele>684.076915</ele>
        <time>2021-11-20T17:13:38.497Z</time>
      </trkpt>
      <trkpt lat="47.385102" lon="7.867627">
        <ele>684.744464</ele>
        <time>2021-11-20T17:13:49.551Z</time>
      </trkpt>
      <trkpt lat="47.384400" lon="7.867647">
        <ele>686.119902</ele>
        <time>2021-11-20T17:14:03.702Z</time>
      </trkpt>
      <trkpt lat="47.383776" lon="7.867821">
        <ele>687.563863</ele>
        <time>2021-11-20T17:14:18.992Z</time>
      </trkpt>
      <trkpt lat="47.383471" lon="7.867892">
        <ele>688.265954</ele>
        <time>2021-11-20T17:14:28.665Z</time>
      </trkpt>
      <trkpt lat="47.382207" lon="7.868506">
        <ele>689.712874</ele>
        <time>2021-11-20T17:15:03.493Z</time>
      </trkpt>
      <trkpt lat="47.381814" lon="7.868690">
        <ele>690.006724</ele>
        <time>2021-11-20T17:15:10.295Z</time>
      </trkpt>
      <trkpt lat="47.381482" lon="7.868872">
        <ele>690.259133</ele>
        <time>2021-11-20T17:15:14.032Z</time>
      </trkpt>
      <trkpt lat="47.381410" lon="7.868929">
        <ele>689.961795</ele>
        <time>2021-11-20T17:15:14.837Z</time>
      </trkpt>
      <trkpt lat="47.381343" lon="7.868980">
        <ele>689.574245</ele>
        <time>2021-11-20T17:15:15.487Z</time>
      </trkpt>
      <trkpt lat="47.381084" lon="7.869193">
        <ele>688.050031</ele>
        <time>2021-11-20T17:15:18.433Z</time>
      </trkpt>
      <trkpt lat="47.380950" lon="7.869325">
        <ele>687.221859</ele>
        <time>2021-11-20T17:15:19.871Z</time>
      </trkpt>
      <trkpt lat="47.380843" lon="7.869437">
        <ele>686.547542</ele>
        <time>2021-11-20T17:15:21.179Z</time>
      </trkpt>
      <trkpt lat="47.380725" lon="7.869588">
        <ele>685.744763</ele>
        <time>2021-11-20T17:15:22.525Z</time>
      </trkpt>
      <trkpt lat="47.380570" lon="7.869787">
        <ele>684.688775</ele>
        <time>2021-11-20T17:15:24.510Z</time>
      </trkpt>
      <trkpt lat="47.380483" lon="7.869921">
        <ele>684.042452</ele>
        <time>2021-11-20T17:15:25.596Z</time>
      </trkpt>
      <trkpt lat="47.380441" lon="7.869986">
        <ele>683.729654</ele>
        <time>2021-11-20T17:15:26.146Z</time>
      </trkpt>
      <trkpt lat="47.380320" lon="7.870168">
        <ele>682.841658</ele>
        <time>2021-11-20T17:15:27.900Z</time>
      </trkpt>
      <trkpt lat="47.380175" lon="7.870437">
        <ele>681.644623</ele>
        <time>2021-11-20T17:15:29.986Z</time>
      </trkpt>
      <trkpt lat="47.380138" lon="7.870450">
        <ele>681.449075</ele>
        <time>2021-11-20T17:15:30.378Z</time>
      </trkpt>
      <trkpt lat="47.380051" lon="7.870618">
        <ele>680.793341</ele>
        <time>2021-11-20T17:15:31.826Z</time>
      </trkpt>
      <trkpt lat="47.380047" lon="7.870663">
        <ele>680.675957</ele>
        <time>2021-11-20T17:15:32.105Z</time>
      </trkpt>
      <trkpt lat="47.379746" lon="7.871189">
        <ele>678.894800</ele>
        <time>2021-11-20T17:15:36.535Z</time>
      </trkpt>
      <trkpt lat="47.379717" lon="7.871234">
        <ele>678.734130</ele>
        <time>2021-11-20T17:15:37.010Z</time>
      </trkpt>
      <trkpt lat="47.379412" lon="7.871620">
        <ele>677.199914</ele>
        <time>2021-11-20T17:15:40.969Z</time>
      </trkpt>
      <trkpt lat="47.379227" lon="7.871763">
        <ele>676.402356</ele>
        <time>2021-11-20T17:15:43.026Z</time>
      </trkpt>
      <trkpt lat="47.379044" lon="7.871852">
        <ele>675.666450</ele>
        <time>2021-11-20T17:15:45.007Z</time>
      </trkpt>
      <trkpt lat="47.378769" lon="7.871985">
        <ele>674.561180</ele>
        <time>2021-11-20T17:15:48.053Z</time>
      </trkpt>
      <trkpt lat="47.378682" lon="7.872035">
        <ele>674.204602</ele>
        <time>2021-11-20T17:15:49.021Z</time>
      </trkpt>
      <trkpt lat="47.378540" lon="7.872107">
        <ele>673.646435</ele>
        <time>2021-11-20T17:15:50.633Z</time>
      </trkpt>
      <trkpt lat="47.378353" lon="7.872202">
        <ele>672.913090</ele>
        <time>2021-11-20T17:15:52.670Z</time>
      </trkpt>
      <trkpt lat="47.378315" lon="7.872222">
        <ele>672.763491</ele>
        <time>2021-11-20T17:15:53.050Z</time>
      </trkpt>
      <trkpt lat="47.378209" lon="7.872290">
        <ele>672.334921</ele>
        <time>2021-11-20T17:15:54.260Z</time>
      </trkpt>
      <trkpt lat="47.378040" lon="7.872416">
        <ele>671.632871</ele>
        <time>2021-11-20T17:15:56.163Z</time>
      </trkpt>
      <trkpt lat="47.377943" lon="7.872488">
        <ele>671.230280</ele>
        <time>2021-11-20T17:15:57.157Z</time>
      </trkpt>
      <trkpt lat="47.377908" lon="7.872361">
        <ele>670.885966</ele>
        <time>2021-11-20T17:15:58.124Z</time>
      </trkpt>
      <trkpt lat="47.377882" lon="7.872082">
        <ele>670.178755</ele>
        <time>2021-11-20T17:15:59.879Z</time>
      </trkpt>
      <trkpt lat="47.377860" lon="7.871809">
        <ele>669.488377</ele>
        <time>2021-11-20T17:16:01.747Z</time>
      </trkpt>
      <trkpt lat="47.377846" lon="7.871662">
        <ele>669.115606</ele>
        <time>2021-11-20T17:16:02.671Z</time>
      </trkpt>
      <trkpt lat="47.377839" lon="7.871585">
        <ele>668.920514</ele>
        <time>2021-11-20T17:16:03.174Z</time>
      </trkpt>
      <trkpt lat="47.377821" lon="7.871482">
        <ele>668.653392</ele>
        <time>2021-11-20T17:16:03.842Z</time>
      </trkpt>
      <trkpt lat="47.377790" lon="7.871397">
        <ele>668.410956</ele>
        <time>2021-11-20T17:16:04.469Z</time>
      </trkpt>
      <trkpt lat="47.377736" lon="7.871332">
        <ele>668.152611</ele>
        <time>2021-11-20T17:16:05.220Z</time>
      </trkpt>
      <trkpt lat="47.377701" lon="7.871314">
        <ele>668.015173</ele>
        <time>2021-11-20T17:16:05.580Z</time>
      </trkpt>
      <trkpt lat="47.377600" lon="7.871321">
        <ele>667.640219</ele>
        <time>2021-11-20T17:16:06.625Z</time>
      </trkpt>
      <trkpt lat="47.377462" lon="7.871355">
        <ele>667.391549</ele>
        <time>2021-11-20T17:16:07.944Z</time>
      </trkpt>
      <trkpt lat="47.377317" lon="7.871392">
        <ele>667.249935</ele>
        <time>2021-11-20T17:16:09.474Z</time>
      </trkpt>
      <trkpt lat="47.377236" lon="7.871402">
        <ele>667.171710</ele>
        <time>2021-11-20T17:16:10.379Z</time>
      </trkpt>
      <trkpt lat="47.377234" lon="7.871402">
        <ele>667.169785</ele>
        <time>2021-11-20T17:16:10.394Z</time>
      </trkpt>
      <trkpt lat="47.377138" lon="7.871373">
        <ele>667.075482</ele>
        <time>2021-11-20T17:16:11.441Z</time>
      </trkpt>
      <trkpt lat="47.377065" lon="7.871346">
        <ele>667.003058</ele>
        <time>2021-11-20T17:16:12.325Z</time>
      </trkpt>
      <trkpt lat="47.376976" lon="7.871282">
        <ele>666.907790</ele>
        <time>2021-11-20T17:16:13.433Z</time>
      </trkpt>
      <trkpt lat="47.376925" lon="7.871213">
        <ele>666.841224</ele>
        <time>2021-11-20T17:16:14.224Z</time>
      </trkpt>
      <trkpt lat="47.376618" lon="7.870720">
        <ele>666.404738</ele>
        <time>2021-11-20T17:16:19.884Z</time>
      </trkpt>
      <trkpt lat="47.376554" lon="7.870573">
        <ele>666.290845</ele>
        <time>2021-11-20T17:16:21.428Z</time>
      </trkpt>
      <trkpt lat="47.376532" lon="7.870516">
        <ele>666.248088</ele>
        <time>2021-11-20T17:16:22.438Z</time>
      </trkpt>
      <trkpt lat="47.376449" lon="7.870120">
        <ele>665.977932</ele>
        <time>2021-11-20T17:16:26.664Z</time>
      </trkpt>
      <trkpt lat="47.376419" lon="7.869103">
        <ele>666.777656</ele>
        <time>2021-11-20T17:16:41.427Z</time>
      </trkpt>
      <trkpt lat="47.376417" lon="7.868208">
        <ele>668.130793</ele>
        <time>2021-11-20T17:16:57.932Z</time>
      </trkpt>
      <trkpt lat="47.376417" lon="7.868102">
        <ele>668.291052</ele>
        <time>2021-11-20T17:17:00.309Z</time>
      </trkpt>
      <trkpt lat="47.376353" lon="7.867176">
        <ele>669.698323</ele>
        <time>2021-11-20T17:17:15.855Z</time>
      </trkpt>
      <trkpt lat="47.376117" lon="7.866176">
        <ele>669.739581</ele>
        <time>2021-11-20T17:17:30.493Z</time>
      </trkpt>
      <trkpt lat="47.375978" lon="7.865797">
        <ele>669.726225</ele>
        <time>2021-11-20T17:17:34.756Z</time>
      </trkpt>
      <trkpt lat="47.375894" lon="7.865514">
        <ele>669.716650</ele>
        <time>2021-11-20T17:17:37.297Z</time>
      </trkpt>
      <trkpt lat="47.375789" lon="7.865221">
        <ele>669.706378</ele>
        <time>2021-11-20T17:17:40.000Z</time>
      </trkpt>
      <trkpt lat="47.375744" lon="7.865068">
        <ele>669.701209</ele>
        <time>2021-11-20T17:17:41.280Z</time>
      </trkpt>
      <trkpt lat="47.375578" lon="7.864568">
        <ele>669.462931</ele>
        <time>2021-11-20T17:17:45.524Z</time>
      </trkpt>
      <trkpt lat="47.375446" lon="7.864208">
        <ele>668.847360</ele>
        <time>2021-11-20T17:17:48.543Z</time>
      </trkpt>
      <trkpt lat="47.375239" lon="7.863374">
        <ele>667.511733</ele>
        <time>2021-11-20T17:17:54.871Z</time>
      </trkpt>
      <trkpt lat="47.375062" lon="7.861413">
        <ele>665.598984</ele>
        <time>2021-11-20T17:18:09.180Z</time>
      </trkpt>
      <trkpt lat="47.374822" lon="7.860081">
        <ele>665.427394</ele>
        <time>2021-11-20T17:18:22.848Z</time>
      </trkpt>
      <trkpt lat="47.374804" lon="7.859393">
        <ele>666.048585</ele>
        <time>2021-11-20T17:18:32.547Z</time>
      </trkpt>
      <trkpt lat="47.374794" lon="7.859279">
        <ele>666.483527</ele>
        <time>2021-11-20T17:18:35.117Z</time>
      </trkpt>
      <trkpt lat="47.374778" lon="7.859111">
        <ele>667.125439</ele>
        <time>2021-11-20T17:18:37.770Z</time>
      </trkpt>
      <trkpt lat="47.374523" lon="7.857887">
        <ele>671.970864</ele>
        <time>2021-11-20T17:19:06.207Z</time>
      </trkpt>
      <trkpt lat="47.374080" lon="7.856769">
        <ele>677.587613</ele>
        <time>2021-11-20T17:19:52.804Z</time>
      </trkpt>
      <trkpt lat="47.374004" lon="7.856583">
        <ele>678.812923</ele>
        <time>2021-11-20T17:19:57.673Z</time>
      </trkpt>
      <trkpt lat="47.373919" lon="7.856364">
        <ele>680.236695</ele>
        <time>2021-11-20T17:20:09.847Z</time>
      </trkpt>
      <trkpt lat="47.373686" lon="7.855527">
        <ele>685.341133</ele>
        <time>2021-11-20T17:20:38.080Z</time>
      </trkpt>
      <trkpt lat="47.373640" lon="7.855354">
        <ele>686.389470</ele>
        <time>2021-11-20T17:20:47.543Z</time>
      </trkpt>
      <trkpt lat="47.373613" lon="7.855228">
        <ele>687.134911</ele>
        <time>2021-11-20T17:20:50.536Z</time>
      </trkpt>
      <trkpt lat="47.373589" lon="7.855069">
        <ele>688.053768</ele>
        <time>2021-11-20T17:20:53.770Z</time>
      </trkpt>
      <trkpt lat="47.373568" lon="7.854895">
        <ele>689.050690</ele>
        <time>2021-11-20T17:21:01.897Z</time>
      </trkpt>
      <trkpt lat="47.373547" lon="7.854674">
        <ele>690.309467</ele>
        <time>2021-11-20T17:21:07.955Z</time>
      </trkpt>
      <trkpt lat="47.373502" lon="7.853102">
        <ele>694.071415</ele>
        <time>2021-11-20T17:21:46.300Z</time>
      </trkpt>
      <trkpt lat="47.373444" lon="7.852529">
        <ele>695.438415</ele>
        <time>2021-11-20T17:21:52.278Z</time>
      </trkpt>
      <trkpt lat="47.373282" lon="7.852167">
        <ele>696.462190</ele>
        <time>2021-11-20T17:21:55.957Z</time>
      </trkpt>
      <trkpt lat="47.372674" lon="7.851369">
        <ele>698.277115</ele>
        <time>2021-11-20T17:22:10.515Z</time>
      </trkpt>
      <trkpt lat="47.372629" lon="7.851282">
        <ele>698.435508</ele>
        <time>2021-11-20T17:22:11.263Z</time>
      </trkpt>
      <trkpt lat="47.372609" lon="7.851193">
        <ele>698.571183</ele>
        <time>2021-11-20T17:22:12.789Z</time>
      </trkpt>
      <trkpt lat="47.372567" lon="7.851051">
        <ele>698.795379</ele>
        <time>2021-11-20T17:22:14.929Z</time>
      </trkpt>
      <trkpt lat="47.372532" lon="7.850906">
        <ele>699.018103</ele>
        <time>2021-11-20T17:22:18.910Z</time>
      </trkpt>
      <trkpt lat="47.372437" lon="7.850508">
        <ele>699.628679</ele>
        <time>2021-11-20T17:22:24.778Z</time>
      </trkpt>
      <trkpt lat="47.372310" lon="7.850040">
        <ele>700.358155</ele>
        <time>2021-11-20T17:22:35.076Z</time>
      </trkpt>
      <trkpt lat="47.372306" lon="7.849954">
        <ele>700.482880</ele>
        <time>2021-11-20T17:22:37.199Z</time>
      </trkpt>
      <trkpt lat="47.372306" lon="7.849953">
        <ele>700.484327</ele>
        <time>2021-11-20T17:22:37.554Z</time>
      </trkpt>
      <trkpt lat="47.372406" lon="7.849260">
        <ele>704.664267</ele>
        <time>2021-11-20T17:22:57.023Z</time>
      </trkpt>
      <trkpt lat="47.372278" lon="7.848313">
        <ele>710.445046</ele>
        <time>2021-11-20T17:23:33.579Z</time>
      </trkpt>
      <trkpt lat="47.372462" lon="7.846092">
        <ele>727.098677</ele>
        <time>2021-11-20T17:25:16.043Z</time>
      </trkpt>
      <trkpt lat="47.372417" lon="7.845033">
        <ele>736.234161</ele>
        <time>2021-11-20T17:26:09.868Z</time>
      </trkpt>
      <trkpt lat="47.372410" lon="7.844716">
        <ele>738.964853</ele>
        <time>2021-11-20T17:26:25.775Z</time>
      </trkpt>
      <trkpt lat="47.372430" lon="7.844665">
        <ele>739.473327</ele>
        <time>2021-11-20T17:26:28.775Z</time>
      </trkpt>
      <trkpt lat="47.372456" lon="7.844616">
        <ele>740.012114</ele>
        <time>2021-11-20T17:26:31.916Z</time>
      </trkpt>
      <trkpt lat="47.372442" lon="7.844509">
        <ele>740.955366</ele>
        <time>2021-11-20T17:26:37.651Z</time>
      </trkpt>
      <trkpt lat="47.372395" lon="7.844294">
        <ele>742.910819</ele>
        <time>2021-11-20T17:26:49.973Z</time>
      </trkpt>
      <trkpt lat="47.372335" lon="7.844039">
        <ele>745.247361</ele>
        <time>2021-11-20T17:27:05.386Z</time>
      </trkpt>
      <trkpt lat="47.372199" lon="7.843453">
        <ele>750.608989</ele>
        <time>2021-11-20T17:27:40.183Z</time>
      </trkpt>
      <trkpt lat="47.372078" lon="7.842976">
        <ele>755.017748</ele>
        <time>2021-11-20T17:28:08.271Z</time>
      </trkpt>
      <trkpt lat="47.371903" lon="7.842318">
        <ele>761.136461</ele>
        <time>2021-11-20T17:28:44.700Z</time>
      </trkpt>
      <trkpt lat="47.371750" lon="7.841843">
        <ele>765.090982</ele>
        <time>2021-11-20T17:29:28.015Z</time>
      </trkpt>
      <trkpt lat="47.371365" lon="7.840761">
        <ele>773.826739</ele>
        <time>2021-11-20T17:31:08.300Z</time>
      </trkpt>
      <trkpt lat="47.370482" lon="7.839303">
        <ele>788.272122</ele>
        <time>2021-11-20T17:33:48.330Z</time>
      </trkpt>
      <trkpt lat="47.369938" lon="7.838086">
        <ele>799.433264</ele>
        <time>2021-11-20T17:35:53.455Z</time>
      </trkpt>
      <trkpt lat="47.369846" lon="7.837839">
        <ele>801.597339</ele>
        <time>2021-11-20T17:36:17.650Z</time>
      </trkpt>
      <trkpt lat="47.369783" lon="7.837640">
        <ele>803.715474</ele>
        <time>2021-11-20T17:36:29.441Z</time>
      </trkpt>
      <trkpt lat="47.369638" lon="7.836982">
        <ele>810.387621</ele>
        <time>2021-11-20T17:37:05.047Z</time>
      </trkpt>
      <trkpt lat="47.369466" lon="7.835513">
        <ele>824.762561</ele>
        <time>2021-11-20T17:38:40.607Z</time>
      </trkpt>
      <trkpt lat="47.369390" lon="7.835257">
        <ele>827.362544</ele>
        <time>2021-11-20T17:38:54.693Z</time>
      </trkpt>
      <trkpt lat="47.369227" lon="7.834980">
        <ele>829.713060</ele>
        <time>2021-11-20T17:39:14.908Z</time>
      </trkpt>
      <trkpt lat="47.369094" lon="7.834759">
        <ele>831.606820</ele>
        <time>2021-11-20T17:39:30.493Z</time>
      </trkpt>
      <trkpt lat="47.369113" lon="7.834679">
        <ele>832.149861</ele>
        <time>2021-11-20T17:39:35.967Z</time>
      </trkpt>
      <trkpt lat="47.369211" lon="7.834308">
        <ele>834.700684</ele>
        <time>2021-11-20T17:39:54.271Z</time>
      </trkpt>
      <trkpt lat="47.369234" lon="7.834201">
        <ele>835.419771</ele>
        <time>2021-11-20T17:40:01.073Z</time>
      </trkpt>
      <trkpt lat="47.369239" lon="7.834097">
        <ele>836.087626</ele>
        <time>2021-11-20T17:40:07.007Z</time>
      </trkpt>
      <trkpt lat="47.369159" lon="7.833723">
        <ele>838.599953</ele>
        <time>2021-11-20T17:40:27.067Z</time>
      </trkpt>
      <trkpt lat="47.368927" lon="7.833201">
        <ele>842.599341</ele>
        <time>2021-11-20T17:40:55.112Z</time>
      </trkpt>
      <trkpt lat="47.368927" lon="7.832373">
        <ele>842.645725</ele>
        <time>2021-11-20T17:41:21.137Z</time>
      </trkpt>
      <trkpt lat="47.368764" lon="7.831466">
        <ele>840.156201</ele>
        <time>2021-11-20T17:41:39.863Z</time>
      </trkpt>
      <trkpt lat="47.368764" lon="7.831432">
        <ele>840.066000</ele>
        <time>2021-11-20T17:41:40.415Z</time>
      </trkpt>
      <trkpt lat="47.368764" lon="7.831275">
        <ele>839.649481</ele>
        <time>2021-11-20T17:41:42.957Z</time>
      </trkpt>
      <trkpt lat="47.368792" lon="7.830874">
        <ele>838.579996</ele>
        <time>2021-11-20T17:41:50.217Z</time>
      </trkpt>
      <trkpt lat="47.368668" lon="7.830347">
        <ele>837.056327</ele>
        <time>2021-11-20T17:41:59.484Z</time>
      </trkpt>
      <trkpt lat="47.368665" lon="7.830152">
        <ele>835.975774</ele>
        <time>2021-11-20T17:42:02.769Z</time>
      </trkpt>
      <trkpt lat="47.368657" lon="7.829881">
        <ele>834.473044</ele>
        <time>2021-11-20T17:42:07.233Z</time>
      </trkpt>
      <trkpt lat="47.368641" lon="7.829512">
        <ele>832.424648</ele>
        <time>2021-11-20T17:42:13.497Z</time>
      </trkpt>
      <trkpt lat="47.368628" lon="7.829335">
        <ele>831.438342</ele>
        <time>2021-11-20T17:42:16.323Z</time>
      </trkpt>
      <trkpt lat="47.368644" lon="7.829149">
        <ele>830.399648</ele>
        <time>2021-11-20T17:42:19.344Z</time>
      </trkpt>
      <trkpt lat="47.368729" lon="7.828755">
        <ele>828.108883</ele>
        <time>2021-11-20T17:42:26.439Z</time>
      </trkpt>
      <trkpt lat="47.368859" lon="7.828432">
        <ele>826.027401</ele>
        <time>2021-11-20T17:42:33.489Z</time>
      </trkpt>
      <trkpt lat="47.368862" lon="7.828394">
        <ele>825.815462</ele>
        <time>2021-11-20T17:42:34.066Z</time>
      </trkpt>
      <trkpt lat="47.368859" lon="7.828331">
        <ele>825.465590</ele>
        <time>2021-11-20T17:42:35.137Z</time>
      </trkpt>
      <trkpt lat="47.368735" lon="7.828034">
        <ele>823.532748</ele>
        <time>2021-11-20T17:42:41.907Z</time>
      </trkpt>
      <trkpt lat="47.368638" lon="7.827864">
        <ele>822.318516</ele>
        <time>2021-11-20T17:42:45.616Z</time>
      </trkpt>
      <trkpt lat="47.368565" lon="7.827609">
        <ele>820.993625</ele>
        <time>2021-11-20T17:42:52.107Z</time>
      </trkpt>
      <trkpt lat="47.368308" lon="7.826692">
        <ele>816.244230</ele>
        <time>2021-11-20T17:43:09.748Z</time>
      </trkpt>
      <trkpt lat="47.367847" lon="7.825937">
        <ele>811.379402</ele>
        <time>2021-11-20T17:43:27.568Z</time>
      </trkpt>
      <trkpt lat="47.367727" lon="7.825774">
        <ele>810.227226</ele>
        <time>2021-11-20T17:43:32.420Z</time>
      </trkpt>
      <trkpt lat="47.367694" lon="7.825678">
        <ele>809.706100</ele>
        <time>2021-11-20T17:43:34.035Z</time>
      </trkpt>
      <trkpt lat="47.367632" lon="7.825369">
        <ele>806.744655</ele>
        <time>2021-11-20T17:43:39.723Z</time>
      </trkpt>
      <trkpt lat="47.367628" lon="7.825063">
        <ele>803.932233</ele>
        <time>2021-11-20T17:43:44.580Z</time>
      </trkpt>
      <trkpt lat="47.367722" lon="7.824689">
        <ele>800.266464</ele>
        <time>2021-11-20T17:43:51.023Z</time>
      </trkpt>
      <trkpt lat="47.367920" lon="7.824603">
        <ele>797.466255</ele>
        <time>2021-11-20T17:43:55.835Z</time>
      </trkpt>
      <trkpt lat="47.368192" lon="7.824658">
        <ele>793.741426</ele>
        <time>2021-11-20T17:44:02.125Z</time>
      </trkpt>
      <trkpt lat="47.368508" lon="7.824543">
        <ele>789.325757</ele>
        <time>2021-11-20T17:44:09.535Z</time>
      </trkpt>
      <trkpt lat="47.368670" lon="7.824222">
        <ele>785.647224</ele>
        <time>2021-11-20T17:44:15.778Z</time>
      </trkpt>
      <trkpt lat="47.369179" lon="7.823711">
        <ele>777.166261</ele>
        <time>2021-11-20T17:44:29.967Z</time>
      </trkpt>
      <trkpt lat="47.369370" lon="7.823364">
        <ele>772.990883</ele>
        <time>2021-11-20T17:44:37.042Z</time>
      </trkpt>
      <trkpt lat="47.369491" lon="7.823283">
        <ele>771.159155</ele>
        <time>2021-11-20T17:44:40.132Z</time>
      </trkpt>
      <trkpt lat="47.369768" lon="7.823420">
        <ele>767.131483</ele>
        <time>2021-11-20T17:44:47.113Z</time>
      </trkpt>
      <trkpt lat="47.369882" lon="7.823326">
        <ele>765.331239</ele>
        <time>2021-11-20T17:44:50.228Z</time>
      </trkpt>
      <trkpt lat="47.369861" lon="7.823147">
        <ele>763.634899</ele>
        <time>2021-11-20T17:44:53.226Z</time>
      </trkpt>
      <trkpt lat="47.369781" lon="7.823064">
        <ele>762.286839</ele>
        <time>2021-11-20T17:44:55.531Z</time>
      </trkpt>
      <trkpt lat="47.369702" lon="7.823016">
        <ele>761.109019</ele>
        <time>2021-11-20T17:44:57.536Z</time>
      </trkpt>
      <trkpt lat="47.369239" lon="7.822732">
        <ele>754.649155</ele>
        <time>2021-11-20T17:45:09.433Z</time>
      </trkpt>
      <trkpt lat="47.368870" lon="7.822306">
        <ele>748.653579</ele>
        <time>2021-11-20T17:45:20.481Z</time>
      </trkpt>
      <trkpt lat="47.368828" lon="7.822146">
        <ele>747.165983</ele>
        <time>2021-11-20T17:45:23.245Z</time>
      </trkpt>
      <trkpt lat="47.368896" lon="7.821907">
        <ele>744.918667</ele>
        <time>2021-11-20T17:45:27.461Z</time>
      </trkpt>
      <trkpt lat="47.368965" lon="7.821872">
        <ele>743.984804</ele>
        <time>2021-11-20T17:45:29.143Z</time>
      </trkpt>
      <trkpt lat="47.369055" lon="7.821886">
        <ele>742.826432</ele>
        <time>2021-11-20T17:45:30.218Z</time>
      </trkpt>
      <trkpt lat="47.369191" lon="7.821920">
        <ele>741.060860</ele>
        <time>2021-11-20T17:45:31.918Z</time>
      </trkpt>
      <trkpt lat="47.369284" lon="7.821975">
        <ele>739.778526</ele>
        <time>2021-11-20T17:45:33.070Z</time>
      </trkpt>
      <trkpt lat="47.370613" lon="7.821634">
        <ele>721.988359</ele>
        <time>2021-11-20T17:45:48.941Z</time>
      </trkpt>
      <trkpt lat="47.371953" lon="7.821726">
        <ele>705.431452</ele>
        <time>2021-11-20T17:46:04.913Z</time>
      </trkpt>
      <trkpt lat="47.372645" lon="7.821313">
        <ele>696.814168</ele>
        <time>2021-11-20T17:46:13.876Z</time>
      </trkpt>
      <trkpt lat="47.372910" lon="7.821349">
        <ele>693.741737</ele>
        <time>2021-11-20T17:46:17.120Z</time>
      </trkpt>
      <trkpt lat="47.373150" lon="7.821506">
        <ele>690.894886</ele>
        <time>2021-11-20T17:46:20.338Z</time>
      </trkpt>
      <trkpt lat="47.373227" lon="7.821545">
        <ele>690.033950</ele>
        <time>2021-11-20T17:46:21.319Z</time>
      </trkpt>
      <trkpt lat="47.373312" lon="7.821533">
        <ele>689.130881</ele>
        <time>2021-11-20T17:46:22.335Z</time>
      </trkpt>
      <trkpt lat="47.374035" lon="7.821361">
        <ele>681.385747</ele>
        <time>2021-11-20T17:46:31.196Z</time>
      </trkpt>
      <trkpt lat="47.374430" lon="7.821096">
        <ele>676.797237</ele>
        <time>2021-11-20T17:46:36.433Z</time>
      </trkpt>
      <trkpt lat="47.375010" lon="7.821028">
        <ele>671.229012</ele>
        <time>2021-11-20T17:46:43.519Z</time>
      </trkpt>
      <trkpt lat="47.375234" lon="7.820742">
        <ele>668.663997</ele>
        <time>2021-11-20T17:46:47.201Z</time>
      </trkpt>
      <trkpt lat="47.375284" lon="7.820572">
        <ele>667.576801</ele>
        <time>2021-11-20T17:46:48.693Z</time>
      </trkpt>
      <trkpt lat="47.375500" lon="7.820384">
        <ele>665.404979</ele>
        <time>2021-11-20T17:46:51.900Z</time>
      </trkpt>
      <trkpt lat="47.376183" lon="7.820053">
        <ele>659.178328</ele>
        <time>2021-11-20T17:47:00.864Z</time>
      </trkpt>
      <trkpt lat="47.376349" lon="7.819967">
        <ele>658.071591</ele>
        <time>2021-11-20T17:47:03.064Z</time>
      </trkpt>
      <trkpt lat="47.376385" lon="7.819936">
        <ele>657.944768</ele>
        <time>2021-11-20T17:47:03.576Z</time>
      </trkpt>
      <trkpt lat="47.376801" lon="7.819398">
        <ele>656.261916</ele>
        <time>2021-11-20T17:47:11.091Z</time>
      </trkpt>
      <trkpt lat="47.376954" lon="7.819078">
        <ele>655.454646</ele>
        <time>2021-11-20T17:47:15.013Z</time>
      </trkpt>
      <trkpt lat="47.377102" lon="7.818893">
        <ele>654.864552</ele>
        <time>2021-11-20T17:47:18.318Z</time>
      </trkpt>
      <trkpt lat="47.378229" lon="7.818227">
        <ele>653.155503</ele>
        <time>2021-11-20T17:47:41.323Z</time>
      </trkpt>
      <trkpt lat="47.378378" lon="7.818072">
        <ele>653.266786</ele>
        <time>2021-11-20T17:47:46.466Z</time>
      </trkpt>
      <trkpt lat="47.378777" lon="7.817321">
        <ele>653.661460</ele>
        <time>2021-11-20T17:48:04.650Z</time>
      </trkpt>
      <trkpt lat="47.378858" lon="7.817081">
        <ele>653.772331</ele>
        <time>2021-11-20T17:48:11.573Z</time>
      </trkpt>
      <trkpt lat="47.378982" lon="7.816997">
        <ele>653.855629</ele>
        <time>2021-11-20T17:48:13.408Z</time>
      </trkpt>
      <trkpt lat="47.379293" lon="7.816985">
        <ele>653.056511</ele>
        <time>2021-11-20T17:48:19.774Z</time>
      </trkpt>
      <trkpt lat="47.379728" lon="7.817511">
        <ele>650.652487</ele>
        <time>2021-11-20T17:48:28.351Z</time>
      </trkpt>
      <trkpt lat="47.379805" lon="7.817583">
        <ele>650.262787</ele>
        <time>2021-11-20T17:48:32.203Z</time>
      </trkpt>
      <trkpt lat="47.379884" lon="7.817635">
        <ele>649.892949</ele>
        <time>2021-11-20T17:48:33.214Z</time>
      </trkpt>
      <trkpt lat="47.380059" lon="7.817674">
        <ele>649.136179</ele>
        <time>2021-11-20T17:48:35.645Z</time>
      </trkpt>
      <trkpt lat="47.380649" lon="7.817537">
        <ele>646.582353</ele>
        <time>2021-11-20T17:48:43.348Z</time>
      </trkpt>
      <trkpt lat="47.380920" lon="7.817235">
        <ele>643.183356</ele>
        <time>2021-11-20T17:48:47.570Z</time>
      </trkpt>
      <trkpt lat="47.381128" lon="7.817165">
        <ele>640.656802</ele>
        <time>2021-11-20T17:48:50.349Z</time>
      </trkpt>
      <trkpt lat="47.382175" lon="7.817499">
        <ele>627.970904</ele>
        <time>2021-11-20T17:49:03.036Z</time>
      </trkpt>
      <trkpt lat="47.382487" lon="7.817755">
        <ele>623.414158</ele>
        <time>2021-11-20T17:49:07.193Z</time>
      </trkpt>
      <trkpt lat="47.382761" lon="7.818035">
        <ele>618.370527</ele>
        <time>2021-11-20T17:49:11.077Z</time>
      </trkpt>
      <trkpt lat="47.382877" lon="7.818131">
        <ele>616.357734</ele>
        <time>2021-11-20T17:49:12.625Z</time>
      </trkpt>
      <trkpt lat="47.383124" lon="7.818313">
        <ele>612.179367</ele>
        <time>2021-11-20T17:49:15.853Z</time>
      </trkpt>
      <trkpt lat="47.383264" lon="7.818318">
        <ele>610.059549</ele>
        <time>2021-11-20T17:49:17.517Z</time>
      </trkpt>
      <trkpt lat="47.383299" lon="7.818308">
        <ele>609.519927</ele>
        <time>2021-11-20T17:49:17.935Z</time>
      </trkpt>
      <trkpt lat="47.383353" lon="7.818261">
        <ele>608.571139</ele>
        <time>2021-11-20T17:49:18.666Z</time>
      </trkpt>
      <trkpt lat="47.383521" lon="7.818755">
        <ele>602.905278</ele>
        <time>2021-11-20T17:49:23.058Z</time>
      </trkpt>
      <trkpt lat="47.384238" lon="7.820179">
        <ele>587.275786</ele>
        <time>2021-11-20T17:49:37.067Z</time>
      </trkpt>
      <trkpt lat="47.384459" lon="7.820825">
        <ele>581.319286</ele>
        <time>2021-11-20T17:49:43.072Z</time>
      </trkpt>
      <trkpt lat="47.384503" lon="7.820897">
        <ele>580.521085</ele>
        <time>2021-11-20T17:49:43.835Z</time>
      </trkpt>
      <trkpt lat="47.384585" lon="7.820950">
        <ele>579.433130</ele>
        <time>2021-11-20T17:49:44.923Z</time>
      </trkpt>
      <trkpt lat="47.384889" lon="7.820900">
        <ele>575.785264</ele>
        <time>2021-11-20T17:49:48.732Z</time>
      </trkpt>
      <trkpt lat="47.385021" lon="7.820795">
        <ele>574.979782</ele>
        <time>2021-11-20T17:49:50.677Z</time>
      </trkpt>
      <trkpt lat="47.385367" lon="7.820521">
        <ele>572.870556</ele>
        <time>2021-11-20T17:49:55.660Z</time>
      </trkpt>
      <trkpt lat="47.385462" lon="7.820375">
        <ele>572.133983</ele>
        <time>2021-11-20T17:49:57.329Z</time>
      </trkpt>
      <trkpt lat="47.385520" lon="7.820277">
        <ele>571.660514</ele>
        <time>2021-11-20T17:49:58.438Z</time>
      </trkpt>
      <trkpt lat="47.385597" lon="7.820122">
        <ele>570.961215</ele>
        <time>2021-11-20T17:50:00.327Z</time>
      </trkpt>
      <trkpt lat="47.385661" lon="7.819998">
        <ele>570.394053</ele>
        <time>2021-11-20T17:50:01.683Z</time>
      </trkpt>
      <trkpt lat="47.385766" lon="7.819804">
        <ele>569.490615</ele>
        <time>2021-11-20T17:50:03.837Z</time>
      </trkpt>
      <trkpt lat="47.385828" lon="7.819688">
        <ele>568.953033</ele>
        <time>2021-11-20T17:50:05.419Z</time>
      </trkpt>
      <trkpt lat="47.386226" lon="7.819112">
        <ele>566.173214</ele>
        <time>2021-11-20T17:50:14.269Z</time>
      </trkpt>
      <trkpt lat="47.386568" lon="7.818636">
        <ele>566.123256</ele>
        <time>2021-11-20T17:50:22.933Z</time>
      </trkpt>
      <trkpt lat="47.386756" lon="7.818366">
        <ele>566.095379</ele>
        <time>2021-11-20T17:50:29.298Z</time>
      </trkpt>
      <trkpt lat="47.387125" lon="7.817809">
        <ele>566.039287</ele>
        <time>2021-11-20T17:50:42.830Z</time>
      </trkpt>
      <trkpt lat="47.387291" lon="7.817580">
        <ele>566.015139</ele>
        <time>2021-11-20T17:50:48.238Z</time>
      </trkpt>
      <trkpt lat="47.387476" lon="7.817327">
        <ele>565.988335</ele>
        <time>2021-11-20T17:50:53.359Z</time>
      </trkpt>
      <trkpt lat="47.387576" lon="7.817190">
        <ele>565.462349</ele>
        <time>2021-11-20T17:50:55.551Z</time>
      </trkpt>
      <trkpt lat="47.387708" lon="7.817012">
        <ele>564.664479</ele>
        <time>2021-11-20T17:50:58.596Z</time>
      </trkpt>
      <trkpt lat="47.387912" lon="7.816788">
        <ele>563.529772</ele>
        <time>2021-11-20T17:51:02.416Z</time>
      </trkpt>
      <trkpt lat="47.388090" lon="7.816620">
        <ele>562.586828</ele>
        <time>2021-11-20T17:51:05.509Z</time>
      </trkpt>
      <trkpt lat="47.388346" lon="7.816395">
        <ele>561.257055</ele>
        <time>2021-11-20T17:51:09.567Z</time>
      </trkpt>
      <trkpt lat="47.388525" lon="7.816262">
        <ele>560.362611</ele>
        <time>2021-11-20T17:51:12.152Z</time>
      </trkpt>
      <trkpt lat="47.388771" lon="7.816079">
        <ele>559.133080</ele>
        <time>2021-11-20T17:51:15.696Z</time>
      </trkpt>
      <trkpt lat="47.389319" lon="7.815732">
        <ele>555.512104</ele>
        <time>2021-11-20T17:51:23.266Z</time>
      </trkpt>
      <trkpt lat="47.389865" lon="7.815413">
        <ele>551.198530</ele>
        <time>2021-11-20T17:51:30.541Z</time>
      </trkpt>
      <trkpt lat="47.390484" lon="7.815052">
        <ele>546.309430</ele>
        <time>2021-11-20T17:51:38.980Z</time>
      </trkpt>
      <trkpt lat="47.390680" lon="7.814949">
        <ele>544.781104</ele>
        <time>2021-11-20T17:51:41.755Z</time>
      </trkpt>
      <trkpt lat="47.391072" lon="7.814743">
        <ele>543.642280</ele>
        <time>2021-11-20T17:51:47.373Z</time>
      </trkpt>
      <trkpt lat="47.391330" lon="7.814611">
        <ele>542.910584</ele>
        <time>2021-11-20T17:51:51.237Z</time>
      </trkpt>
      <trkpt lat="47.391510" lon="7.814535">
        <ele>542.408895</ele>
        <time>2021-11-20T17:51:54.035Z</time>
      </trkpt>
      <trkpt lat="47.391815" lon="7.814430">
        <ele>541.569642</ele>
        <time>2021-11-20T17:51:59.171Z</time>
      </trkpt>
      <trkpt lat="47.391873" lon="7.814418">
        <ele>541.412694</ele>
        <time>2021-11-20T17:52:00.068Z</time>
      </trkpt>
      <trkpt lat="47.391965" lon="7.814402">
        <ele>541.164447</ele>
        <time>2021-11-20T17:52:01.644Z</time>
      </trkpt>
      <trkpt lat="47.392009" lon="7.814397">
        <ele>541.046186</ele>
        <time>2021-11-20T17:52:02.594Z</time>
      </trkpt>
      <trkpt lat="47.392247" lon="7.814378">
        <ele>540.407455</ele>
        <time>2021-11-20T17:52:06.791Z</time>
      </trkpt>
      <trkpt lat="47.392571" lon="7.814403">
        <ele>540.105800</ele>
        <time>2021-11-20T17:52:12.591Z</time>
      </trkpt>
      <trkpt lat="47.392674" lon="7.814421">
        <ele>540.237211</ele>
        <time>2021-11-20T17:52:14.302Z</time>
      </trkpt>
      <trkpt lat="47.392812" lon="7.814454">
        <ele>540.414334</ele>
        <time>2021-11-20T17:52:17.655Z</time>
      </trkpt>
      <trkpt lat="47.394138" lon="7.814860">
        <ele>542.130094</ele>
        <time>2021-11-20T17:52:55.839Z</time>
      </trkpt>
      <trkpt lat="47.394617" lon="7.815011">
        <ele>541.843011</ele>
        <time>2021-11-20T17:53:09.796Z</time>
      </trkpt>
      <trkpt lat="47.395284" lon="7.815226">
        <ele>541.275957</ele>
        <time>2021-11-20T17:53:23.756Z</time>
      </trkpt>
      <trkpt lat="47.395894" lon="7.815362">
        <ele>540.763547</ele>
        <time>2021-11-20T17:53:32.893Z</time>
      </trkpt>
      <trkpt lat="47.396481" lon="7.815220">
        <ele>537.989083</ele>
        <time>2021-11-20T17:53:40.975Z</time>
      </trkpt>
      <trkpt lat="47.396655" lon="7.815127">
        <ele>537.036945</ele>
        <time>2021-11-20T17:53:43.462Z</time>
      </trkpt>
      <trkpt lat="47.396819" lon="7.815041">
        <ele>536.141473</ele>
        <time>2021-11-20T17:53:45.759Z</time>
      </trkpt>
      <trkpt lat="47.397420" lon="7.814610">
        <ele>532.703827</ele>
        <time>2021-11-20T17:53:54.589Z</time>
      </trkpt>
      <trkpt lat="47.397971" lon="7.814039">
        <ele>529.462976</ele>
        <time>2021-11-20T17:54:03.501Z</time>
      </trkpt>
      <trkpt lat="47.398378" lon="7.813502">
        <ele>526.937285</ele>
        <time>2021-11-20T17:54:10.991Z</time>
      </trkpt>
      <trkpt lat="47.398873" lon="7.812642">
        <ele>523.400547</ele>
        <time>2021-11-20T17:54:21.755Z</time>
      </trkpt>
      <trkpt lat="47.399003" lon="7.812335">
        <ele>522.277394</ele>
        <time>2021-11-20T17:54:25.234Z</time>
      </trkpt>
      <trkpt lat="47.399034" lon="7.812265">
        <ele>522.018774</ele>
        <time>2021-11-20T17:54:25.983Z</time>
      </trkpt>
      <trkpt lat="47.399530" lon="7.811091">
        <ele>517.740190</ele>
        <time>2021-11-20T17:54:38.966Z</time>
      </trkpt>
      <trkpt lat="47.399771" lon="7.810732">
        <ele>516.177010</ele>
        <time>2021-11-20T17:54:43.574Z</time>
      </trkpt>
      <trkpt lat="47.400026" lon="7.810485">
        <ele>514.764618</ele>
        <time>2021-11-20T17:54:47.637Z</time>
      </trkpt>
      <trkpt lat="47.400552" lon="7.810295">
        <ele>511.913760</ele>
        <time>2021-11-20T17:54:54.953Z</time>
      </trkpt>
      <trkpt lat="47.401421" lon="7.810310">
        <ele>507.338333</ele>
        <time>2021-11-20T17:55:06.525Z</time>
      </trkpt>
      <trkpt lat="47.402137" lon="7.810207">
        <ele>503.817426</ele>
        <time>2021-11-20T17:55:16.169Z</time>
      </trkpt>
      <trkpt lat="47.402761" lon="7.810009">
        <ele>500.930426</ele>
        <time>2021-11-20T17:55:24.847Z</time>
      </trkpt>
      <trkpt lat="47.403065" lon="7.809891">
        <ele>499.508629</ele>
        <time>2021-11-20T17:55:29.225Z</time>
      </trkpt>
      <trkpt lat="47.403266" lon="7.809816">
        <ele>498.570867</ele>
        <time>2021-11-20T17:55:32.133Z</time>
      </trkpt>
      <trkpt lat="47.403310" lon="7.809800">
        <ele>498.365895</ele>
        <time>2021-11-20T17:55:32.775Z</time>
      </trkpt>
      <trkpt lat="47.403507" lon="7.809728">
        <ele>497.447914</ele>
        <time>2021-11-20T17:55:35.654Z</time>
      </trkpt>
      <trkpt lat="47.403732" lon="7.809654">
        <ele>496.728837</ele>
        <time>2021-11-20T17:55:38.938Z</time>
      </trkpt>
      <trkpt lat="47.403833" lon="7.809618">
        <ele>496.427413</ele>
        <time>2021-11-20T17:55:40.462Z</time>
      </trkpt>
      <trkpt lat="47.404082" lon="7.809543">
        <ele>495.690161</ele>
        <time>2021-11-20T17:55:44.079Z</time>
      </trkpt>
      <trkpt lat="47.404543" lon="7.809480">
        <ele>494.347011</ele>
        <time>2021-11-20T17:55:51.081Z</time>
      </trkpt>
      <trkpt lat="47.404882" lon="7.809460">
        <ele>493.362728</ele>
        <time>2021-11-20T17:55:56.168Z</time>
      </trkpt>
      <trkpt lat="47.405269" lon="7.809435">
        <ele>492.238901</ele>
        <time>2021-11-20T17:56:02.052Z</time>
      </trkpt>
      <trkpt lat="47.405362" lon="7.809433">
        <ele>491.983100</ele>
        <time>2021-11-20T17:56:03.644Z</time>
      </trkpt>
      <trkpt lat="47.405651" lon="7.809411">
        <ele>491.241495</ele>
        <time>2021-11-20T17:56:07.982Z</time>
      </trkpt>
      <trkpt lat="47.405740" lon="7.809402">
        <ele>491.012880</ele>
        <time>2021-11-20T17:56:09.775Z</time>
      </trkpt>
      <trkpt lat="47.405843" lon="7.809380">
        <ele>490.746178</ele>
        <time>2021-11-20T17:56:11.283Z</time>
      </trkpt>
      <trkpt lat="47.405944" lon="7.809350">
        <ele>490.482166</ele>
        <time>2021-11-20T17:56:12.832Z</time>
      </trkpt>
      <trkpt lat="47.406093" lon="7.809301">
        <ele>490.090979</ele>
        <time>2021-11-20T17:56:15.317Z</time>
      </trkpt>
      <trkpt lat="47.406259" lon="7.809218">
        <ele>489.641871</ele>
        <time>2021-11-20T17:56:17.815Z</time>
      </trkpt>
      <trkpt lat="47.406932" lon="7.808849">
        <ele>487.802252</ele>
        <time>2021-11-20T17:56:28.587Z</time>
      </trkpt>
      <trkpt lat="47.407303" lon="7.808718">
        <ele>486.806951</ele>
        <time>2021-11-20T17:56:34.475Z</time>
      </trkpt>
      <trkpt lat="47.407661" lon="7.808646">
        <ele>485.855939</ele>
        <time>2021-11-20T17:56:39.737Z</time>
      </trkpt>
      <trkpt lat="47.408203" lon="7.808546">
        <ele>484.418215</ele>
        <time>2021-11-20T17:56:47.939Z</time>
      </trkpt>
      <trkpt lat="47.408773" lon="7.808493">
        <ele>482.914902</ele>
        <time>2021-11-20T17:56:56.633Z</time>
      </trkpt>
      <trkpt lat="47.408899" lon="7.808522">
        <ele>482.606895</ele>
        <time>2021-11-20T17:56:58.522Z</time>
      </trkpt>
      <trkpt lat="47.408924" lon="7.808529">
        <ele>482.551050</ele>
        <time>2021-11-20T17:56:58.935Z</time>
      </trkpt>
      <trkpt lat="47.409009" lon="7.808554">
        <ele>482.360835</ele>
        <time>2021-11-20T17:57:00.200Z</time>
      </trkpt>
      <trkpt lat="47.409739" lon="7.809061">
        <ele>480.590503</ele>
        <time>2021-11-20T17:57:12.768Z</time>
      </trkpt>
      <trkpt lat="47.409973" lon="7.809245">
        <ele>480.008738</ele>
        <time>2021-11-20T17:57:16.847Z</time>
      </trkpt>
      <trkpt lat="47.410057" lon="7.809308">
        <ele>479.801989</ele>
        <time>2021-11-20T17:57:18.382Z</time>
      </trkpt>
      <trkpt lat="47.410267" lon="7.809486">
        <ele>479.270644</ele>
        <time>2021-11-20T17:57:22.081Z</time>
      </trkpt>
      <trkpt lat="47.410407" lon="7.809617">
        <ele>478.906951</ele>
        <time>2021-11-20T17:57:24.728Z</time>
      </trkpt>
      <trkpt lat="47.410574" lon="7.809784">
        <ele>478.478702</ele>
        <time>2021-11-20T17:57:27.958Z</time>
      </trkpt>
      <trkpt lat="47.410795" lon="7.810008">
        <ele>477.915763</ele>
        <time>2021-11-20T17:57:32.235Z</time>
      </trkpt>
      <trkpt lat="47.410988" lon="7.810134">
        <ele>477.472548</ele>
        <time>2021-11-20T17:57:35.644Z</time>
      </trkpt>
      <trkpt lat="47.411038" lon="7.810167">
        <ele>477.357519</ele>
        <time>2021-11-20T17:57:36.504Z</time>
      </trkpt>
      <trkpt lat="47.411512" lon="7.810306">
        <ele>476.342431</ele>
        <time>2021-11-20T17:57:43.961Z</time>
      </trkpt>
      <trkpt lat="47.412719" lon="7.810865">
        <ele>473.982620</ele>
        <time>2021-11-20T17:58:03.588Z</time>
      </trkpt>
      <trkpt lat="47.412829" lon="7.810950">
        <ele>473.779944</ele>
        <time>2021-11-20T17:58:05.578Z</time>
      </trkpt>
      <trkpt lat="47.413209" lon="7.811148">
        <ele>473.122059</ele>
        <time>2021-11-20T17:58:12.250Z</time>
      </trkpt>
      <trkpt lat="47.413295" lon="7.811180">
        <ele>472.977259</ele>
        <time>2021-11-20T17:58:13.746Z</time>
      </trkpt>
      <trkpt lat="47.413351" lon="7.811196">
        <ele>472.884131</ele>
        <time>2021-11-20T17:58:14.607Z</time>
      </trkpt>
      <trkpt lat="47.413454" lon="7.811217">
        <ele>472.714365</ele>
        <time>2021-11-20T17:58:16.425Z</time>
      </trkpt>
      <trkpt lat="47.413652" lon="7.811232">
        <ele>472.390655</ele>
        <time>2021-11-20T17:58:19.867Z</time>
      </trkpt>
      <trkpt lat="47.413716" lon="7.811229">
        <ele>472.286106</ele>
        <time>2021-11-20T17:58:20.848Z</time>
      </trkpt>
      <trkpt lat="47.413799" lon="7.811208">
        <ele>472.148616</ele>
        <time>2021-11-20T17:58:22.418Z</time>
      </trkpt>
      <trkpt lat="47.413831" lon="7.811199">
        <ele>472.095430</ele>
        <time>2021-11-20T17:58:22.963Z</time>
      </trkpt>
      <trkpt lat="47.413959" lon="7.811165">
        <ele>471.980762</ele>
        <time>2021-11-20T17:58:25.294Z</time>
      </trkpt>
      <trkpt lat="47.414237" lon="7.811081">
        <ele>471.743715</ele>
        <time>2021-11-20T17:58:30.049Z</time>
      </trkpt>
      <trkpt lat="47.414706" lon="7.810912">
        <ele>471.340431</ele>
        <time>2021-11-20T17:58:38.655Z</time>
      </trkpt>
      <trkpt lat="47.415390" lon="7.810500">
        <ele>470.723374</ele>
        <time>2021-11-20T17:58:52.246Z</time>
      </trkpt>
      <trkpt lat="47.415633" lon="7.810382">
        <ele>470.482735</ele>
        <time>2021-11-20T17:58:56.757Z</time>
      </trkpt>
      <trkpt lat="47.415923" lon="7.810254">
        <ele>470.133642</ele>
        <time>2021-11-20T17:59:02.312Z</time>
      </trkpt>
      <trkpt lat="47.415983" lon="7.810241">
        <ele>470.063697</ele>
        <time>2021-11-20T17:59:03.219Z</time>
      </trkpt>
      <trkpt lat="47.416026" lon="7.810233">
        <ele>470.013708</ele>
        <time>2021-11-20T17:59:03.960Z</time>
      </trkpt>
      <trkpt lat="47.416349" lon="7.810346">
        <ele>469.630856</ele>
        <time>2021-11-20T17:59:09.561Z</time>
      </trkpt>
      <trkpt lat="47.416432" lon="7.810407">
        <ele>469.523937</ele>
        <time>2021-11-20T17:59:11.243Z</time>
      </trkpt>
      <trkpt lat="47.416598" lon="7.810554">
        <ele>469.300726</ele>
        <time>2021-11-20T17:59:14.712Z</time>
      </trkpt>
      <trkpt lat="47.416690" lon="7.810617">
        <ele>469.183772</ele>
        <time>2021-11-20T17:59:16.186Z</time>
      </trkpt>
      <trkpt lat="47.417067" lon="7.810695">
        <ele>468.744691</ele>
        <time>2021-11-20T17:59:22.582Z</time>
      </trkpt>
      <trkpt lat="47.417675" lon="7.810419">
        <ele>468.496333</ele>
        <time>2021-11-20T17:59:33.676Z</time>
      </trkpt>
      <trkpt lat="47.417743" lon="7.810418">
        <ele>468.494815</ele>
        <time>2021-11-20T17:59:34.639Z</time>
      </trkpt>
      <trkpt lat="47.417828" lon="7.810432">
        <ele>468.492906</ele>
        <time>2021-11-20T17:59:36.070Z</time>
      </trkpt>
      <trkpt lat="47.418377" lon="7.810720">
        <ele>468.479903</ele>
        <time>2021-11-20T17:59:45.649Z</time>
      </trkpt>
      <trkpt lat="47.418762" lon="7.810815">
        <ele>468.471190</ele>
        <time>2021-11-20T17:59:54.627Z</time>
      </trkpt>
      <trkpt lat="47.419015" lon="7.810884">
        <ele>468.531245</ele>
        <time>2021-11-20T18:00:02.438Z</time>
      </trkpt>
      <trkpt lat="47.419069" lon="7.810903">
        <ele>468.789706</ele>
        <time>2021-11-20T18:00:04.150Z</time>
      </trkpt>
      <trkpt lat="47.419134" lon="7.810926">
        <ele>469.100912</ele>
        <time>2021-11-20T18:00:05.536Z</time>
      </trkpt>
      <trkpt lat="47.419155" lon="7.810934">
        <ele>469.201888</ele>
        <time>2021-11-20T18:00:05.919Z</time>
      </trkpt>
      <trkpt lat="47.419414" lon="7.811078">
        <ele>470.490352</ele>
        <time>2021-11-20T18:00:18.953Z</time>
      </trkpt>
      <trkpt lat="47.419508" lon="7.811160">
        <ele>470.998589</ele>
        <time>2021-11-20T18:00:22.275Z</time>
      </trkpt>
      <trkpt lat="47.419632" lon="7.811270">
        <ele>471.671977</ele>
        <time>2021-11-20T18:00:29.971Z</time>
      </trkpt>
      <trkpt lat="47.419766" lon="7.811395">
        <ele>472.409794</ele>
        <time>2021-11-20T18:00:36.480Z</time>
      </trkpt>
      <trkpt lat="47.420135" lon="7.811734">
        <ele>474.432816</ele>
        <time>2021-11-20T18:00:53.633Z</time>
      </trkpt>
      <trkpt lat="47.420458" lon="7.811986">
        <ele>476.133450</ele>
        <time>2021-11-20T18:01:08.345Z</time>
      </trkpt>
      <trkpt lat="47.420607" lon="7.812071">
        <ele>476.846211</ele>
        <time>2021-11-20T18:01:16.407Z</time>
      </trkpt>
      <trkpt lat="47.420767" lon="7.812138">
        <ele>476.965639</ele>
        <time>2021-11-20T18:01:22.161Z</time>
      </trkpt>
      <trkpt lat="47.420870" lon="7.812170">
        <ele>477.041226</ele>
        <time>2021-11-20T18:01:26.640Z</time>
      </trkpt>
      <trkpt lat="47.421065" lon="7.812200">
        <ele>477.182023</ele>
        <time>2021-11-20T18:01:34.827Z</time>
      </trkpt>
      <trkpt lat="47.421441" lon="7.812208">
        <ele>477.452078</ele>
        <time>2021-11-20T18:01:47.399Z</time>
      </trkpt>
      <trkpt lat="47.421893" lon="7.812157">
        <ele>477.777629</ele>
        <time>2021-11-20T18:01:55.508Z</time>
      </trkpt>
      <trkpt lat="47.421898" lon="7.812156">
        <ele>477.781252</ele>
        <time>2021-11-20T18:01:55.563Z</time>
      </trkpt>
      <trkpt lat="47.422397" lon="7.812011">
        <ele>478.049162</ele>
        <time>2021-11-20T18:02:02.897Z</time>
      </trkpt>
      <trkpt lat="47.422720" lon="7.811867">
        <ele>476.629820</ele>
        <time>2021-11-20T18:02:07.433Z</time>
      </trkpt>
      <trkpt lat="47.422978" lon="7.811734">
        <ele>475.480283</ele>
        <time>2021-11-20T18:02:11.116Z</time>
      </trkpt>
      <trkpt lat="47.423172" lon="7.811608">
        <ele>474.588797</ele>
        <time>2021-11-20T18:02:14.081Z</time>
      </trkpt>
      <trkpt lat="47.423767" lon="7.811175">
        <ele>471.798652</ele>
        <time>2021-11-20T18:02:23.127Z</time>
      </trkpt>
      <trkpt lat="47.423941" lon="7.811048">
        <ele>470.982240</ele>
        <time>2021-11-20T18:02:25.819Z</time>
      </trkpt>
      <trkpt lat="47.424697" lon="7.810643">
        <ele>468.504840</ele>
        <time>2021-11-20T18:02:37.785Z</time>
      </trkpt>
      <trkpt lat="47.424871" lon="7.810565">
        <ele>467.973438</ele>
        <time>2021-11-20T18:02:40.428Z</time>
      </trkpt>
      <trkpt lat="47.425184" lon="7.810445">
        <ele>467.028399</ele>
        <time>2021-11-20T18:02:45.886Z</time>
      </trkpt>
      <trkpt lat="47.426541" lon="7.810106">
        <ele>460.938308</ele>
        <time>2021-11-20T18:03:05.896Z</time>
      </trkpt>
      <trkpt lat="47.427284" lon="7.809847">
        <ele>456.703495</ele>
        <time>2021-11-20T18:03:15.685Z</time>
      </trkpt>
      <trkpt lat="47.427626" lon="7.809699">
        <ele>454.536604</ele>
        <time>2021-11-20T18:03:20.166Z</time>
      </trkpt>
      <trkpt lat="47.428078" lon="7.809508">
        <ele>451.108447</ele>
        <time>2021-11-20T18:03:26.043Z</time>
      </trkpt>
      <trkpt lat="47.428531" lon="7.809311">
        <ele>447.665042</ele>
        <time>2021-11-20T18:03:31.984Z</time>
      </trkpt>
      <trkpt lat="47.428816" lon="7.809184">
        <ele>445.494355</ele>
        <time>2021-11-20T18:03:35.737Z</time>
      </trkpt>
      <trkpt lat="47.429678" lon="7.808980">
        <ele>440.674439</ele>
        <time>2021-11-20T18:03:47.198Z</time>
      </trkpt>
      <trkpt lat="47.430471" lon="7.809009">
        <ele>437.787747</ele>
        <time>2021-11-20T18:03:58.824Z</time>
      </trkpt>
      <trkpt lat="47.430630" lon="7.809037">
        <ele>437.205038</ele>
        <time>2021-11-20T18:04:01.388Z</time>
      </trkpt>
      <trkpt lat="47.430797" lon="7.809083">
        <ele>436.586847</ele>
        <time>2021-11-20T18:04:03.987Z</time>
      </trkpt>
      <trkpt lat="47.431419" lon="7.809325">
        <ele>434.787001</ele>
        <time>2021-11-20T18:04:13.916Z</time>
      </trkpt>
      <trkpt lat="47.432022" lon="7.809706">
        <ele>433.307533</ele>
        <time>2021-11-20T18:04:24.046Z</time>
      </trkpt>
      <trkpt lat="47.432174" lon="7.809836">
        <ele>432.911353</ele>
        <time>2021-11-20T18:04:26.721Z</time>
      </trkpt>
      <trkpt lat="47.432554" lon="7.810136">
        <ele>431.939450</ele>
        <time>2021-11-20T18:04:33.440Z</time>
      </trkpt>
      <trkpt lat="47.432928" lon="7.810342">
        <ele>431.098858</ele>
        <time>2021-11-20T18:04:39.721Z</time>
      </trkpt>
      <trkpt lat="47.433316" lon="7.810451">
        <ele>430.301021</ele>
        <time>2021-11-20T18:04:45.799Z</time>
      </trkpt>
      <trkpt lat="47.433643" lon="7.810504">
        <ele>429.636480</ele>
        <time>2021-11-20T18:04:50.953Z</time>
      </trkpt>
      <trkpt lat="47.433643" lon="7.810504">
        <ele>429.636480</ele>
        <time>2021-11-20T18:04:50.964Z</time>
      </trkpt>
      <trkpt lat="47.434093" lon="7.810572">
        <ele>428.722685</ele>
        <time>2021-11-20T18:04:58.149Z</time>
      </trkpt>
      <trkpt lat="47.434221" lon="7.810592">
        <ele>428.462669</ele>
        <time>2021-11-20T18:05:00.321Z</time>
      </trkpt>
      <trkpt lat="47.434532" lon="7.810638">
        <ele>427.848743</ele>
        <time>2021-11-20T18:05:05.335Z</time>
      </trkpt>
      <trkpt lat="47.434890" lon="7.810694">
        <ele>427.208234</ele>
        <time>2021-11-20T18:05:11.143Z</time>
      </trkpt>
      <trkpt lat="47.435107" lon="7.810718">
        <ele>426.821068</ele>
        <time>2021-11-20T18:05:14.555Z</time>
      </trkpt>
      <trkpt lat="47.435676" lon="7.810622">
        <ele>425.802133</ele>
        <time>2021-11-20T18:05:23.943Z</time>
      </trkpt>
      <trkpt lat="47.436034" lon="7.810517">
        <ele>425.152766</ele>
        <time>2021-11-20T18:05:29.771Z</time>
      </trkpt>
      <trkpt lat="47.436286" lon="7.810439">
        <ele>424.696652</ele>
        <time>2021-11-20T18:05:33.766Z</time>
      </trkpt>
      <trkpt lat="47.436714" lon="7.810307">
        <ele>423.937202</ele>
        <time>2021-11-20T18:05:40.691Z</time>
      </trkpt>
      <trkpt lat="47.436754" lon="7.810295">
        <ele>423.866305</ele>
        <time>2021-11-20T18:05:41.313Z</time>
      </trkpt>
      <trkpt lat="47.436910" lon="7.810231">
        <ele>423.585090</ele>
        <time>2021-11-20T18:05:43.886Z</time>
      </trkpt>
      <trkpt lat="47.436971" lon="7.810198">
        <ele>423.472261</ele>
        <time>2021-11-20T18:05:44.898Z</time>
      </trkpt>
      <trkpt lat="47.437405" lon="7.809871">
        <ele>422.626137</ele>
        <time>2021-11-20T18:05:52.708Z</time>
      </trkpt>
      <trkpt lat="47.437530" lon="7.809761">
        <ele>422.373457</ele>
        <time>2021-11-20T18:05:55.042Z</time>
      </trkpt>
      <trkpt lat="47.437880" lon="7.809448">
        <ele>421.662929</ele>
        <time>2021-11-20T18:06:01.543Z</time>
      </trkpt>
      <trkpt lat="47.438351" lon="7.809132">
        <ele>422.096138</ele>
        <time>2021-11-20T18:06:10.522Z</time>
      </trkpt>
      <trkpt lat="47.438917" lon="7.808920">
        <ele>422.601402</ele>
        <time>2021-11-20T18:06:23.738Z</time>
      </trkpt>
      <trkpt lat="47.439160" lon="7.808856">
        <ele>422.814994</ele>
        <time>2021-11-20T18:06:30.270Z</time>
      </trkpt>
      <trkpt lat="47.439256" lon="7.808836">
        <ele>422.898888</ele>
        <time>2021-11-20T18:06:33.283Z</time>
      </trkpt>
      <trkpt lat="47.439561" lon="7.808777">
        <ele>423.165071</ele>
        <time>2021-11-20T18:06:42.421Z</time>
      </trkpt>
      <trkpt lat="47.439717" lon="7.808754">
        <ele>423.552250</ele>
        <time>2021-11-20T18:06:48.443Z</time>
      </trkpt>
      <trkpt lat="47.440417" lon="7.808777">
        <ele>425.833904</ele>
        <time>2021-11-20T18:07:13.593Z</time>
      </trkpt>
      <trkpt lat="47.442177" lon="7.809333">
        <ele>429.381375</ele>
        <time>2021-11-20T18:08:11.674Z</time>
      </trkpt>
      <trkpt lat="47.442683" lon="7.809428">
        <ele>429.577683</ele>
        <time>2021-11-20T18:08:20.654Z</time>
      </trkpt>
      <trkpt lat="47.442919" lon="7.809465">
        <ele>429.669021</ele>
        <time>2021-11-20T18:08:24.373Z</time>
      </trkpt>
      <trkpt lat="47.443441" lon="7.809553">
        <ele>428.307337</ele>
        <time>2021-11-20T18:08:32.773Z</time>
      </trkpt>
      <trkpt lat="47.443720" lon="7.809596">
        <ele>426.851171</ele>
        <time>2021-11-20T18:08:36.713Z</time>
      </trkpt>
      <trkpt lat="47.443991" lon="7.809623">
        <ele>425.441190</ele>
        <time>2021-11-20T18:08:40.273Z</time>
      </trkpt>
      <trkpt lat="47.444386" lon="7.809626">
        <ele>423.390675</ele>
        <time>2021-11-20T18:08:45.389Z</time>
      </trkpt>
      <trkpt lat="47.445054" lon="7.809404">
        <ele>419.727302</ele>
        <time>2021-11-20T18:08:54.164Z</time>
      </trkpt>
      <trkpt lat="47.445120" lon="7.809369">
        <ele>419.295931</ele>
        <time>2021-11-20T18:08:55.068Z</time>
      </trkpt>
      <trkpt lat="47.445298" lon="7.809256">
        <ele>418.104172</ele>
        <time>2021-11-20T18:08:56.840Z</time>
      </trkpt>
      <trkpt lat="47.445880" lon="7.808843">
        <ele>414.132588</ele>
        <time>2021-11-20T18:09:02.854Z</time>
      </trkpt>
      <trkpt lat="47.446066" lon="7.808703">
        <ele>412.848550</ele>
        <time>2021-11-20T18:09:04.739Z</time>
      </trkpt>
      <trkpt lat="47.446096" lon="7.808680">
        <ele>412.640649</ele>
        <time>2021-11-20T18:09:05.074Z</time>
      </trkpt>
      <trkpt lat="47.446142" lon="7.808642">
        <ele>412.316477</ele>
        <time>2021-11-20T18:09:05.554Z</time>
      </trkpt>
      <trkpt lat="47.446375" lon="7.808453">
        <ele>410.681485</ele>
        <time>2021-11-20T18:09:07.939Z</time>
      </trkpt>
      <trkpt lat="47.446473" lon="7.808376">
        <ele>409.998735</ele>
        <time>2021-11-20T18:09:08.935Z</time>
      </trkpt>
      <trkpt lat="47.446662" lon="7.808234">
        <ele>408.923638</ele>
        <time>2021-11-20T18:09:10.841Z</time>
      </trkpt>
      <trkpt lat="47.447314" lon="7.807756">
        <ele>405.986570</ele>
        <time>2021-11-20T18:09:17.731Z</time>
      </trkpt>
      <trkpt lat="47.447388" lon="7.807704">
        <ele>405.655906</ele>
        <time>2021-11-20T18:09:18.492Z</time>
      </trkpt>
      <trkpt lat="47.447457" lon="7.807654">
        <ele>405.345789</ele>
        <time>2021-11-20T18:09:19.339Z</time>
      </trkpt>
      <trkpt lat="47.447633" lon="7.807562">
        <ele>404.592395</ele>
        <time>2021-11-20T18:09:21.385Z</time>
      </trkpt>
      <trkpt lat="47.447668" lon="7.807553">
        <ele>404.449018</ele>
        <time>2021-11-20T18:09:21.749Z</time>
      </trkpt>
      <trkpt lat="47.447689" lon="7.807548">
        <ele>404.363173</ele>
        <time>2021-11-20T18:09:21.938Z</time>
      </trkpt>
      <trkpt lat="47.447914" lon="7.807549">
        <ele>403.455092</ele>
        <time>2021-11-20T18:09:24.458Z</time>
      </trkpt>
      <trkpt lat="47.448245" lon="7.807740">
        <ele>402.061163</ele>
        <time>2021-11-20T18:09:28.184Z</time>
      </trkpt>
      <trkpt lat="47.448284" lon="7.807767">
        <ele>401.973952</ele>
        <time>2021-11-20T18:09:28.598Z</time>
      </trkpt>
      <trkpt lat="47.448442" lon="7.807881">
        <ele>401.617910</ele>
        <time>2021-11-20T18:09:30.407Z</time>
      </trkpt>
      <trkpt lat="47.448807" lon="7.808072">
        <ele>400.833788</ele>
        <time>2021-11-20T18:09:34.537Z</time>
      </trkpt>
      <trkpt lat="47.448903" lon="7.808078">
        <ele>400.639193</ele>
        <time>2021-11-20T18:09:35.684Z</time>
      </trkpt>
      <trkpt lat="47.449015" lon="7.808053">
        <ele>400.409800</ele>
        <time>2021-11-20T18:09:36.869Z</time>
      </trkpt>
      <trkpt lat="47.449267" lon="7.807971">
        <ele>399.887236</ele>
        <time>2021-11-20T18:09:39.725Z</time>
      </trkpt>
      <trkpt lat="47.449353" lon="7.807942">
        <ele>399.708597</ele>
        <time>2021-11-20T18:09:40.638Z</time>
      </trkpt>
      <trkpt lat="47.449829" lon="7.807782">
        <ele>398.720004</ele>
        <time>2021-11-20T18:09:46.292Z</time>
      </trkpt>
      <trkpt lat="47.449896" lon="7.807771">
        <ele>398.583481</ele>
        <time>2021-11-20T18:09:47.081Z</time>
      </trkpt>
      <trkpt lat="47.450005" lon="7.807761">
        <ele>398.387316</ele>
        <time>2021-11-20T18:09:48.440Z</time>
      </trkpt>
      <trkpt lat="47.451415" lon="7.807774">
        <ele>396.271190</ele>
        <time>2021-11-20T18:10:04.653Z</time>
      </trkpt>
      <trkpt lat="47.451791" lon="7.807759">
        <ele>395.702181</ele>
        <time>2021-11-20T18:10:08.985Z</time>
      </trkpt>
      <trkpt lat="47.451923" lon="7.807754">
        <ele>395.487080</ele>
        <time>2021-11-20T18:10:10.508Z</time>
      </trkpt>
      <trkpt lat="47.452253" lon="7.807773">
        <ele>394.949098</ele>
        <time>2021-11-20T18:10:14.298Z</time>
      </trkpt>
      <trkpt lat="47.452456" lon="7.807753">
        <ele>394.617675</ele>
        <time>2021-11-20T18:10:16.608Z</time>
      </trkpt>
      <trkpt lat="47.452556" lon="7.807739">
        <ele>394.454045</ele>
        <time>2021-11-20T18:10:17.677Z</time>
      </trkpt>
      <trkpt lat="47.452649" lon="7.807724">
        <ele>394.301648</ele>
        <time>2021-11-20T18:10:18.740Z</time>
      </trkpt>
      <trkpt lat="47.452830" lon="7.807686">
        <ele>394.003840</ele>
        <time>2021-11-20T18:10:20.805Z</time>
      </trkpt>
      <trkpt lat="47.453183" lon="7.807608">
        <ele>393.422414</ele>
        <time>2021-11-20T18:10:24.689Z</time>
      </trkpt>
      <trkpt lat="47.453371" lon="7.807571">
        <ele>393.113459</ele>
        <time>2021-11-20T18:10:26.806Z</time>
      </trkpt>
      <trkpt lat="47.453677" lon="7.807487">
        <ele>392.626751</ele>
        <time>2021-11-20T18:10:30.534Z</time>
      </trkpt>
      <trkpt lat="47.453815" lon="7.807438">
        <ele>392.416585</ele>
        <time>2021-11-20T18:10:32.287Z</time>
      </trkpt>
      <trkpt lat="47.453901" lon="7.807402">
        <ele>392.284228</ele>
        <time>2021-11-20T18:10:33.387Z</time>
      </trkpt>
      <trkpt lat="47.453985" lon="7.807368">
        <ele>392.155261</ele>
        <time>2021-11-20T18:10:34.378Z</time>
      </trkpt>
      <trkpt lat="47.454310" lon="7.807191">
        <ele>391.642385</ele>
        <time>2021-11-20T18:10:38.629Z</time>
      </trkpt>
      <trkpt lat="47.454428" lon="7.807128">
        <ele>391.456605</ele>
        <time>2021-11-20T18:10:40.107Z</time>
      </trkpt>
      <trkpt lat="47.454559" lon="7.807067">
        <ele>391.253224</ele>
        <time>2021-11-20T18:10:41.898Z</time>
      </trkpt>
      <trkpt lat="47.455379" lon="7.806783">
        <ele>389.942247</ele>
        <time>2021-11-20T18:10:51.254Z</time>
      </trkpt>
      <trkpt lat="47.456100" lon="7.806718">
        <ele>388.445657</ele>
        <time>2021-11-20T18:10:59.149Z</time>
      </trkpt>
      <trkpt lat="47.456331" lon="7.806727">
        <ele>387.966889</ele>
        <time>2021-11-20T18:11:01.671Z</time>
      </trkpt>
      <trkpt lat="47.456502" lon="7.806745">
        <ele>387.611703</ele>
        <time>2021-11-20T18:11:03.489Z</time>
      </trkpt>
      <trkpt lat="47.456988" lon="7.806840">
        <ele>386.596018</ele>
        <time>2021-11-20T18:11:08.853Z</time>
      </trkpt>
      <trkpt lat="47.457291" lon="7.806917">
        <ele>386.000475</ele>
        <time>2021-11-20T18:11:12.143Z</time>
      </trkpt>
      <trkpt lat="47.457326" lon="7.806926">
        <ele>385.933220</ele>
        <time>2021-11-20T18:11:12.546Z</time>
      </trkpt>
      <trkpt lat="47.457732" lon="7.807037">
        <ele>385.151571</ele>
        <time>2021-11-20T18:11:16.985Z</time>
      </trkpt>
      <trkpt lat="47.458181" lon="7.807191">
        <ele>384.278981</ele>
        <time>2021-11-20T18:11:22.047Z</time>
      </trkpt>
      <trkpt lat="47.458237" lon="7.807215">
        <ele>384.168602</ele>
        <time>2021-11-20T18:11:22.679Z</time>
      </trkpt>
      <trkpt lat="47.458342" lon="7.807254">
        <ele>383.963647</ele>
        <time>2021-11-20T18:11:23.883Z</time>
      </trkpt>
      <trkpt lat="47.458678" lon="7.807409">
        <ele>383.297319</ele>
        <time>2021-11-20T18:11:27.877Z</time>
      </trkpt>
      <trkpt lat="47.459007" lon="7.807577">
        <ele>382.741334</ele>
        <time>2021-11-20T18:11:31.981Z</time>
      </trkpt>
      <trkpt lat="47.459282" lon="7.807707">
        <ele>382.336891</ele>
        <time>2021-11-20T18:11:35.532Z</time>
      </trkpt>
      <trkpt lat="47.459423" lon="7.807775">
        <ele>382.129130</ele>
        <time>2021-11-20T18:11:37.299Z</time>
      </trkpt>
      <trkpt lat="47.459865" lon="7.807952">
        <ele>381.487644</ele>
        <time>2021-11-20T18:11:42.552Z</time>
      </trkpt>
      <trkpt lat="47.460078" lon="7.808023">
        <ele>381.181771</ele>
        <time>2021-11-20T18:11:45.117Z</time>
      </trkpt>
      <trkpt lat="47.460298" lon="7.808103">
        <ele>380.864398</ele>
        <time>2021-11-20T18:11:47.727Z</time>
      </trkpt>
      <trkpt lat="47.460439" lon="7.808155">
        <ele>380.660825</ele>
        <time>2021-11-20T18:11:49.408Z</time>
      </trkpt>
      <trkpt lat="47.460827" lon="7.808276">
        <ele>380.125853</ele>
        <time>2021-11-20T18:11:53.980Z</time>
      </trkpt>
      <trkpt lat="47.460870" lon="7.808289">
        <ele>380.067452</ele>
        <time>2021-11-20T18:11:54.451Z</time>
      </trkpt>
      <trkpt lat="47.460938" lon="7.808308">
        <ele>379.975368</ele>
        <time>2021-11-20T18:11:55.296Z</time>
      </trkpt>
      <trkpt lat="47.461296" lon="7.808372">
        <ele>379.495533</ele>
        <time>2021-11-20T18:11:59.507Z</time>
      </trkpt>
      <trkpt lat="47.461822" lon="7.808433">
        <ele>378.793469</ele>
        <time>2021-11-20T18:12:05.541Z</time>
      </trkpt>
      <trkpt lat="47.461997" lon="7.808450">
        <ele>378.560105</ele>
        <time>2021-11-20T18:12:07.592Z</time>
      </trkpt>
      <trkpt lat="47.462052" lon="7.808470">
        <ele>378.484741</ele>
        <time>2021-11-20T18:12:08.254Z</time>
      </trkpt>
      <trkpt lat="47.462087" lon="7.808494">
        <ele>378.433407</ele>
        <time>2021-11-20T18:12:08.744Z</time>
      </trkpt>
      <trkpt lat="47.462189" lon="7.808427">
        <ele>378.284900</ele>
        <time>2021-11-20T18:12:10.026Z</time>
      </trkpt>
      <trkpt lat="47.463004" lon="7.808201">
        <ele>377.992267</ele>
        <time>2021-11-20T18:12:20.604Z</time>
      </trkpt>
      <trkpt lat="47.463084" lon="7.808172">
        <ele>377.977224</ele>
        <time>2021-11-20T18:12:21.672Z</time>
      </trkpt>
      <trkpt lat="47.463139" lon="7.808153">
        <ele>377.966908</ele>
        <time>2021-11-20T18:12:22.542Z</time>
      </trkpt>
      <trkpt lat="47.463234" lon="7.808119">
        <ele>377.949058</ele>
        <time>2021-11-20T18:12:23.814Z</time>
      </trkpt>
      <trkpt lat="47.463497" lon="7.808007">
        <ele>377.899074</ele>
        <time>2021-11-20T18:12:28.060Z</time>
      </trkpt>
      <trkpt lat="47.463812" lon="7.807759">
        <ele>377.833902</ele>
        <time>2021-11-20T18:12:33.699Z</time>
      </trkpt>
      <trkpt lat="47.463974" lon="7.807443">
        <ele>377.815446</ele>
        <time>2021-11-20T18:12:38.467Z</time>
      </trkpt>
      <trkpt lat="47.464656" lon="7.805873">
        <ele>378.484621</ele>
        <time>2021-11-20T18:13:02.156Z</time>
      </trkpt>
      <trkpt lat="47.464756" lon="7.805345">
        <ele>378.681240</ele>
        <time>2021-11-20T18:13:07.422Z</time>
      </trkpt>
      <trkpt lat="47.464762" lon="7.804988">
        <ele>378.620152</ele>
        <time>2021-11-20T18:13:10.941Z</time>
      </trkpt>
      <trkpt lat="47.464766" lon="7.804635">
        <ele>378.363796</ele>
        <time>2021-11-20T18:13:13.872Z</time>
      </trkpt>
      <trkpt lat="47.464804" lon="7.804045">
        <ele>377.933446</ele>
        <time>2021-11-20T18:13:18.982Z</time>
      </trkpt>
      <trkpt lat="47.464850" lon="7.803652">
        <ele>377.643836</ele>
        <time>2021-11-20T18:13:22.165Z</time>
      </trkpt>
      <trkpt lat="47.464951" lon="7.803046">
        <ele>377.190634</ele>
        <time>2021-11-20T18:13:27.124Z</time>
      </trkpt>
      <trkpt lat="47.465087" lon="7.801961">
        <ele>376.228287</ele>
        <time>2021-11-20T18:13:35.406Z</time>
      </trkpt>
      <trkpt lat="47.465091" lon="7.801374">
        <ele>375.640676</ele>
        <time>2021-11-20T18:13:40.025Z</time>
      </trkpt>
      <trkpt lat="47.465027" lon="7.800984">
        <ele>375.238953</ele>
        <time>2021-11-20T18:13:43.395Z</time>
      </trkpt>
      <trkpt lat="47.464765" lon="7.799380">
        <ele>373.504100</ele>
        <time>2021-11-20T18:13:56.191Z</time>
      </trkpt>
      <trkpt lat="47.464772" lon="7.798903">
        <ele>372.956246</ele>
        <time>2021-11-20T18:13:59.778Z</time>
      </trkpt>
      <trkpt lat="47.464820" lon="7.798651">
        <ele>372.655617</ele>
        <time>2021-11-20T18:14:01.796Z</time>
      </trkpt>
      <trkpt lat="47.464909" lon="7.798314">
        <ele>372.240172</ele>
        <time>2021-11-20T18:14:04.494Z</time>
      </trkpt>
      <trkpt lat="47.465142" lon="7.797798">
        <ele>371.527655</ele>
        <time>2021-11-20T18:14:09.207Z</time>
      </trkpt>
      <trkpt lat="47.465357" lon="7.797287">
        <ele>370.882336</ele>
        <time>2021-11-20T18:14:13.942Z</time>
      </trkpt>
      <trkpt lat="47.465466" lon="7.796874">
        <ele>370.462874</ele>
        <time>2021-11-20T18:14:17.211Z</time>
      </trkpt>
      <trkpt lat="47.465539" lon="7.795835">
        <ele>369.474580</ele>
        <time>2021-11-20T18:14:25.316Z</time>
      </trkpt>
      <trkpt lat="47.465548" lon="7.795165">
        <ele>368.840568</ele>
        <time>2021-11-20T18:14:30.929Z</time>
      </trkpt>
      <trkpt lat="47.465562" lon="7.794871">
        <ele>368.571941</ele>
        <time>2021-11-20T18:14:33.214Z</time>
      </trkpt>
      <trkpt lat="47.465644" lon="7.794171">
        <ele>368.286033</ele>
        <time>2021-11-20T18:14:39.173Z</time>
      </trkpt>
      <trkpt lat="47.465723" lon="7.793808">
        <ele>368.132563</ele>
        <time>2021-11-20T18:14:42.336Z</time>
      </trkpt>
      <trkpt lat="47.465837" lon="7.793287">
        <ele>367.912182</ele>
        <time>2021-11-20T18:14:47.116Z</time>
      </trkpt>
      <trkpt lat="47.465907" lon="7.792914">
        <ele>367.756395</ele>
        <time>2021-11-20T18:14:50.381Z</time>
      </trkpt>
      <trkpt lat="47.466109" lon="7.792088">
        <ele>367.539790</ele>
        <time>2021-11-20T18:14:59.724Z</time>
      </trkpt>
      <trkpt lat="47.466412" lon="7.790700">
        <ele>367.711774</ele>
        <time>2021-11-20T18:15:15.093Z</time>
      </trkpt>
      <trkpt lat="47.466432" lon="7.790596">
        <ele>367.724524</ele>
        <time>2021-11-20T18:15:16.955Z</time>
      </trkpt>
      <trkpt lat="47.466514" lon="7.790156">
        <ele>367.778341</ele>
        <time>2021-11-20T18:15:21.691Z</time>
      </trkpt>
      <trkpt lat="47.466603" lon="7.789598">
        <ele>367.723892</ele>
        <time>2021-11-20T18:15:27.818Z</time>
      </trkpt>
      <trkpt lat="47.466719" lon="7.788592">
        <ele>367.217955</ele>
        <time>2021-11-20T18:15:36.804Z</time>
      </trkpt>
      <trkpt lat="47.466734" lon="7.788459">
        <ele>367.151108</ele>
        <time>2021-11-20T18:15:38.229Z</time>
      </trkpt>
      <trkpt lat="47.466939" lon="7.786723">
        <ele>366.206372</ele>
        <time>2021-11-20T18:15:52.237Z</time>
      </trkpt>
      <trkpt lat="47.466949" lon="7.786640">
        <ele>366.151434</ele>
        <time>2021-11-20T18:15:52.932Z</time>
      </trkpt>
      <trkpt lat="47.466956" lon="7.786579">
        <ele>366.111115</ele>
        <time>2021-11-20T18:15:53.376Z</time>
      </trkpt>
      <trkpt lat="47.467094" lon="7.785323">
        <ele>365.281912</ele>
        <time>2021-11-20T18:16:04.349Z</time>
      </trkpt>
      <trkpt lat="47.467119" lon="7.785066">
        <ele>365.112715</ele>
        <time>2021-11-20T18:16:06.545Z</time>
      </trkpt>
      <trkpt lat="47.467092" lon="7.784779">
        <ele>364.923892</ele>
        <time>2021-11-20T18:16:08.971Z</time>
      </trkpt>
      <trkpt lat="47.467074" lon="7.784580">
        <ele>364.793060</ele>
        <time>2021-11-20T18:16:10.693Z</time>
      </trkpt>
      <trkpt lat="47.467114" lon="7.784127">
        <ele>364.298910</ele>
        <time>2021-11-20T18:16:14.438Z</time>
      </trkpt>
      <trkpt lat="47.467275" lon="7.783266">
        <ele>363.299865</ele>
        <time>2021-11-20T18:16:21.856Z</time>
      </trkpt>
      <trkpt lat="47.467308" lon="7.783125">
        <ele>363.132997</ele>
        <time>2021-11-20T18:16:22.990Z</time>
      </trkpt>
      <trkpt lat="47.467374" lon="7.782864">
        <ele>362.821360</ele>
        <time>2021-11-20T18:16:25.210Z</time>
      </trkpt>
      <trkpt lat="47.467411" lon="7.782717">
        <ele>362.645939</ele>
        <time>2021-11-20T18:16:26.407Z</time>
      </trkpt>
      <trkpt lat="47.467673" lon="7.781405">
        <ele>360.334752</ele>
        <time>2021-11-20T18:16:36.041Z</time>
      </trkpt>
      <trkpt lat="47.467837" lon="7.780341">
        <ele>357.708266</ele>
        <time>2021-11-20T18:16:43.305Z</time>
      </trkpt>
      <trkpt lat="47.467858" lon="7.780201">
        <ele>357.363129</ele>
        <time>2021-11-20T18:16:44.217Z</time>
      </trkpt>
      <trkpt lat="47.468054" lon="7.778980">
        <ele>354.591670</ele>
        <time>2021-11-20T18:16:52.555Z</time>
      </trkpt>
      <trkpt lat="47.468174" lon="7.778263">
        <ele>353.236202</ele>
        <time>2021-11-20T18:16:57.488Z</time>
      </trkpt>
      <trkpt lat="47.468193" lon="7.778169">
        <ele>353.056161</ele>
        <time>2021-11-20T18:16:58.119Z</time>
      </trkpt>
      <trkpt lat="47.468501" lon="7.776957">
        <ele>350.680107</ele>
        <time>2021-11-20T18:17:07.558Z</time>
      </trkpt>
      <trkpt lat="47.468600" lon="7.776294">
        <ele>350.902211</ele>
        <time>2021-11-20T18:17:13.290Z</time>
      </trkpt>
      <trkpt lat="47.468932" lon="7.773715">
        <ele>352.825916</ele>
        <time>2021-11-20T18:17:52.112Z</time>
      </trkpt>
      <trkpt lat="47.468986" lon="7.773126">
        <ele>353.393928</ele>
        <time>2021-11-20T18:18:02.491Z</time>
      </trkpt>
      <trkpt lat="47.468989" lon="7.772749">
        <ele>353.754221</ele>
        <time>2021-11-20T18:18:08.780Z</time>
      </trkpt>
      <trkpt lat="47.468967" lon="7.772389">
        <ele>354.099647</ele>
        <time>2021-11-20T18:18:13.332Z</time>
      </trkpt>
      <trkpt lat="47.468873" lon="7.771700">
        <ele>354.771344</ele>
        <time>2021-11-20T18:18:21.639Z</time>
      </trkpt>
      <trkpt lat="47.468826" lon="7.771365">
        <ele>354.545913</ele>
        <time>2021-11-20T18:18:24.802Z</time>
      </trkpt>
      <trkpt lat="47.468805" lon="7.771183">
        <ele>354.340296</ele>
        <time>2021-11-20T18:18:26.697Z</time>
      </trkpt>
      <trkpt lat="47.468811" lon="7.771044">
        <ele>354.185182</ele>
        <time>2021-11-20T18:18:27.811Z</time>
      </trkpt>
      <trkpt lat="47.468958" lon="7.770724">
        <ele>353.754312</ele>
        <time>2021-11-20T18:18:31.210Z</time>
      </trkpt>
      <trkpt lat="47.469109" lon="7.770388">
        <ele>353.304979</ele>
        <time>2021-11-20T18:18:34.166Z</time>
      </trkpt>
      <trkpt lat="47.469432" lon="7.769397">
        <ele>352.079764</ele>
        <time>2021-11-20T18:18:41.905Z</time>
      </trkpt>
      <trkpt lat="47.469647" lon="7.767934">
        <ele>350.368849</ele>
        <time>2021-11-20T18:18:52.488Z</time>
      </trkpt>
      <trkpt lat="47.469667" lon="7.767377">
        <ele>349.729223</ele>
        <time>2021-11-20T18:18:56.871Z</time>
      </trkpt>
      <trkpt lat="47.469610" lon="7.765476">
        <ele>348.647920</ele>
        <time>2021-11-20T18:19:14.835Z</time>
      </trkpt>
      <trkpt lat="47.469603" lon="7.765259">
        <ele>348.612755</ele>
        <time>2021-11-20T18:19:17.090Z</time>
      </trkpt>
      <trkpt lat="47.469581" lon="7.764381">
        <ele>348.470537</ele>
        <time>2021-11-20T18:19:26.247Z</time>
      </trkpt>
      <trkpt lat="47.469604" lon="7.763307">
        <ele>347.779105</ele>
        <time>2021-11-20T18:19:35.803Z</time>
      </trkpt>
      <trkpt lat="47.469611" lon="7.762993">
        <ele>347.469067</ele>
        <time>2021-11-20T18:19:38.237Z</time>
      </trkpt>
      <trkpt lat="47.469718" lon="7.761702">
        <ele>346.185510</ele>
        <time>2021-11-20T18:19:47.981Z</time>
      </trkpt>
      <trkpt lat="47.469785" lon="7.761099">
        <ele>345.553034</ele>
        <time>2021-11-20T18:19:52.485Z</time>
      </trkpt>
      <trkpt lat="47.469830" lon="7.760849">
        <ele>345.258166</ele>
        <time>2021-11-20T18:19:55.311Z</time>
      </trkpt>
      <trkpt lat="47.469935" lon="7.760325">
        <ele>344.635249</ele>
        <time>2021-11-20T18:20:01.260Z</time>
      </trkpt>
      <trkpt lat="47.469993" lon="7.760086">
        <ele>344.345826</ele>
        <time>2021-11-20T18:20:03.984Z</time>
      </trkpt>
      <trkpt lat="47.470048" lon="7.759861">
        <ele>344.073130</ele>
        <time>2021-11-20T18:20:06.588Z</time>
      </trkpt>
      <trkpt lat="47.470056" lon="7.759828">
        <ele>344.033173</ele>
        <time>2021-11-20T18:20:06.972Z</time>
      </trkpt>
      <trkpt lat="47.470081" lon="7.759739">
        <ele>343.923326</ele>
        <time>2021-11-20T18:20:08.113Z</time>
      </trkpt>
      <trkpt lat="47.470133" lon="7.759528">
        <ele>343.667355</ele>
        <time>2021-11-20T18:20:10.423Z</time>
      </trkpt>
      <trkpt lat="47.470176" lon="7.759380">
        <ele>343.483752</ele>
        <time>2021-11-20T18:20:12.201Z</time>
      </trkpt>
      <trkpt lat="47.470270" lon="7.759101">
        <ele>343.128454</ele>
        <time>2021-11-20T18:20:15.551Z</time>
      </trkpt>
      <trkpt lat="47.470312" lon="7.758976">
        <ele>342.969357</ele>
        <time>2021-11-20T18:20:17.130Z</time>
      </trkpt>
      <trkpt lat="47.470419" lon="7.758788">
        <ele>342.706220</ele>
        <time>2021-11-20T18:20:20.058Z</time>
      </trkpt>
      <trkpt lat="47.470644" lon="7.758233">
        <ele>342.216754</ele>
        <time>2021-11-20T18:20:27.552Z</time>
      </trkpt>
      <trkpt lat="47.471191" lon="7.757108">
        <ele>341.168641</ele>
        <time>2021-11-20T18:20:44.052Z</time>
      </trkpt>
      <trkpt lat="47.471363" lon="7.756755">
        <ele>340.839530</ele>
        <time>2021-11-20T18:20:48.976Z</time>
      </trkpt>
      <trkpt lat="47.471870" lon="7.755689">
        <ele>339.793904</ele>
        <time>2021-11-20T18:21:03.581Z</time>
      </trkpt>
      <trkpt lat="47.471952" lon="7.755502">
        <ele>339.613775</ele>
        <time>2021-11-20T18:21:06.076Z</time>
      </trkpt>
      <trkpt lat="47.472173" lon="7.754994">
        <ele>339.125585</ele>
        <time>2021-11-20T18:21:13.053Z</time>
      </trkpt>
      <trkpt lat="47.472317" lon="7.754716">
        <ele>338.842556</ele>
        <time>2021-11-20T18:21:17.147Z</time>
      </trkpt>
      <trkpt lat="47.472425" lon="7.754488">
        <ele>338.617572</ele>
        <time>2021-11-20T18:21:20.413Z</time>
      </trkpt>
      <trkpt lat="47.472617" lon="7.754082">
        <ele>338.423284</ele>
        <time>2021-11-20T18:21:26.229Z</time>
      </trkpt>
      <trkpt lat="47.472651" lon="7.754010">
        <ele>338.392972</ele>
        <time>2021-11-20T18:21:27.270Z</time>
      </trkpt>
      <trkpt lat="47.473203" lon="7.752832">
        <ele>337.898281</ele>
        <time>2021-11-20T18:21:44.409Z</time>
      </trkpt>
      <trkpt lat="47.473427" lon="7.752386">
        <ele>337.706519</ele>
        <time>2021-11-20T18:21:51.287Z</time>
      </trkpt>
      <trkpt lat="47.474210" lon="7.750680">
        <ele>340.417245</ele>
        <time>2021-11-20T18:22:27.713Z</time>
      </trkpt>
      <trkpt lat="47.474380" lon="7.750216">
        <ele>341.174279</ele>
        <time>2021-11-20T18:22:40.287Z</time>
      </trkpt>
      <trkpt lat="47.474792" lon="7.749258">
        <ele>345.874902</ele>
        <time>2021-11-20T18:23:05.554Z</time>
      </trkpt>
      <trkpt lat="47.474890" lon="7.749015">
        <ele>347.220026</ele>
        <time>2021-11-20T18:23:15.111Z</time>
      </trkpt>
      <trkpt lat="47.474983" lon="7.748830">
        <ele>348.316006</ele>
        <time>2021-11-20T18:23:21.844Z</time>
      </trkpt>
      <trkpt lat="47.475083" lon="7.748631">
        <ele>349.494764</ele>
        <time>2021-11-20T18:23:31.420Z</time>
      </trkpt>
      <trkpt lat="47.475204" lon="7.748388">
        <ele>350.929505</ele>
        <time>2021-11-20T18:23:41.522Z</time>
      </trkpt>
      <trkpt lat="47.475491" lon="7.747847">
        <ele>354.131010</ele>
        <time>2021-11-20T18:24:07.062Z</time>
      </trkpt>
      <trkpt lat="47.475265" lon="7.747654">
        <ele>354.277199</ele>
        <time>2021-11-20T18:24:18.869Z</time>
      </trkpt>
      <trkpt lat="47.475199" lon="7.747552">
        <ele>354.330667</ele>
        <time>2021-11-20T18:24:24.360Z</time>
      </trkpt>
      <trkpt lat="47.474942" lon="7.747158">
        <ele>354.538002</ele>
        <time>2021-11-20T18:24:34.630Z</time>
      </trkpt>
      <trkpt lat="47.474798" lon="7.746937">
        <ele>354.654239</ele>
        <time>2021-11-20T18:24:37.078Z</time>
      </trkpt>
      <trkpt lat="47.474743" lon="7.746802">
        <ele>354.713926</ele>
        <time>2021-11-20T18:24:38.347Z</time>
      </trkpt>
      <trkpt lat="47.474346" lon="7.745828">
        <ele>354.948008</ele>
        <time>2021-11-20T18:24:45.977Z</time>
      </trkpt>
      <trkpt lat="47.474582" lon="7.745542">
        <ele>352.277117</ele>
        <time>2021-11-20T18:24:48.695Z</time>
      </trkpt>
      <trkpt lat="47.474681" lon="7.745326">
        <ele>350.732731</ele>
        <time>2021-11-20T18:24:50.266Z</time>
      </trkpt>
      <trkpt lat="47.474823" lon="7.744923">
        <ele>348.043300</ele>
        <time>2021-11-20T18:24:52.916Z</time>
      </trkpt>
      <trkpt lat="47.474864" lon="7.744784">
        <ele>347.145828</ele>
        <time>2021-11-20T18:24:53.789Z</time>
      </trkpt>
      <trkpt lat="47.474874" lon="7.744750">
        <ele>346.926403</ele>
        <time>2021-11-20T18:24:53.998Z</time>
      </trkpt>
      <trkpt lat="47.474911" lon="7.744614">
        <ele>346.058850</ele>
        <time>2021-11-20T18:24:54.840Z</time>
      </trkpt>
      <trkpt lat="47.475040" lon="7.744695">
        <ele>344.831935</ele>
        <time>2021-11-20T18:24:56.047Z</time>
      </trkpt>
      <trkpt lat="47.475240" lon="7.744800">
        <ele>342.973938</ele>
        <time>2021-11-20T18:24:57.841Z</time>
      </trkpt>
      <trkpt lat="47.475301" lon="7.744824">
        <ele>342.421316</ele>
        <time>2021-11-20T18:24:58.394Z</time>
      </trkpt>
      <trkpt lat="47.475512" lon="7.744926">
        <ele>340.477880</ele>
        <time>2021-11-20T18:25:00.272Z</time>
      </trkpt>
      <trkpt lat="47.476192" lon="7.745063">
        <ele>336.462599</ele>
        <time>2021-11-20T18:25:06.339Z</time>
      </trkpt>
      <trkpt lat="47.476298" lon="7.745084">
        <ele>335.905895</ele>
        <time>2021-11-20T18:25:07.365Z</time>
      </trkpt>
      <trkpt lat="47.476587" lon="7.745147">
        <ele>334.385273</ele>
        <time>2021-11-20T18:25:10.293Z</time>
      </trkpt>
      <trkpt lat="47.476791" lon="7.745201">
        <ele>333.306495</ele>
        <time>2021-11-20T18:25:12.377Z</time>
      </trkpt>
      <trkpt lat="47.476839" lon="7.745235">
        <ele>333.029474</ele>
        <time>2021-11-20T18:25:12.912Z</time>
      </trkpt>
      <trkpt lat="47.477022" lon="7.745305">
        <ele>332.045552</ele>
        <time>2021-11-20T18:25:14.863Z</time>
      </trkpt>
      <trkpt lat="47.477122" lon="7.745341">
        <ele>331.509817</ele>
        <time>2021-11-20T18:25:15.892Z</time>
      </trkpt>
      <trkpt lat="47.477525" lon="7.745516">
        <ele>329.659677</ele>
        <time>2021-11-20T18:25:20.166Z</time>
      </trkpt>
      <trkpt lat="47.477688" lon="7.745598">
        <ele>329.194349</ele>
        <time>2021-11-20T18:25:21.917Z</time>
      </trkpt>
      <trkpt lat="47.477739" lon="7.745618">
        <ele>329.051746</ele>
        <time>2021-11-20T18:25:22.440Z</time>
      </trkpt>
      <trkpt lat="47.477786" lon="7.745592">
        <ele>328.916125</ele>
        <time>2021-11-20T18:25:22.924Z</time>
      </trkpt>
      <trkpt lat="47.477825" lon="7.745563">
        <ele>328.798152</ele>
        <time>2021-11-20T18:25:23.349Z</time>
      </trkpt>
      <trkpt lat="47.477880" lon="7.745253">
        <ele>328.212670</ele>
        <time>2021-11-20T18:25:25.550Z</time>
      </trkpt>
      <trkpt lat="47.477896" lon="7.745170">
        <ele>328.055003</ele>
        <time>2021-11-20T18:25:26.132Z</time>
      </trkpt>
      <trkpt lat="47.477909" lon="7.745102">
        <ele>327.925909</ele>
        <time>2021-11-20T18:25:26.604Z</time>
      </trkpt>
      <trkpt lat="47.478002" lon="7.744565">
        <ele>326.913248</ele>
        <time>2021-11-20T18:25:30.469Z</time>
      </trkpt>
      <trkpt lat="47.478055" lon="7.744302">
        <ele>326.411910</ele>
        <time>2021-11-20T18:25:32.497Z</time>
      </trkpt>
      <trkpt lat="47.478062" lon="7.744180">
        <ele>326.188244</ele>
        <time>2021-11-20T18:25:33.379Z</time>
      </trkpt>
      <trkpt lat="47.478089" lon="7.744093">
        <ele>326.013363</ele>
        <time>2021-11-20T18:25:34.098Z</time>
      </trkpt>
      <trkpt lat="47.478130" lon="7.743970">
        <ele>325.762832</ele>
        <time>2021-11-20T18:25:35.124Z</time>
      </trkpt>
      <trkpt lat="47.478238" lon="7.743706">
        <ele>325.199109</ele>
        <time>2021-11-20T18:25:37.372Z</time>
      </trkpt>
      <trkpt lat="47.478402" lon="7.743393">
        <ele>324.969258</ele>
        <time>2021-11-20T18:25:40.394Z</time>
      </trkpt>
      <trkpt lat="47.478481" lon="7.743277">
        <ele>324.884996</ele>
        <time>2021-11-20T18:25:41.658Z</time>
      </trkpt>
      <trkpt lat="47.478673" lon="7.743018">
        <ele>324.688294</ele>
        <time>2021-11-20T18:25:44.720Z</time>
      </trkpt>
      <trkpt lat="47.478747" lon="7.742916">
        <ele>324.611726</ele>
        <time>2021-11-20T18:25:45.895Z</time>
      </trkpt>
      <trkpt lat="47.478848" lon="7.742778">
        <ele>324.507645</ele>
        <time>2021-11-20T18:25:47.556Z</time>
      </trkpt>
      <trkpt lat="47.478895" lon="7.742714">
        <ele>324.459287</ele>
        <time>2021-11-20T18:25:48.322Z</time>
      </trkpt>
      <trkpt lat="47.478949" lon="7.742644">
        <ele>324.404935</ele>
        <time>2021-11-20T18:25:49.213Z</time>
      </trkpt>
      <trkpt lat="47.479105" lon="7.742414">
        <ele>324.238206</ele>
        <time>2021-11-20T18:25:51.996Z</time>
      </trkpt>
      <trkpt lat="47.479130" lon="7.742380">
        <ele>324.212499</ele>
        <time>2021-11-20T18:25:52.393Z</time>
      </trkpt>
      <trkpt lat="47.479629" lon="7.741696">
        <ele>324.021625</ele>
        <time>2021-11-20T18:26:03.629Z</time>
      </trkpt>
      <trkpt lat="47.479843" lon="7.741440">
        <ele>324.474654</ele>
        <time>2021-11-20T18:26:08.529Z</time>
      </trkpt>
      <trkpt lat="47.479963" lon="7.741350">
        <ele>324.696130</ele>
        <time>2021-11-20T18:26:11.875Z</time>
      </trkpt>
      <trkpt lat="47.480104" lon="7.741241">
        <ele>324.958019</ele>
        <time>2021-11-20T18:26:14.616Z</time>
      </trkpt>
      <trkpt lat="47.480294" lon="7.741119">
        <ele>325.298984</ele>
        <time>2021-11-20T18:26:19.469Z</time>
      </trkpt>
      <trkpt lat="47.480539" lon="7.740961">
        <ele>325.738954</ele>
        <time>2021-11-20T18:26:24.888Z</time>
      </trkpt>
      <trkpt lat="47.480591" lon="7.740959">
        <ele>325.824586</ele>
        <time>2021-11-20T18:26:26.692Z</time>
      </trkpt>
      <trkpt lat="47.480603" lon="7.740901">
        <ele>325.892072</ele>
        <time>2021-11-20T18:26:27.796Z</time>
      </trkpt>
      <trkpt lat="47.480676" lon="7.740778">
        <ele>326.074196</ele>
        <time>2021-11-20T18:26:29.809Z</time>
      </trkpt>
      <trkpt lat="47.480792" lon="7.740633">
        <ele>326.324180</ele>
        <time>2021-11-20T18:26:32.940Z</time>
      </trkpt>
      <trkpt lat="47.480807" lon="7.740612">
        <ele>326.358175</ele>
        <time>2021-11-20T18:26:34.057Z</time>
      </trkpt>
      <trkpt lat="47.481331" lon="7.739747">
        <ele>328.080155</ele>
        <time>2021-11-20T18:26:53.738Z</time>
      </trkpt>
      <trkpt lat="47.481583" lon="7.739332">
        <ele>329.000473</ele>
        <time>2021-11-20T18:27:03.924Z</time>
      </trkpt>
      <trkpt lat="47.481699" lon="7.739130">
        <ele>329.437737</ele>
        <time>2021-11-20T18:27:08.229Z</time>
      </trkpt>
      <trkpt lat="47.481926" lon="7.738747">
        <ele>330.278064</ele>
        <time>2021-11-20T18:27:17.391Z</time>
      </trkpt>
      <trkpt lat="47.482019" lon="7.738588">
        <ele>330.624935</ele>
        <time>2021-11-20T18:27:20.778Z</time>
      </trkpt>
      <trkpt lat="47.482167" lon="7.738311">
        <ele>331.153872</ele>
        <time>2021-11-20T18:27:26.053Z</time>
      </trkpt>
      <trkpt lat="47.482267" lon="7.738104">
        <ele>331.176768</ele>
        <time>2021-11-20T18:27:29.963Z</time>
      </trkpt>
      <trkpt lat="47.482290" lon="7.738037">
        <ele>331.183530</ele>
        <time>2021-11-20T18:27:31.249Z</time>
      </trkpt>
      <trkpt lat="47.482367" lon="7.737832">
        <ele>331.204635</ele>
        <time>2021-11-20T18:27:34.113Z</time>
      </trkpt>
      <trkpt lat="47.482451" lon="7.737574">
        <ele>331.230404</ele>
        <time>2021-11-20T18:27:38.017Z</time>
      </trkpt>
      <trkpt lat="47.482503" lon="7.737397">
        <ele>331.247771</ele>
        <time>2021-11-20T18:27:39.726Z</time>
      </trkpt>
      <trkpt lat="47.482585" lon="7.737017">
        <ele>331.283665</ele>
        <time>2021-11-20T18:27:44.181Z</time>
      </trkpt>
      <trkpt lat="47.482656" lon="7.736597">
        <ele>331.322623</ele>
        <time>2021-11-20T18:27:48.180Z</time>
      </trkpt>
      <trkpt lat="47.482729" lon="7.735959">
        <ele>331.380849</ele>
        <time>2021-11-20T18:27:53.461Z</time>
      </trkpt>
      <trkpt lat="47.482759" lon="7.735794">
        <ele>331.252214</ele>
        <time>2021-11-20T18:27:54.809Z</time>
      </trkpt>
      <trkpt lat="47.482798" lon="7.735712">
        <ele>331.043070</ele>
        <time>2021-11-20T18:27:55.529Z</time>
      </trkpt>
      <trkpt lat="47.482843" lon="7.735675">
        <ele>330.884183</ele>
        <time>2021-11-20T18:27:56.109Z</time>
      </trkpt>
      <trkpt lat="47.482931" lon="7.735630">
        <ele>330.596823</ele>
        <time>2021-11-20T18:27:57.226Z</time>
      </trkpt>
      <trkpt lat="47.482953" lon="7.735671">
        <ele>330.487628</ele>
        <time>2021-11-20T18:27:57.730Z</time>
      </trkpt>
      <trkpt lat="47.483064" lon="7.735914">
        <ele>329.875862</ele>
        <time>2021-11-20T18:28:00.832Z</time>
      </trkpt>
      <trkpt lat="47.483095" lon="7.735982">
        <ele>329.704776</ele>
        <time>2021-11-20T18:28:01.693Z</time>
      </trkpt>
      <trkpt lat="47.483352" lon="7.736146">
        <ele>328.840968</ele>
        <time>2021-11-20T18:28:05.967Z</time>
      </trkpt>
      <trkpt lat="47.483356" lon="7.736149">
        <ele>328.827127</ele>
        <time>2021-11-20T18:28:06.018Z</time>
      </trkpt>
      <trkpt lat="47.483599" lon="7.736235">
        <ele>328.055991</ele>
        <time>2021-11-20T18:28:09.673Z</time>
      </trkpt>
      <trkpt lat="47.483778" lon="7.736282">
        <ele>327.494904</ele>
        <time>2021-11-20T18:28:12.276Z</time>
      </trkpt>
      <trkpt lat="47.483917" lon="7.736315">
        <ele>327.060415</ele>
        <time>2021-11-20T18:28:14.262Z</time>
      </trkpt>
      <trkpt lat="47.484114" lon="7.736364">
        <ele>326.443874</ele>
        <time>2021-11-20T18:28:16.202Z</time>
      </trkpt>
      <trkpt lat="47.484515" lon="7.736477">
        <ele>324.832274</ele>
        <time>2021-11-20T18:28:20.069Z</time>
      </trkpt>
      <trkpt lat="47.484700" lon="7.736511">
        <ele>323.947955</ele>
        <time>2021-11-20T18:28:21.819Z</time>
      </trkpt>
      <trkpt lat="47.484870" lon="7.736533">
        <ele>323.138455</ele>
        <time>2021-11-20T18:28:23.393Z</time>
      </trkpt>
      <trkpt lat="47.484905" lon="7.736536">
        <ele>322.972149</ele>
        <time>2021-11-20T18:28:23.738Z</time>
      </trkpt>
      <trkpt lat="47.485005" lon="7.736543">
        <ele>322.497252</ele>
        <time>2021-11-20T18:28:24.690Z</time>
      </trkpt>
      <trkpt lat="47.485052" lon="7.736552">
        <ele>322.272442</ele>
        <time>2021-11-20T18:28:25.138Z</time>
      </trkpt>
      <trkpt lat="47.485143" lon="7.736599">
        <ele>321.815231</ele>
        <time>2021-11-20T18:28:26.009Z</time>
      </trkpt>
      <trkpt lat="47.485182" lon="7.736627">
        <ele>321.609603</ele>
        <time>2021-11-20T18:28:26.415Z</time>
      </trkpt>
      <trkpt lat="47.485212" lon="7.736657">
        <ele>321.437845</ele>
        <time>2021-11-20T18:28:26.778Z</time>
      </trkpt>
      <trkpt lat="47.485357" lon="7.736813">
        <ele>320.587437</ele>
        <time>2021-11-20T18:28:28.501Z</time>
      </trkpt>
      <trkpt lat="47.485412" lon="7.736871">
        <ele>320.267064</ele>
        <time>2021-11-20T18:28:29.105Z</time>
      </trkpt>
      <trkpt lat="47.485482" lon="7.736917">
        <ele>319.903738</ele>
        <time>2021-11-20T18:28:29.836Z</time>
      </trkpt>
      <trkpt lat="47.485564" lon="7.736965">
        <ele>319.485430</ele>
        <time>2021-11-20T18:28:30.693Z</time>
      </trkpt>
      <trkpt lat="47.485679" lon="7.737020">
        <ele>318.912125</ele>
        <time>2021-11-20T18:28:31.865Z</time>
      </trkpt>
      <trkpt lat="47.485750" lon="7.737070">
        <ele>318.539132</ele>
        <time>2021-11-20T18:28:32.579Z</time>
      </trkpt>
      <trkpt lat="47.485806" lon="7.737111">
        <ele>318.242751</ele>
        <time>2021-11-20T18:28:33.173Z</time>
      </trkpt>
      <trkpt lat="47.485875" lon="7.737156">
        <ele>317.885061</ele>
        <time>2021-11-20T18:28:33.939Z</time>
      </trkpt>
      <trkpt lat="47.485976" lon="7.737217">
        <ele>317.367583</ele>
        <time>2021-11-20T18:28:34.994Z</time>
      </trkpt>
      <trkpt lat="47.486087" lon="7.737329">
        <ele>317.059801</ele>
        <time>2021-11-20T18:28:36.271Z</time>
      </trkpt>
      <trkpt lat="47.486287" lon="7.737642">
        <ele>316.468085</ele>
        <time>2021-11-20T18:28:39.137Z</time>
      </trkpt>
      <trkpt lat="47.486314" lon="7.737686">
        <ele>316.386445</ele>
        <time>2021-11-20T18:28:39.509Z</time>
      </trkpt>
      <trkpt lat="47.486354" lon="7.737753">
        <ele>316.263640</ele>
        <time>2021-11-20T18:28:40.108Z</time>
      </trkpt>
      <trkpt lat="47.486384" lon="7.737805">
        <ele>316.169721</ele>
        <time>2021-11-20T18:28:40.629Z</time>
      </trkpt>
      <trkpt lat="47.486495" lon="7.737981">
        <ele>315.839032</ele>
        <time>2021-11-20T18:28:42.434Z</time>
      </trkpt>
      <trkpt lat="47.486621" lon="7.738169">
        <ele>315.475321</ele>
        <time>2021-11-20T18:28:44.244Z</time>
      </trkpt>
      <trkpt lat="47.486676" lon="7.738293">
        <ele>315.271579</ele>
        <time>2021-11-20T18:28:45.670Z</time>
      </trkpt>
      <trkpt lat="47.486689" lon="7.738358">
        <ele>315.178466</ele>
        <time>2021-11-20T18:28:46.154Z</time>
      </trkpt>
      <trkpt lat="47.486827" lon="7.738319">
        <ele>314.892884</ele>
        <time>2021-11-20T18:28:47.643Z</time>
      </trkpt>
      <trkpt lat="47.487288" lon="7.738117">
        <ele>313.915595</ele>
        <time>2021-11-20T18:28:54.130Z</time>
      </trkpt>
      <trkpt lat="47.487552" lon="7.737858">
        <ele>313.652123</ele>
        <time>2021-11-20T18:28:59.067Z</time>
      </trkpt>
      <trkpt lat="47.487621" lon="7.737779">
        <ele>313.652751</ele>
        <time>2021-11-20T18:29:01.065Z</time>
      </trkpt>
      <trkpt lat="47.487864" lon="7.737500">
        <ele>313.654965</ele>
        <time>2021-11-20T18:29:06.400Z</time>
      </trkpt>
      <trkpt lat="47.488046" lon="7.737266">
        <ele>313.656701</ele>
        <time>2021-11-20T18:29:10.909Z</time>
      </trkpt>
      <trkpt lat="47.488606" lon="7.735964">
        <ele>313.564234</ele>
        <time>2021-11-20T18:29:25.910Z</time>
      </trkpt>
      <trkpt lat="47.488804" lon="7.735382">
        <ele>312.906834</ele>
        <time>2021-11-20T18:29:31.069Z</time>
      </trkpt>
      <trkpt lat="47.488949" lon="7.734979">
        <ele>312.446203</ele>
        <time>2021-11-20T18:29:34.634Z</time>
      </trkpt>
      <trkpt lat="47.489032" lon="7.734791">
        <ele>312.219636</ele>
        <time>2021-11-20T18:29:36.310Z</time>
      </trkpt>
      <trkpt lat="47.489918" lon="7.732395">
        <ele>309.255422</ele>
        <time>2021-11-20T18:29:56.714Z</time>
      </trkpt>
      <trkpt lat="47.489972" lon="7.732312">
        <ele>309.123164</ele>
        <time>2021-11-20T18:29:57.528Z</time>
      </trkpt>
      <trkpt lat="47.491123" lon="7.730521">
        <ele>306.722619</ele>
        <time>2021-11-20T18:30:17.217Z</time>
      </trkpt>
      <trkpt lat="47.491189" lon="7.730425">
        <ele>306.607350</ele>
        <time>2021-11-20T18:30:18.374Z</time>
      </trkpt>
      <trkpt lat="47.491229" lon="7.730369">
        <ele>306.538764</ele>
        <time>2021-11-20T18:30:19.062Z</time>
      </trkpt>
      <trkpt lat="47.491274" lon="7.730304">
        <ele>306.460439</ele>
        <time>2021-11-20T18:30:19.848Z</time>
      </trkpt>
      <trkpt lat="47.491352" lon="7.730195">
        <ele>306.326813</ele>
        <time>2021-11-20T18:30:21.073Z</time>
      </trkpt>
      <trkpt lat="47.491749" lon="7.729641">
        <ele>305.650591</ele>
        <time>2021-11-20T18:30:27.631Z</time>
      </trkpt>
      <trkpt lat="47.491764" lon="7.729620">
        <ele>305.627386</ele>
        <time>2021-11-20T18:30:27.823Z</time>
      </trkpt>
      <trkpt lat="47.492018" lon="7.729265">
        <ele>305.234754</ele>
        <time>2021-11-20T18:30:32.014Z</time>
      </trkpt>
      <trkpt lat="47.492160" lon="7.729079">
        <ele>305.021640</ele>
        <time>2021-11-20T18:30:34.189Z</time>
      </trkpt>
      <trkpt lat="47.492253" lon="7.728955">
        <ele>304.880961</ele>
        <time>2021-11-20T18:30:35.729Z</time>
      </trkpt>
      <trkpt lat="47.492640" lon="7.728394">
        <ele>304.272154</ele>
        <time>2021-11-20T18:30:42.231Z</time>
      </trkpt>
      <trkpt lat="47.493051" lon="7.727844">
        <ele>303.655598</ele>
        <time>2021-11-20T18:30:48.975Z</time>
      </trkpt>
      <trkpt lat="47.493304" lon="7.727627">
        <ele>303.502126</ele>
        <time>2021-11-20T18:30:52.547Z</time>
      </trkpt>
      <trkpt lat="47.493736" lon="7.727441">
        <ele>303.265994</ele>
        <time>2021-11-20T18:30:58.343Z</time>
      </trkpt>
      <trkpt lat="47.493928" lon="7.727382">
        <ele>303.163075</ele>
        <time>2021-11-20T18:31:00.923Z</time>
      </trkpt>
      <trkpt lat="47.495388" lon="7.727405">
        <ele>302.409358</ele>
        <time>2021-11-20T18:31:21.482Z</time>
      </trkpt>
      <trkpt lat="47.495736" lon="7.727409">
        <ele>302.233892</ele>
        <time>2021-11-20T18:31:26.088Z</time>
      </trkpt>
      <trkpt lat="47.495777" lon="7.727410">
        <ele>302.213217</ele>
        <time>2021-11-20T18:31:26.639Z</time>
      </trkpt>
      <trkpt lat="47.495921" lon="7.727411">
        <ele>302.140612</ele>
        <time>2021-11-20T18:31:28.454Z</time>
      </trkpt>
      <trkpt lat="47.496039" lon="7.727411">
        <ele>302.081116</ele>
        <time>2021-11-20T18:31:30.022Z</time>
      </trkpt>
      <trkpt lat="47.496162" lon="7.727414">
        <ele>302.019092</ele>
        <time>2021-11-20T18:31:31.612Z</time>
      </trkpt>
      <trkpt lat="47.496367" lon="7.727420">
        <ele>301.915711</ele>
        <time>2021-11-20T18:31:34.201Z</time>
      </trkpt>
      <trkpt lat="47.496689" lon="7.727441">
        <ele>301.738423</ele>
        <time>2021-11-20T18:31:38.243Z</time>
      </trkpt>
      <trkpt lat="47.498171" lon="7.727736">
        <ele>300.788743</ele>
        <time>2021-11-20T18:31:57.371Z</time>
      </trkpt>
      <trkpt lat="47.499222" lon="7.727694">
        <ele>300.283874</ele>
        <time>2021-11-20T18:32:11.734Z</time>
      </trkpt>
      <trkpt lat="47.500808" lon="7.727366">
        <ele>298.912743</ele>
        <time>2021-11-20T18:32:33.221Z</time>
      </trkpt>
      <trkpt lat="47.501683" lon="7.727114">
        <ele>297.632883</ele>
        <time>2021-11-20T18:32:42.954Z</time>
      </trkpt>
      <trkpt lat="47.502070" lon="7.727002">
        <ele>297.074226</ele>
        <time>2021-11-20T18:32:47.257Z</time>
      </trkpt>
      <trkpt lat="47.502089" lon="7.726997">
        <ele>297.047479</ele>
        <time>2021-11-20T18:32:47.481Z</time>
      </trkpt>
      <trkpt lat="47.502204" lon="7.726964">
        <ele>296.885121</ele>
        <time>2021-11-20T18:32:48.795Z</time>
      </trkpt>
      <trkpt lat="47.502204" lon="7.726964">
        <ele>296.885121</ele>
        <time>2021-11-20T18:32:49.005Z</time>
      </trkpt>
      <trkpt lat="47.502204" lon="7.726964">
        <ele>296.885121</ele>
        <time>2021-11-20T18:32:49.086Z</time>
      </trkpt>
      <trkpt lat="47.502189" lon="7.726824">
        <ele>296.752396</ele>
        <time>2021-11-20T18:32:50.065Z</time>
      </trkpt>
      <trkpt lat="47.502177" lon="7.726706">
        <ele>296.640665</ele>
        <time>2021-11-20T18:32:51.049Z</time>
      </trkpt>
      <trkpt lat="47.502122" lon="7.726303">
        <ele>296.255700</ele>
        <time>2021-11-20T18:32:54.091Z</time>
      </trkpt>
      <trkpt lat="47.502115" lon="7.726246">
        <ele>296.201454</ele>
        <time>2021-11-20T18:32:54.763Z</time>
      </trkpt>
      <trkpt lat="47.502048" lon="7.725782">
        <ele>295.757182</ele>
        <time>2021-11-20T18:32:58.365Z</time>
      </trkpt>
      <trkpt lat="47.502031" lon="7.725427">
        <ele>295.423949</ele>
        <time>2021-11-20T18:33:01.421Z</time>
      </trkpt>
      <trkpt lat="47.502031" lon="7.725298">
        <ele>295.303162</ele>
        <time>2021-11-20T18:33:02.376Z</time>
      </trkpt>
      <trkpt lat="47.502029" lon="7.725074">
        <ele>295.093405</ele>
        <time>2021-11-20T18:33:04.296Z</time>
      </trkpt>
      <trkpt lat="47.502040" lon="7.724902">
        <ele>294.931635</ele>
        <time>2021-11-20T18:33:05.899Z</time>
      </trkpt>
      <trkpt lat="47.502055" lon="7.724669">
        <ele>294.785489</ele>
        <time>2021-11-20T18:33:07.810Z</time>
      </trkpt>
      <trkpt lat="47.502172" lon="7.724685">
        <ele>294.775299</ele>
        <time>2021-11-20T18:33:09.901Z</time>
      </trkpt>
      <trkpt lat="47.502179" lon="7.724686">
        <ele>294.774689</ele>
        <time>2021-11-20T18:33:10.035Z</time>
      </trkpt>
      <trkpt lat="47.502205" lon="7.724690">
        <ele>294.772422</ele>
        <time>2021-11-20T18:33:10.509Z</time>
      </trkpt>
      <trkpt lat="47.502283" lon="7.724703">
        <ele>294.765614</ele>
        <time>2021-11-20T18:33:12.021Z</time>
      </trkpt>
      <trkpt lat="47.502584" lon="7.724671">
        <ele>294.739441</ele>
        <time>2021-11-20T18:33:18.580Z</time>
      </trkpt>
      <trkpt lat="47.502584" lon="7.724671">
        <ele>294.739441</ele>
        <time>2021-11-20T18:33:18.611Z</time>
      </trkpt>
      <trkpt lat="47.502794" lon="7.724635">
        <ele>294.721107</ele>
        <time>2021-11-20T18:33:23.332Z</time>
      </trkpt>
      <trkpt lat="47.503201" lon="7.724541">
        <ele>294.685381</ele>
        <time>2021-11-20T18:33:32.810Z</time>
      </trkpt>
      <trkpt lat="47.503333" lon="7.724502">
        <ele>294.673707</ele>
        <time>2021-11-20T18:33:35.760Z</time>
      </trkpt>
      <trkpt lat="47.503457" lon="7.724469">
        <ele>294.662780</ele>
        <time>2021-11-20T18:33:38.333Z</time>
      </trkpt>
      <trkpt lat="47.503494" lon="7.724462">
        <ele>294.659545</ele>
        <time>2021-11-20T18:33:39.128Z</time>
      </trkpt>
      <trkpt lat="47.503945" lon="7.724377">
        <ele>294.378291</ele>
        <time>2021-11-20T18:33:47.374Z</time>
      </trkpt>
      <trkpt lat="47.504048" lon="7.724357">
        <ele>294.216427</ele>
        <time>2021-11-20T18:33:49.116Z</time>
      </trkpt>
      <trkpt lat="47.504396" lon="7.724291">
        <ele>293.669763</ele>
        <time>2021-11-20T18:33:55.005Z</time>
      </trkpt>
      <trkpt lat="47.504514" lon="7.724269">
        <ele>293.484450</ele>
        <time>2021-11-20T18:33:57.024Z</time>
      </trkpt>
      <trkpt lat="47.504610" lon="7.724250">
        <ele>293.333537</ele>
        <time>2021-11-20T18:33:58.688Z</time>
      </trkpt>
      <trkpt lat="47.504856" lon="7.724220">
        <ele>292.948936</ele>
        <time>2021-11-20T18:34:02.599Z</time>
      </trkpt>
      <trkpt lat="47.505012" lon="7.724231">
        <ele>292.705591</ele>
        <time>2021-11-20T18:34:05.154Z</time>
      </trkpt>
      <trkpt lat="47.505073" lon="7.724246">
        <ele>292.609242</ele>
        <time>2021-11-20T18:34:06.046Z</time>
      </trkpt>
      <trkpt lat="47.505161" lon="7.724267">
        <ele>292.470356</ele>
        <time>2021-11-20T18:34:07.465Z</time>
      </trkpt>
      <trkpt lat="47.505365" lon="7.724317">
        <ele>292.148168</ele>
        <time>2021-11-20T18:34:10.819Z</time>
      </trkpt>
      <trkpt lat="47.505646" lon="7.724350">
        <ele>291.661415</ele>
        <time>2021-11-20T18:34:15.118Z</time>
      </trkpt>
      <trkpt lat="47.505783" lon="7.724344">
        <ele>291.365233</ele>
        <time>2021-11-20T18:34:17.152Z</time>
      </trkpt>
      <trkpt lat="47.505851" lon="7.724341">
        <ele>291.218221</ele>
        <time>2021-11-20T18:34:18.234Z</time>
      </trkpt>
      <trkpt lat="47.505891" lon="7.724339">
        <ele>291.131733</ele>
        <time>2021-11-20T18:34:18.830Z</time>
      </trkpt>
      <trkpt lat="47.505930" lon="7.724337">
        <ele>291.047405</ele>
        <time>2021-11-20T18:34:19.432Z</time>
      </trkpt>
      <trkpt lat="47.506453" lon="7.724284">
        <ele>289.914571</ele>
        <time>2021-11-20T18:34:27.401Z</time>
      </trkpt>
      <trkpt lat="47.506607" lon="7.724268">
        <ele>289.580963</ele>
        <time>2021-11-20T18:34:29.718Z</time>
      </trkpt>
      <trkpt lat="47.506921" lon="7.724257">
        <ele>288.902228</ele>
        <time>2021-11-20T18:34:34.715Z</time>
      </trkpt>
      <trkpt lat="47.506945" lon="7.724261">
        <ele>288.850037</ele>
        <time>2021-11-20T18:34:35.094Z</time>
      </trkpt>
      <trkpt lat="47.507064" lon="7.724278">
        <ele>288.591687</ele>
        <time>2021-11-20T18:34:36.971Z</time>
      </trkpt>
      <trkpt lat="47.507444" lon="7.724343">
        <ele>287.836243</ele>
        <time>2021-11-20T18:34:43.095Z</time>
      </trkpt>
      <trkpt lat="47.507810" lon="7.724326">
        <ele>287.357968</ele>
        <time>2021-11-20T18:34:49.077Z</time>
      </trkpt>
      <trkpt lat="47.508175" lon="7.724311">
        <ele>286.881050</ele>
        <time>2021-11-20T18:34:55.117Z</time>
      </trkpt>
      <trkpt lat="47.508425" lon="7.724317">
        <ele>286.554476</ele>
        <time>2021-11-20T18:34:59.342Z</time>
      </trkpt>
      <trkpt lat="47.508629" lon="7.724301">
        <ele>286.287654</ele>
        <time>2021-11-20T18:35:02.711Z</time>
      </trkpt>
      <trkpt lat="47.508823" lon="7.724215">
        <ele>286.023150</ele>
        <time>2021-11-20T18:35:05.193Z</time>
      </trkpt>
      <trkpt lat="47.509150" lon="7.724070">
        <ele>285.594255</ele>
        <time>2021-11-20T18:35:09.368Z</time>
      </trkpt>
      <trkpt lat="47.509672" lon="7.723906">
        <ele>285.537225</ele>
        <time>2021-11-20T18:35:16.291Z</time>
      </trkpt>
      <trkpt lat="47.509849" lon="7.723882">
        <ele>285.518230</ele>
        <time>2021-11-20T18:35:19.895Z</time>
      </trkpt>
      <trkpt lat="47.510349" lon="7.724011">
        <ele>285.463988</ele>
        <time>2021-11-20T18:35:30.863Z</time>
      </trkpt>
      <trkpt lat="47.510952" lon="7.724263">
        <ele>285.434352</ele>
        <time>2021-11-20T18:35:44.923Z</time>
      </trkpt>
      <trkpt lat="47.511606" lon="7.724590">
        <ele>285.783257</ele>
        <time>2021-11-20T18:35:57.393Z</time>
      </trkpt>
      <trkpt lat="47.511791" lon="7.724622">
        <ele>285.877401</ele>
        <time>2021-11-20T18:36:00.962Z</time>
      </trkpt>
      <trkpt lat="47.511979" lon="7.724618">
        <ele>285.972435</ele>
        <time>2021-11-20T18:36:04.804Z</time>
      </trkpt>
      <trkpt lat="47.512214" lon="7.724543">
        <ele>286.093944</ele>
        <time>2021-11-20T18:36:10.872Z</time>
      </trkpt>
      <trkpt lat="47.512277" lon="7.724501">
        <ele>286.128867</ele>
        <time>2021-11-20T18:36:11.973Z</time>
      </trkpt>
      <trkpt lat="47.512857" lon="7.723931">
        <ele>286.733107</ele>
        <time>2021-11-20T18:36:32.729Z</time>
      </trkpt>
      <trkpt lat="47.512888" lon="7.724074">
        <ele>286.861368</ele>
        <time>2021-11-20T18:36:34.857Z</time>
      </trkpt>
      <trkpt lat="47.512910" lon="7.724174">
        <ele>286.951186</ele>
        <time>2021-11-20T18:36:36.784Z</time>
      </trkpt>
      <trkpt lat="47.512976" lon="7.724418">
        <ele>287.175656</ele>
        <time>2021-11-20T18:36:40.358Z</time>
      </trkpt>
      <trkpt lat="47.513078" lon="7.724821">
        <ele>287.543196</ele>
        <time>2021-11-20T18:36:46.200Z</time>
      </trkpt>
      <trkpt lat="47.513150" lon="7.725105">
        <ele>287.802260</ele>
        <time>2021-11-20T18:36:48.594Z</time>
      </trkpt>
      <trkpt lat="47.513193" lon="7.725244">
        <ele>287.932827</ele>
        <time>2021-11-20T18:36:51.477Z</time>
      </trkpt>
      <trkpt lat="47.513232" lon="7.725318">
        <ele>288.012987</ele>
        <time>2021-11-20T18:36:52.697Z</time>
      </trkpt>
      <trkpt lat="47.513538" lon="7.725582">
        <ele>288.460796</ele>
        <time>2021-11-20T18:36:59.790Z</time>
      </trkpt>
      <trkpt lat="47.513681" lon="7.725617">
        <ele>288.549786</ele>
        <time>2021-11-20T18:37:02.265Z</time>
      </trkpt>
      <trkpt lat="47.514053" lon="7.725553">
        <ele>288.242299</ele>
        <time>2021-11-20T18:37:09.985Z</time>
      </trkpt>
      <trkpt lat="47.514143" lon="7.725538">
        <ele>288.167937</ele>
        <time>2021-11-20T18:37:11.643Z</time>
      </trkpt>
      <trkpt lat="47.515140" lon="7.725368">
        <ele>287.343937</ele>
        <time>2021-11-20T18:37:23.647Z</time>
      </trkpt>
      <trkpt lat="47.515697" lon="7.725255">
        <ele>286.469444</ele>
        <time>2021-11-20T18:37:29.397Z</time>
      </trkpt>
      <trkpt lat="47.515959" lon="7.725102">
        <ele>285.819037</ele>
        <time>2021-11-20T18:37:32.380Z</time>
      </trkpt>
      <trkpt lat="47.516416" lon="7.724623">
        <ele>284.525999</ele>
        <time>2021-11-20T18:37:38.337Z</time>
      </trkpt>
      <trkpt lat="47.517269" lon="7.723372">
        <ele>282.122850</ele>
        <time>2021-11-20T18:37:51.400Z</time>
      </trkpt>
      <trkpt lat="47.517885" lon="7.722793">
        <ele>280.955335</ele>
        <time>2021-11-20T18:37:59.734Z</time>
      </trkpt>
      <trkpt lat="47.518038" lon="7.722700">
        <ele>280.690688</ele>
        <time>2021-11-20T18:38:01.614Z</time>
      </trkpt>
      <trkpt lat="47.518237" lon="7.722578">
        <ele>280.346045</ele>
        <time>2021-11-20T18:38:04.232Z</time>
      </trkpt>
      <trkpt lat="47.519305" lon="7.722165">
        <ele>279.744102</ele>
        <time>2021-11-20T18:38:17.832Z</time>
      </trkpt>
      <trkpt lat="47.520760" lon="7.721667">
        <ele>281.380345</ele>
        <time>2021-11-20T18:38:41.830Z</time>
      </trkpt>
      <trkpt lat="47.521121" lon="7.721544">
        <ele>282.521094</ele>
        <time>2021-11-20T18:38:51.271Z</time>
      </trkpt>
      <trkpt lat="47.521455" lon="7.721426">
        <ele>283.578517</ele>
        <time>2021-11-20T18:39:02.442Z</time>
      </trkpt>
      <trkpt lat="47.521722" lon="7.721283">
        <ele>284.452871</ele>
        <time>2021-11-20T18:39:12.041Z</time>
      </trkpt>
      <trkpt lat="47.521846" lon="7.721211">
        <ele>284.863036</ele>
        <time>2021-11-20T18:39:18.316Z</time>
      </trkpt>
      <trkpt lat="47.521984" lon="7.721168">
        <ele>285.637473</ele>
        <time>2021-11-20T18:39:23.070Z</time>
      </trkpt>
      <trkpt lat="47.522249" lon="7.721165">
        <ele>287.315721</ele>
        <time>2021-11-20T18:39:35.126Z</time>
      </trkpt>
      <trkpt lat="47.522498" lon="7.721207">
        <ele>288.902792</ele>
        <time>2021-11-20T18:39:45.763Z</time>
      </trkpt>
      <trkpt lat="47.522682" lon="7.721170">
        <ele>290.078727</ele>
        <time>2021-11-20T18:39:53.215Z</time>
      </trkpt>
      <trkpt lat="47.522888" lon="7.721170">
        <ele>291.383289</ele>
        <time>2021-11-20T18:40:02.948Z</time>
      </trkpt>
      <trkpt lat="47.523111" lon="7.721224">
        <ele>292.814266</ele>
        <time>2021-11-20T18:40:11.313Z</time>
      </trkpt>
      <trkpt lat="47.523300" lon="7.721328">
        <ele>294.091133</ele>
        <time>2021-11-20T18:40:20.637Z</time>
      </trkpt>
      <trkpt lat="47.523671" lon="7.721634">
        <ele>296.518229</ele>
        <time>2021-11-20T18:40:36.553Z</time>
      </trkpt>
      <trkpt lat="47.523902" lon="7.721670">
        <ele>297.058892</ele>
        <time>2021-11-20T18:40:45.369Z</time>
      </trkpt>
      <trkpt lat="47.524263" lon="7.721598">
        <ele>297.906770</ele>
        <time>2021-11-20T18:40:56.703Z</time>
      </trkpt>
      <trkpt lat="47.524632" lon="7.721805">
        <ele>298.825244</ele>
        <time>2021-11-20T18:41:06.075Z</time>
      </trkpt>
      <trkpt lat="47.524884" lon="7.722022">
        <ele>299.503778</ele>
        <time>2021-11-20T18:41:11.302Z</time>
      </trkpt>
      <trkpt lat="47.525258" lon="7.722384">
        <ele>300.543784</ele>
        <time>2021-11-20T18:41:17.456Z</time>
      </trkpt>
      <trkpt lat="47.525373" lon="7.722545">
        <ele>300.353885</ele>
        <time>2021-11-20T18:41:19.454Z</time>
      </trkpt>
      <trkpt lat="47.525704" lon="7.723008">
        <ele>299.768669</ele>
        <time>2021-11-20T18:41:24.791Z</time>
      </trkpt>
      <trkpt lat="47.525755" lon="7.723080">
        <ele>299.678104</ele>
        <time>2021-11-20T18:41:25.586Z</time>
      </trkpt>
      <trkpt lat="47.526099" lon="7.723563">
        <ele>299.068822</ele>
        <time>2021-11-20T18:41:30.873Z</time>
      </trkpt>
      <trkpt lat="47.526744" lon="7.724750">
        <ele>298.169339</ele>
        <time>2021-11-20T18:41:42.815Z</time>
      </trkpt>
      <trkpt lat="47.526894" lon="7.725042">
        <ele>298.123378</ele>
        <time>2021-11-20T18:41:45.847Z</time>
      </trkpt>
      <trkpt lat="47.527862" lon="7.727114">
        <ele>298.075534</ele>
        <time>2021-11-20T18:42:14.055Z</time>
      </trkpt>
      <trkpt lat="47.528009" lon="7.727429">
        <ele>298.157002</ele>
        <time>2021-11-20T18:42:18.932Z</time>
      </trkpt>
      <trkpt lat="47.528065" lon="7.727556">
        <ele>298.189273</ele>
        <time>2021-11-20T18:42:20.716Z</time>
      </trkpt>
      <trkpt lat="47.528164" lon="7.727824">
        <ele>298.254268</ele>
        <time>2021-11-20T18:42:24.279Z</time>
      </trkpt>
      <trkpt lat="47.528320" lon="7.728136">
        <ele>298.336866</ele>
        <time>2021-11-20T18:42:28.454Z</time>
      </trkpt>
      <trkpt lat="47.528408" lon="7.728307">
        <ele>298.382609</ele>
        <time>2021-11-20T18:42:30.588Z</time>
      </trkpt>
      <trkpt lat="47.528552" lon="7.728411">
        <ele>298.433090</ele>
        <time>2021-11-20T18:42:32.843Z</time>
      </trkpt>
      <trkpt lat="47.528614" lon="7.728431">
        <ele>298.453084</ele>
        <time>2021-11-20T18:42:33.745Z</time>
      </trkpt>
      <trkpt lat="47.528688" lon="7.728441">
        <ele>298.466749</ele>
        <time>2021-11-20T18:42:34.740Z</time>
      </trkpt>
      <trkpt lat="47.528715" lon="7.728334">
        <ele>298.405633</ele>
        <time>2021-11-20T18:42:35.746Z</time>
      </trkpt>
      <trkpt lat="47.528746" lon="7.728265">
        <ele>298.361290</ele>
        <time>2021-11-20T18:42:36.514Z</time>
      </trkpt>
      <trkpt lat="47.528803" lon="7.728159">
        <ele>298.288789</ele>
        <time>2021-11-20T18:42:37.747Z</time>
      </trkpt>
      <trkpt lat="47.528848" lon="7.728118">
        <ele>298.246924</ele>
        <time>2021-11-20T18:42:38.452Z</time>
      </trkpt>
      <trkpt lat="47.528941" lon="7.728048">
        <ele>298.164261</ele>
        <time>2021-11-20T18:42:39.801Z</time>
      </trkpt>
      <trkpt lat="47.529269" lon="7.727844">
        <ele>297.882370</ele>
        <time>2021-11-20T18:42:44.265Z</time>
      </trkpt>
      <trkpt lat="47.529976" lon="7.727410">
        <ele>297.275937</ele>
        <time>2021-11-20T18:42:53.554Z</time>
      </trkpt>
      <trkpt lat="47.530372" lon="7.727161">
        <ele>296.945172</ele>
        <time>2021-11-20T18:42:58.901Z</time>
      </trkpt>
      <trkpt lat="47.530756" lon="7.726844">
        <ele>296.627921</ele>
        <time>2021-11-20T18:43:04.288Z</time>
      </trkpt>
      <trkpt lat="47.531031" lon="7.726569">
        <ele>296.388469</ele>
        <time>2021-11-20T18:43:08.423Z</time>
      </trkpt>
      <trkpt lat="47.531193" lon="7.726888">
        <ele>296.193979</ele>
        <time>2021-11-20T18:43:11.821Z</time>
      </trkpt>
      <trkpt lat="47.531296" lon="7.727089">
        <ele>296.071031</ele>
        <time>2021-11-20T18:43:14.371Z</time>
      </trkpt>
      <trkpt lat="47.531623" lon="7.727725">
        <ele>295.719302</ele>
        <time>2021-11-20T18:43:21.430Z</time>
      </trkpt>
      <trkpt lat="47.531815" lon="7.728165">
        <ele>295.603801</ele>
        <time>2021-11-20T18:43:26.185Z</time>
      </trkpt>
      <trkpt lat="47.531944" lon="7.728603">
        <ele>295.498449</ele>
        <time>2021-11-20T18:43:30.556Z</time>
      </trkpt>
      <trkpt lat="47.532193" lon="7.730459">
        <ele>295.199367</ele>
        <time>2021-11-20T18:43:48.124Z</time>
      </trkpt>
      <trkpt lat="47.532405" lon="7.731493">
        <ele>295.304476</ele>
        <time>2021-11-20T18:44:00.081Z</time>
      </trkpt>
      <trkpt lat="47.532473" lon="7.731703">
        <ele>295.327130</ele>
        <time>2021-11-20T18:44:02.549Z</time>
      </trkpt>
      <trkpt lat="47.532665" lon="7.732105">
        <ele>295.375026</ele>
        <time>2021-11-20T18:44:08.033Z</time>
      </trkpt>
      <trkpt lat="47.532776" lon="7.732283">
        <ele>295.398594</ele>
        <time>2021-11-20T18:44:10.608Z</time>
      </trkpt>
      <trkpt lat="47.532853" lon="7.732416">
        <ele>295.415636</ele>
        <time>2021-11-20T18:44:12.525Z</time>
      </trkpt>
      <trkpt lat="47.532961" lon="7.732599">
        <ele>295.375776</ele>
        <time>2021-11-20T18:44:14.815Z</time>
      </trkpt>
      <trkpt lat="47.533220" lon="7.733022">
        <ele>295.223193</ele>
        <time>2021-11-20T18:44:20.350Z</time>
      </trkpt>
      <trkpt lat="47.533324" lon="7.733190">
        <ele>295.162290</ele>
        <time>2021-11-20T18:44:22.654Z</time>
      </trkpt>
      <trkpt lat="47.533436" lon="7.733399">
        <ele>295.090992</ele>
        <time>2021-11-20T18:44:24.999Z</time>
      </trkpt>
      <trkpt lat="47.533577" lon="7.733712">
        <ele>294.990451</ele>
        <time>2021-11-20T18:44:28.512Z</time>
      </trkpt>
      <trkpt lat="47.533685" lon="7.734026">
        <ele>294.896290</ele>
        <time>2021-11-20T18:44:31.624Z</time>
      </trkpt>
      <trkpt lat="47.533860" lon="7.734479">
        <ele>294.756835</ele>
        <time>2021-11-20T18:44:36.122Z</time>
      </trkpt>
      <trkpt lat="47.534301" lon="7.735625">
        <ele>294.257427</ele>
        <time>2021-11-20T18:44:46.946Z</time>
      </trkpt>
      <trkpt lat="47.534450" lon="7.736026">
        <ele>294.076415</ele>
        <time>2021-11-20T18:44:50.723Z</time>
      </trkpt>
      <trkpt lat="47.534588" lon="7.736412">
        <ele>293.903685</ele>
        <time>2021-11-20T18:44:54.437Z</time>
      </trkpt>
      <trkpt lat="47.534670" lon="7.736644">
        <ele>293.800126</ele>
        <time>2021-11-20T18:44:56.749Z</time>
      </trkpt>
      <trkpt lat="47.534765" lon="7.736911">
        <ele>293.680772</ele>
        <time>2021-11-20T18:44:59.416Z</time>
      </trkpt>
      <trkpt lat="47.535216" lon="7.738157">
        <ele>297.349687</ele>
        <time>2021-11-20T18:45:18.832Z</time>
      </trkpt>
      <trkpt lat="47.534755" lon="7.738529">
        <ele>299.471082</ele>
        <time>2021-11-20T18:45:39.050Z</time>
      </trkpt>
      <trkpt lat="47.534011" lon="7.739126">
        <ele>304.663098</ele>
        <time>2021-11-20T18:46:20.863Z</time>
      </trkpt>
      <trkpt lat="47.533446" lon="7.739598">
        <ele>309.648837</ele>
        <time>2021-11-20T18:46:52.783Z</time>
      </trkpt>
      <trkpt lat="47.533226" lon="7.739781">
        <ele>311.588186</ele>
        <time>2021-11-20T18:47:04.120Z</time>
      </trkpt>
      <trkpt lat="47.533191" lon="7.739816">
        <ele>311.912771</ele>
        <time>2021-11-20T18:47:07.371Z</time>
      </trkpt>
      <trkpt lat="47.533352" lon="7.740430">
        <ele>314.938033</ele>
        <time>2021-11-20T18:47:26.055Z</time>
      </trkpt>
      <trkpt lat="47.533707" lon="7.742025">
        <ele>317.762869</ele>
        <time>2021-11-20T18:47:58.339Z</time>
      </trkpt>
      <trkpt lat="47.533870" lon="7.743466">
        <ele>319.082141</ele>
        <time>2021-11-20T18:48:10.418Z</time>
      </trkpt>
      <trkpt lat="47.534043" lon="7.744207">
        <ele>318.884373</ele>
        <time>2021-11-20T18:48:17.501Z</time>
      </trkpt>
      <trkpt lat="47.534097" lon="7.744343">
        <ele>318.844576</ele>
        <time>2021-11-20T18:48:18.948Z</time>
      </trkpt>
      <trkpt lat="47.534179" lon="7.744495">
        <ele>318.795499</ele>
        <time>2021-11-20T18:48:20.828Z</time>
      </trkpt>
      <trkpt lat="47.534370" lon="7.744709">
        <ele>318.706025</ele>
        <time>2021-11-20T18:48:24.122Z</time>
      </trkpt>
      <trkpt lat="47.534429" lon="7.744856">
        <ele>318.662889</ele>
        <time>2021-11-20T18:48:25.884Z</time>
      </trkpt>
      <trkpt lat="47.534874" lon="7.746551">
        <ele>318.647051</ele>
        <time>2021-11-20T18:48:43.434Z</time>
      </trkpt>
      <trkpt lat="47.535912" lon="7.749669">
        <ele>319.249325</ele>
        <time>2021-11-20T18:49:21.774Z</time>
      </trkpt>
      <trkpt lat="47.537134" lon="7.752309">
        <ele>319.899709</ele>
        <time>2021-11-20T18:49:55.927Z</time>
      </trkpt>
      <trkpt lat="47.537371" lon="7.752851">
        <ele>320.675494</ele>
        <time>2021-11-20T18:50:02.576Z</time>
      </trkpt>
      <trkpt lat="47.537564" lon="7.753073">
        <ele>321.110329</ele>
        <time>2021-11-20T18:50:06.391Z</time>
      </trkpt>
      <trkpt lat="47.537715" lon="7.753194">
        <ele>321.415833</ele>
        <time>2021-11-20T18:50:10.235Z</time>
      </trkpt>
      <trkpt lat="47.538052" lon="7.753460">
        <ele>322.095351</ele>
        <time>2021-11-20T18:50:19.320Z</time>
      </trkpt>
      <trkpt lat="47.538359" lon="7.753900">
        <ele>322.855518</ele>
        <time>2021-11-20T18:50:30.551Z</time>
      </trkpt>
      <trkpt lat="47.538494" lon="7.754103">
        <ele>323.598750</ele>
        <time>2021-11-20T18:50:36.356Z</time>
      </trkpt>
      <trkpt lat="47.538723" lon="7.754445">
        <ele>325.304929</ele>
        <time>2021-11-20T18:50:46.549Z</time>
      </trkpt>
      <trkpt lat="47.538792" lon="7.754549">
        <ele>325.821416</ele>
        <time>2021-11-20T18:50:50.411Z</time>
      </trkpt>
      <trkpt lat="47.539079" lon="7.754976">
        <ele>327.955651</ele>
        <time>2021-11-20T18:51:06.109Z</time>
      </trkpt>
      <trkpt lat="47.539230" lon="7.755294">
        <ele>329.332732</ele>
        <time>2021-11-20T18:51:16.770Z</time>
      </trkpt>
      <trkpt lat="47.539346" lon="7.755736">
        <ele>331.012436</ele>
        <time>2021-11-20T18:51:30.060Z</time>
      </trkpt>
      <trkpt lat="47.539595" lon="7.757548">
        <ele>335.389010</ele>
        <time>2021-11-20T18:52:13.983Z</time>
      </trkpt>
      <trkpt lat="47.539722" lon="7.758107">
        <ele>336.593657</ele>
        <time>2021-11-20T18:52:22.990Z</time>
      </trkpt>
      <trkpt lat="47.539949" lon="7.758688">
        <ele>337.761435</ele>
        <time>2021-11-20T18:52:30.202Z</time>
      </trkpt>
      <trkpt lat="47.540447" lon="7.759585">
        <ele>334.995910</ele>
        <time>2021-11-20T18:52:38.726Z</time>
      </trkpt>
      <trkpt lat="47.540567" lon="7.759901">
        <ele>334.132558</ele>
        <time>2021-11-20T18:52:41.112Z</time>
      </trkpt>
      <trkpt lat="47.540921" lon="7.761599">
        <ele>327.558050</ele>
        <time>2021-11-20T18:52:52.235Z</time>
      </trkpt>
      <trkpt lat="47.541004" lon="7.762306">
        <ele>323.386520</ele>
        <time>2021-11-20T18:52:56.455Z</time>
      </trkpt>
      <trkpt lat="47.541023" lon="7.762922">
        <ele>319.801933</ele>
        <time>2021-11-20T18:53:00.039Z</time>
      </trkpt>
      <trkpt lat="47.541219" lon="7.763853">
        <ele>314.318303</ele>
        <time>2021-11-20T18:53:05.662Z</time>
      </trkpt>
      <trkpt lat="47.541334" lon="7.764020">
        <ele>313.066513</ele>
        <time>2021-11-20T18:53:07.129Z</time>
      </trkpt>
      <trkpt lat="47.541377" lon="7.764045">
        <ele>312.707448</ele>
        <time>2021-11-20T18:53:07.501Z</time>
      </trkpt>
      <trkpt lat="47.541364" lon="7.764150">
        <ele>312.147291</ele>
        <time>2021-11-20T18:53:08.113Z</time>
      </trkpt>
      <trkpt lat="47.541443" lon="7.764512">
        <ele>310.150976</ele>
        <time>2021-11-20T18:53:10.423Z</time>
      </trkpt>
      <trkpt lat="47.541552" lon="7.764869">
        <ele>308.094996</ele>
        <time>2021-11-20T18:53:12.717Z</time>
      </trkpt>
      <trkpt lat="47.541697" lon="7.765479">
        <ele>304.701512</ele>
        <time>2021-11-20T18:53:16.599Z</time>
      </trkpt>
      <trkpt lat="47.542317" lon="7.768533">
        <ele>296.094567</ele>
        <time>2021-11-20T18:53:38.073Z</time>
      </trkpt>
      <trkpt lat="47.542450" lon="7.769311">
        <ele>295.992181</ele>
        <time>2021-11-20T18:53:45.902Z</time>
      </trkpt>
      <trkpt lat="47.542720" lon="7.770771">
        <ele>295.799060</ele>
        <time>2021-11-20T18:54:02.563Z</time>
      </trkpt>
      <trkpt lat="47.542788" lon="7.771175">
        <ele>295.776425</ele>
        <time>2021-11-20T18:54:07.495Z</time>
      </trkpt>
      <trkpt lat="47.542826" lon="7.771397">
        <ele>295.825747</ele>
        <time>2021-11-20T18:54:10.138Z</time>
      </trkpt>
      <trkpt lat="47.543108" lon="7.773069">
        <ele>296.196886</ele>
        <time>2021-11-20T18:54:29.427Z</time>
      </trkpt>
      <trkpt lat="47.543145" lon="7.773277">
        <ele>296.243208</ele>
        <time>2021-11-20T18:54:31.569Z</time>
      </trkpt>
      <trkpt lat="47.543350" lon="7.774507">
        <ele>296.441887</ele>
        <time>2021-11-20T18:54:43.822Z</time>
      </trkpt>
      <trkpt lat="47.543402" lon="7.775016">
        <ele>296.508298</ele>
        <time>2021-11-20T18:54:48.852Z</time>
      </trkpt>
      <trkpt lat="47.543449" lon="7.775478">
        <ele>296.568571</ele>
        <time>2021-11-20T18:54:53.537Z</time>
      </trkpt>
      <trkpt lat="47.543482" lon="7.776095">
        <ele>296.648416</ele>
        <time>2021-11-20T18:55:00.245Z</time>
      </trkpt>
      <trkpt lat="47.543527" lon="7.776532">
        <ele>297.075597</ele>
        <time>2021-11-20T18:55:05.404Z</time>
      </trkpt>
      <trkpt lat="47.543707" lon="7.777394">
        <ele>298.599380</ele>
        <time>2021-11-20T18:55:17.691Z</time>
      </trkpt>
      <trkpt lat="47.543933" lon="7.778374">
        <ele>300.348286</ele>
        <time>2021-11-20T18:55:36.018Z</time>
      </trkpt>
      <trkpt lat="47.544100" lon="7.779438">
        <ele>303.611387</ele>
        <time>2021-11-20T18:56:00.218Z</time>
      </trkpt>
      <trkpt lat="47.544461" lon="7.782254">
        <ele>312.601709</ele>
        <time>2021-11-20T18:57:20.819Z</time>
      </trkpt>
      <trkpt lat="47.544469" lon="7.782455">
        <ele>312.766958</ele>
        <time>2021-11-20T18:57:25.853Z</time>
      </trkpt>
      <trkpt lat="47.544474" lon="7.782623">
        <ele>312.904971</ele>
        <time>2021-11-20T18:57:28.241Z</time>
      </trkpt>
      <trkpt lat="47.544490" lon="7.783060">
        <ele>313.264149</ele>
        <time>2021-11-20T18:57:32.132Z</time>
      </trkpt>
      <trkpt lat="47.544555" lon="7.783372">
        <ele>313.532129</ele>
        <time>2021-11-20T18:57:34.617Z</time>
      </trkpt>
      <trkpt lat="47.544627" lon="7.783499">
        <ele>313.668243</ele>
        <time>2021-11-20T18:57:36.014Z</time>
      </trkpt>
      <trkpt lat="47.544950" lon="7.784008">
        <ele>313.569778</ele>
        <time>2021-11-20T18:57:42.826Z</time>
      </trkpt>
      <trkpt lat="47.545054" lon="7.784227">
        <ele>312.489433</ele>
        <time>2021-11-20T18:57:45.398Z</time>
      </trkpt>
      <trkpt lat="47.545240" lon="7.784746">
        <ele>310.118626</ele>
        <time>2021-11-20T18:57:50.553Z</time>
      </trkpt>
      <trkpt lat="47.545250" lon="7.784778">
        <ele>309.976354</ele>
        <time>2021-11-20T18:57:50.827Z</time>
      </trkpt>
      <trkpt lat="47.545624" lon="7.785548">
        <ele>306.149010</ele>
        <time>2021-11-20T18:57:58.990Z</time>
      </trkpt>
      <trkpt lat="47.545672" lon="7.785654">
        <ele>305.634022</ele>
        <time>2021-11-20T18:57:59.999Z</time>
      </trkpt>
      <trkpt lat="47.545856" lon="7.785973">
        <ele>303.941093</ele>
        <time>2021-11-20T18:58:03.840Z</time>
      </trkpt>
      <trkpt lat="47.546102" lon="7.786217">
        <ele>302.933606</ele>
        <time>2021-11-20T18:58:07.825Z</time>
      </trkpt>
      <trkpt lat="47.546417" lon="7.786331">
        <ele>302.220410</ele>
        <time>2021-11-20T18:58:12.401Z</time>
      </trkpt>
      <trkpt lat="47.546464" lon="7.786335">
        <ele>302.116866</ele>
        <time>2021-11-20T18:58:13.163Z</time>
      </trkpt>
      <trkpt lat="47.546526" lon="7.786353">
        <ele>301.977907</ele>
        <time>2021-11-20T18:58:14.161Z</time>
      </trkpt>
      <trkpt lat="47.546913" lon="7.786470">
        <ele>301.109181</ele>
        <time>2021-11-20T18:58:20.320Z</time>
      </trkpt>
      <trkpt lat="47.546952" lon="7.786540">
        <ele>300.974431</ele>
        <time>2021-11-20T18:58:21.258Z</time>
      </trkpt>
      <trkpt lat="47.546959" lon="7.786598">
        <ele>300.886959</ele>
        <time>2021-11-20T18:58:21.959Z</time>
      </trkpt>
      <trkpt lat="47.546897" lon="7.787133">
        <ele>300.081082</ele>
        <time>2021-11-20T18:58:29.142Z</time>
      </trkpt>
      <trkpt lat="47.546791" lon="7.787988">
        <ele>299.591622</ele>
        <time>2021-11-20T18:58:41.513Z</time>
      </trkpt>
      <trkpt lat="47.546695" lon="7.788763">
        <ele>299.907595</ele>
        <time>2021-11-20T18:58:53.056Z</time>
      </trkpt>
      <trkpt lat="47.546673" lon="7.788921">
        <ele>299.972288</ele>
        <time>2021-11-20T18:58:55.671Z</time>
      </trkpt>
      <trkpt lat="47.546476" lon="7.790364">
        <ele>300.604712</ele>
        <time>2021-11-20T18:59:18.937Z</time>
      </trkpt>
      <trkpt lat="47.546253" lon="7.791998">
        <ele>301.659131</ele>
        <time>2021-11-20T18:59:47.931Z</time>
      </trkpt>
      <trkpt lat="47.546027" lon="7.793254">
        <ele>302.072633</ele>
        <time>2021-11-20T19:00:07.503Z</time>
      </trkpt>
      <trkpt lat="47.545969" lon="7.793663">
        <ele>301.984013</ele>
        <time>2021-11-20T19:00:12.648Z</time>
      </trkpt>
      <trkpt lat="47.545921" lon="7.794468">
        <ele>301.812653</ele>
        <time>2021-11-20T19:00:22.493Z</time>
      </trkpt>
      <trkpt lat="47.545947" lon="7.794710">
        <ele>301.760692</ele>
        <time>2021-11-20T19:00:25.326Z</time>
      </trkpt>
      <trkpt lat="47.546019" lon="7.795020">
        <ele>301.691176</ele>
        <time>2021-11-20T19:00:29.352Z</time>
      </trkpt>
      <trkpt lat="47.546165" lon="7.795511">
        <ele>301.602912</ele>
        <time>2021-11-20T19:00:36.265Z</time>
      </trkpt>
      <trkpt lat="47.546170" lon="7.795612">
        <ele>301.598134</ele>
        <time>2021-11-20T19:00:37.314Z</time>
      </trkpt>
      <trkpt lat="47.546154" lon="7.795747">
        <ele>301.591668</ele>
        <time>2021-11-20T19:00:39.146Z</time>
      </trkpt>
      <trkpt lat="47.546105" lon="7.795928">
        <ele>301.582467</ele>
        <time>2021-11-20T19:00:42.294Z</time>
      </trkpt>
      <trkpt lat="47.546038" lon="7.796107">
        <ele>301.572811</ele>
        <time>2021-11-20T19:00:44.608Z</time>
      </trkpt>
      <trkpt lat="47.545889" lon="7.796500">
        <ele>301.551545</ele>
        <time>2021-11-20T19:00:51.534Z</time>
      </trkpt>
      <trkpt lat="47.545788" lon="7.796748">
        <ele>301.537880</ele>
        <time>2021-11-20T19:00:55.231Z</time>
      </trkpt>
      <trkpt lat="47.545728" lon="7.796950">
        <ele>301.527468</ele>
        <time>2021-11-20T19:00:58.502Z</time>
      </trkpt>
      <trkpt lat="47.545689" lon="7.797076">
        <ele>301.520928</ele>
        <time>2021-11-20T19:00:59.948Z</time>
      </trkpt>
      <trkpt lat="47.545670" lon="7.797142">
        <ele>301.517543</ele>
        <time>2021-11-20T19:01:01.033Z</time>
      </trkpt>
      <trkpt lat="47.545645" lon="7.797258">
        <ele>301.511798</ele>
        <time>2021-11-20T19:01:02.881Z</time>
      </trkpt>
      <trkpt lat="47.545637" lon="7.797310">
        <ele>301.509282</ele>
        <time>2021-11-20T19:01:04.213Z</time>
      </trkpt>
      <trkpt lat="47.545558" lon="7.798144">
        <ele>301.445243</ele>
        <time>2021-11-20T19:01:15.399Z</time>
      </trkpt>
      <trkpt lat="47.545543" lon="7.798315">
        <ele>301.423878</ele>
        <time>2021-11-20T19:01:18.086Z</time>
      </trkpt>
      <trkpt lat="47.545511" lon="7.798680">
        <ele>301.378274</ele>
        <time>2021-11-20T19:01:23.471Z</time>
      </trkpt>
      <trkpt lat="47.545581" lon="7.798713">
        <ele>301.364791</ele>
        <time>2021-11-20T19:01:25.058Z</time>
      </trkpt>
      <trkpt lat="47.545731" lon="7.798810">
        <ele>301.334748</ele>
        <time>2021-11-20T19:01:29.041Z</time>
      </trkpt>
      <trkpt lat="47.545807" lon="7.798846">
        <ele>301.320102</ele>
        <time>2021-11-20T19:01:30.363Z</time>
      </trkpt>
      <trkpt lat="47.546418" lon="7.798980">
        <ele>301.206727</ele>
        <time>2021-11-20T19:01:42.462Z</time>
      </trkpt>
      <trkpt lat="47.547540" lon="7.799538">
        <ele>300.346571</ele>
        <time>2021-11-20T19:02:03.062Z</time>
      </trkpt>
      <trkpt lat="47.547912" lon="7.799646">
        <ele>300.005638</ele>
        <time>2021-11-20T19:02:09.875Z</time>
      </trkpt>
      <trkpt lat="47.548459" lon="7.799691">
        <ele>299.499679</ele>
        <time>2021-11-20T19:02:19.440Z</time>
      </trkpt>
      <trkpt lat="47.548535" lon="7.799720">
        <ele>299.389764</ele>
        <time>2021-11-20T19:02:20.821Z</time>
      </trkpt>
      <trkpt lat="47.548558" lon="7.799676">
        <ele>299.337154</ele>
        <time>2021-11-20T19:02:21.464Z</time>
      </trkpt>
      <trkpt lat="47.548723" lon="7.799641">
        <ele>299.103706</ele>
        <time>2021-11-20T19:02:24.209Z</time>
      </trkpt>
      <trkpt lat="47.548886" lon="7.799591">
        <ele>298.870573</ele>
        <time>2021-11-20T19:02:27.068Z</time>
      </trkpt>
      <trkpt lat="47.549049" lon="7.799531">
        <ele>298.635342</ele>
        <time>2021-11-20T19:02:29.847Z</time>
      </trkpt>
      <trkpt lat="47.549565" lon="7.799245">
        <ele>297.863739</ele>
        <time>2021-11-20T19:02:39.180Z</time>
      </trkpt>
      <trkpt lat="47.549825" lon="7.799101">
        <ele>297.474983</ele>
        <time>2021-11-20T19:02:43.776Z</time>
      </trkpt>
      <trkpt lat="47.550246" lon="7.798867">
        <ele>296.890730</ele>
        <time>2021-11-20T19:02:50.972Z</time>
      </trkpt>
      <trkpt lat="47.550689" lon="7.798621">
        <ele>296.403082</ele>
        <time>2021-11-20T19:02:58.198Z</time>
      </trkpt>
      <trkpt lat="47.551233" lon="7.798265">
        <ele>295.790085</ele>
        <time>2021-11-20T19:03:08.175Z</time>
      </trkpt>
      <trkpt lat="47.551580" lon="7.798075">
        <ele>295.408766</ele>
        <time>2021-11-20T19:03:15.263Z</time>
      </trkpt>
      <trkpt lat="47.551743" lon="7.798014">
        <ele>295.235475</ele>
        <time>2021-11-20T19:03:18.956Z</time>
      </trkpt>
      <trkpt lat="47.551884" lon="7.798008">
        <ele>295.233406</ele>
        <time>2021-11-20T19:03:21.911Z</time>
      </trkpt>
      <trkpt lat="47.551993" lon="7.798035">
        <ele>295.341562</ele>
        <time>2021-11-20T19:03:24.912Z</time>
      </trkpt>
      <trkpt lat="47.552023" lon="7.798051">
        <ele>295.372766</ele>
        <time>2021-11-20T19:03:25.620Z</time>
      </trkpt>
      <trkpt lat="47.552084" lon="7.798083">
        <ele>295.436096</ele>
        <time>2021-11-20T19:03:26.980Z</time>
      </trkpt>
      <trkpt lat="47.551948" lon="7.798607">
        <ele>295.806921</ele>
        <time>2021-11-20T19:03:33.367Z</time>
      </trkpt>
      <trkpt lat="47.551805" lon="7.799326">
        <ele>296.302031</ele>
        <time>2021-11-20T19:03:42.424Z</time>
      </trkpt>
      <trkpt lat="47.551793" lon="7.799434">
        <ele>296.374328</ele>
        <time>2021-11-20T19:03:44.167Z</time>
      </trkpt>
      <trkpt lat="47.551754" lon="7.799766">
        <ele>296.596920</ele>
        <time>2021-11-20T19:03:48.959Z</time>
      </trkpt>
      <trkpt lat="47.551712" lon="7.800249">
        <ele>296.918592</ele>
        <time>2021-11-20T19:03:56.506Z</time>
      </trkpt>
      <trkpt lat="47.551704" lon="7.800451">
        <ele>297.063721</ele>
        <time>2021-11-20T19:03:59.691Z</time>
      </trkpt>
      <trkpt lat="47.551672" lon="7.801147">
        <ele>297.565697</ele>
        <time>2021-11-20T19:04:08.714Z</time>
      </trkpt>
      <trkpt lat="47.551669" lon="7.801438">
        <ele>297.775114</ele>
        <time>2021-11-20T19:04:13.293Z</time>
      </trkpt>
      <trkpt lat="47.551666" lon="7.801632">
        <ele>297.914746</ele>
        <time>2021-11-20T19:04:15.306Z</time>
      </trkpt>
      <trkpt lat="47.551669" lon="7.801853">
        <ele>298.073801</ele>
        <time>2021-11-20T19:04:18.564Z</time>
      </trkpt>
      <trkpt lat="47.551671" lon="7.802077">
        <ele>298.234997</ele>
        <time>2021-11-20T19:04:20.881Z</time>
      </trkpt>
      <trkpt lat="47.551679" lon="7.802228">
        <ele>298.343985</ele>
        <time>2021-11-20T19:04:22.001Z</time>
      </trkpt>
      <trkpt lat="47.551688" lon="7.802394">
        <ele>298.463817</ele>
        <time>2021-11-20T19:04:24.957Z</time>
      </trkpt>
      <trkpt lat="47.551700" lon="7.802648">
        <ele>298.647033</ele>
        <time>2021-11-20T19:04:27.237Z</time>
      </trkpt>
      <trkpt lat="47.551732" lon="7.803125">
        <ele>298.976790</ele>
        <time>2021-11-20T19:04:33.388Z</time>
      </trkpt>
      <trkpt lat="47.551744" lon="7.803277">
        <ele>299.075811</ele>
        <time>2021-11-20T19:04:34.595Z</time>
      </trkpt>
      <trkpt lat="47.551751" lon="7.803369">
        <ele>299.135716</ele>
        <time>2021-11-20T19:04:36.270Z</time>
      </trkpt>
      <trkpt lat="47.551692" lon="7.803510">
        <ele>299.243060</ele>
        <time>2021-11-20T19:04:39.857Z</time>
      </trkpt>
      <trkpt lat="47.551741" lon="7.804294">
        <ele>299.752512</ele>
        <time>2021-11-20T19:04:52.455Z</time>
      </trkpt>
      <trkpt lat="47.551744" lon="7.804473">
        <ele>299.868368</ele>
        <time>2021-11-20T19:04:55.490Z</time>
      </trkpt>
      <trkpt lat="47.551731" lon="7.804667">
        <ele>299.994511</ele>
        <time>2021-11-20T19:04:59.590Z</time>
      </trkpt>
      <trkpt lat="47.551709" lon="7.805000">
        <ele>300.211006</ele>
        <time>2021-11-20T19:05:04.131Z</time>
      </trkpt>
      <trkpt lat="47.551681" lon="7.805477">
        <ele>300.520811</ele>
        <time>2021-11-20T19:05:11.877Z</time>
      </trkpt>
      <trkpt lat="47.551671" lon="7.806117">
        <ele>300.636076</ele>
        <time>2021-11-20T19:05:21.966Z</time>
      </trkpt>
      <trkpt lat="47.551651" lon="7.806246">
        <ele>300.652374</ele>
        <time>2021-11-20T19:05:24.869Z</time>
      </trkpt>
      <trkpt lat="47.551895" lon="7.806278">
        <ele>300.697063</ele>
        <time>2021-11-20T19:05:28.395Z</time>
      </trkpt>
      <trkpt lat="47.552015" lon="7.806307">
        <ele>300.719244</ele>
        <time>2021-11-20T19:05:31.265Z</time>
      </trkpt>
      <trkpt lat="47.552068" lon="7.806445">
        <ele>300.738795</ele>
        <time>2021-11-20T19:05:32.722Z</time>
      </trkpt>
      <trkpt lat="47.552398" lon="7.808880">
        <ele>300.379312</ele>
        <time>2021-11-20T19:05:54.864Z</time>
      </trkpt>
      <trkpt lat="47.552566" lon="7.810386">
        <ele>299.735508</ele>
        <time>2021-11-20T19:06:07.876Z</time>
      </trkpt>
      <trkpt lat="47.552711" lon="7.812955">
        <ele>298.598692</ele>
        <time>2021-11-20T19:06:30.484Z</time>
      </trkpt>
      <trkpt lat="47.552844" lon="7.816432">
        <ele>297.462550</ele>
        <time>2021-11-20T19:07:00.977Z</time>
      </trkpt>
      <trkpt lat="47.552948" lon="7.819358">
        <ele>297.827595</ele>
        <time>2021-11-20T19:07:32.207Z</time>
      </trkpt>
      <trkpt lat="47.552896" lon="7.820699">
        <ele>298.334541</ele>
        <time>2021-11-20T19:07:48.291Z</time>
      </trkpt>
      <trkpt lat="47.552567" lon="7.824508">
        <ele>300.231001</ele>
        <time>2021-11-20T19:08:34.776Z</time>
      </trkpt>
      <trkpt lat="47.552491" lon="7.827227">
        <ele>301.788099</ele>
        <time>2021-11-20T19:09:06.516Z</time>
      </trkpt>
      <trkpt lat="47.552515" lon="7.828094">
        <ele>302.468998</ele>
        <time>2021-11-20T19:09:18.226Z</time>
      </trkpt>
      <trkpt lat="47.552477" lon="7.828294">
        <ele>302.632037</ele>
        <time>2021-11-20T19:09:20.843Z</time>
      </trkpt>
      <trkpt lat="47.552421" lon="7.828481">
        <ele>302.792570</ele>
        <time>2021-11-20T19:09:23.774Z</time>
      </trkpt>
      <trkpt lat="47.552404" lon="7.828582">
        <ele>302.874251</ele>
        <time>2021-11-20T19:09:25.458Z</time>
      </trkpt>
      <trkpt lat="47.552416" lon="7.828822">
        <ele>303.063094</ele>
        <time>2021-11-20T19:09:28.692Z</time>
      </trkpt>
      <trkpt lat="47.552554" lon="7.829266">
        <ele>303.832551</ele>
        <time>2021-11-20T19:09:36.044Z</time>
      </trkpt>
      <trkpt lat="47.552645" lon="7.830686">
        <ele>306.206350</ele>
        <time>2021-11-20T19:09:59.350Z</time>
      </trkpt>
      <trkpt lat="47.552690" lon="7.832598">
        <ele>309.771549</ele>
        <time>2021-11-20T19:10:34.827Z</time>
      </trkpt>
      <trkpt lat="47.552616" lon="7.832891">
        <ele>310.399335</ele>
        <time>2021-11-20T19:10:40.191Z</time>
      </trkpt>
      <trkpt lat="47.552556" lon="7.832977">
        <ele>310.647545</ele>
        <time>2021-11-20T19:10:42.922Z</time>
      </trkpt>
      <trkpt lat="47.552511" lon="7.833072">
        <ele>310.880450</ele>
        <time>2021-11-20T19:10:44.948Z</time>
      </trkpt>
      <trkpt lat="47.552467" lon="7.833198">
        <ele>311.165136</ele>
        <time>2021-11-20T19:10:47.349Z</time>
      </trkpt>
      <trkpt lat="47.552452" lon="7.833284">
        <ele>311.343384</ele>
        <time>2021-11-20T19:10:48.960Z</time>
      </trkpt>
      <trkpt lat="47.552696" lon="7.833789">
        <ele>312.589692</ele>
        <time>2021-11-20T19:10:59.992Z</time>
      </trkpt>
      <trkpt lat="47.552700" lon="7.833938">
        <ele>312.887820</ele>
        <time>2021-11-20T19:11:02.936Z</time>
      </trkpt>
      <trkpt lat="47.552714" lon="7.835010">
        <ele>314.368913</ele>
        <time>2021-11-20T19:11:21.413Z</time>
      </trkpt>
      <trkpt lat="47.552719" lon="7.836790">
        <ele>316.755705</ele>
        <time>2021-11-20T19:11:46.697Z</time>
      </trkpt>
      <trkpt lat="47.552697" lon="7.838068">
        <ele>318.034277</ele>
        <time>2021-11-20T19:12:04.339Z</time>
      </trkpt>
      <trkpt lat="47.552736" lon="7.838578">
        <ele>318.547603</ele>
        <time>2021-11-20T19:12:11.465Z</time>
      </trkpt>
      <trkpt lat="47.552802" lon="7.839009">
        <ele>318.989611</ele>
        <time>2021-11-20T19:12:17.684Z</time>
      </trkpt>
      <trkpt lat="47.552939" lon="7.839526">
        <ele>319.573426</ele>
        <time>2021-11-20T19:12:25.474Z</time>
      </trkpt>
      <trkpt lat="47.553231" lon="7.841529">
        <ele>321.808286</ele>
        <time>2021-11-20T19:12:55.604Z</time>
      </trkpt>
      <trkpt lat="47.553216" lon="7.841849">
        <ele>322.150804</ele>
        <time>2021-11-20T19:13:00.128Z</time>
      </trkpt>
      <trkpt lat="47.553123" lon="7.842222">
        <ele>322.422617</ele>
        <time>2021-11-20T19:13:05.358Z</time>
      </trkpt>
      <trkpt lat="47.553133" lon="7.842431">
        <ele>322.565841</ele>
        <time>2021-11-20T19:13:08.487Z</time>
      </trkpt>
      <trkpt lat="47.552833" lon="7.842495">
        <ele>322.872824</ele>
        <time>2021-11-20T19:13:15.796Z</time>
      </trkpt>
      <trkpt lat="47.552380" lon="7.842592">
        <ele>323.336404</ele>
        <time>2021-11-20T19:13:26.844Z</time>
      </trkpt>
      <trkpt lat="47.551922" lon="7.842704">
        <ele>323.806556</ele>
        <time>2021-11-20T19:13:37.411Z</time>
      </trkpt>
      <trkpt lat="47.551668" lon="7.842770">
        <ele>324.042547</ele>
        <time>2021-11-20T19:13:43.369Z</time>
      </trkpt>
      <trkpt lat="47.551454" lon="7.842815">
        <ele>324.210157</ele>
        <time>2021-11-20T19:13:47.955Z</time>
      </trkpt>
      <trkpt lat="47.551344" lon="7.844621">
        <ele>325.159213</ele>
        <time>2021-11-20T19:14:09.558Z</time>
      </trkpt>
      <trkpt lat="47.551228" lon="7.846349">
        <ele>326.648902</ele>
        <time>2021-11-20T19:14:32.550Z</time>
      </trkpt>
      <trkpt lat="47.551205" lon="7.846694">
        <ele>326.978142</ele>
        <time>2021-11-20T19:14:37.591Z</time>
      </trkpt>
      <trkpt lat="47.551184" lon="7.847206">
        <ele>327.465284</ele>
        <time>2021-11-20T19:14:44.964Z</time>
      </trkpt>
      <trkpt lat="47.551196" lon="7.847517">
        <ele>327.761123</ele>
        <time>2021-11-20T19:14:49.464Z</time>
      </trkpt>
      <trkpt lat="47.551669" lon="7.848083">
        <ele>328.738214</ele>
        <time>2021-11-20T19:15:03.062Z</time>
      </trkpt>
      <trkpt lat="47.551242" lon="7.848702">
        <ele>329.718646</ele>
        <time>2021-11-20T19:15:16.177Z</time>
      </trkpt>
      <trkpt lat="47.550975" lon="7.849066">
        <ele>330.314124</ele>
        <time>2021-11-20T19:15:23.493Z</time>
      </trkpt>
      <trkpt lat="47.550810" lon="7.849346">
        <ele>330.725865</ele>
        <time>2021-11-20T19:15:29.886Z</time>
      </trkpt>
      <trkpt lat="47.550488" lon="7.850081">
        <ele>331.358623</ele>
        <time>2021-11-20T19:15:45.338Z</time>
      </trkpt>
      <trkpt lat="47.550333" lon="7.850434">
        <ele>331.641553</ele>
        <time>2021-11-20T19:15:52.668Z</time>
      </trkpt>
      <trkpt lat="47.550009" lon="7.851173">
        <ele>332.233597</ele>
        <time>2021-11-20T19:16:07.262Z</time>
      </trkpt>
      <trkpt lat="47.549800" lon="7.851638">
        <ele>332.608935</ele>
        <time>2021-11-20T19:16:15.623Z</time>
      </trkpt>
      <trkpt lat="47.549652" lon="7.851969">
        <ele>332.580206</ele>
        <time>2021-11-20T19:16:21.142Z</time>
      </trkpt>
      <trkpt lat="47.549535" lon="7.852225">
        <ele>332.539924</ele>
        <time>2021-11-20T19:16:25.197Z</time>
      </trkpt>
      <trkpt lat="47.549285" lon="7.852784">
        <ele>332.452553</ele>
        <time>2021-11-20T19:16:33.832Z</time>
      </trkpt>
      <trkpt lat="47.549708" lon="7.853279">
        <ele>332.348499</ele>
        <time>2021-11-20T19:16:44.231Z</time>
      </trkpt>
      <trkpt lat="47.550221" lon="7.853833">
        <ele>332.122703</ele>
        <time>2021-11-20T19:16:56.163Z</time>
      </trkpt>
      <trkpt lat="47.549883" lon="7.854434">
        <ele>331.829560</ele>
        <time>2021-11-20T19:17:02.841Z</time>
      </trkpt>
      <trkpt lat="47.549566" lon="7.855225">
        <ele>331.484841</ele>
        <time>2021-11-20T19:17:13.985Z</time>
      </trkpt>
      <trkpt lat="47.549362" lon="7.855774">
        <ele>331.277095</ele>
        <time>2021-11-20T19:17:21.907Z</time>
      </trkpt>
      <trkpt lat="47.548887" lon="7.857308">
        <ele>331.173439</ele>
        <time>2021-11-20T19:17:44.015Z</time>
      </trkpt>
      <trkpt lat="47.548743" lon="7.857692">
        <ele>331.146459</ele>
        <time>2021-11-20T19:17:49.987Z</time>
      </trkpt>
      <trkpt lat="47.548701" lon="7.857893">
        <ele>331.133536</ele>
        <time>2021-11-20T19:17:52.958Z</time>
      </trkpt>
      <trkpt lat="47.548686" lon="7.857973">
        <ele>331.128436</ele>
        <time>2021-11-20T19:17:54.081Z</time>
      </trkpt>
      <trkpt lat="47.548611" lon="7.858381">
        <ele>331.278498</ele>
        <time>2021-11-20T19:18:00.295Z</time>
      </trkpt>
      <trkpt lat="47.548334" lon="7.859801">
        <ele>332.169687</ele>
        <time>2021-11-20T19:18:23.333Z</time>
      </trkpt>
      <trkpt lat="47.548049" lon="7.860929">
        <ele>333.051136</ele>
        <time>2021-11-20T19:18:44.351Z</time>
      </trkpt>
      <trkpt lat="47.547930" lon="7.861711">
        <ele>333.974656</ele>
        <time>2021-11-20T19:18:59.115Z</time>
      </trkpt>
      <trkpt lat="47.547568" lon="7.863151">
        <ele>335.744951</ele>
        <time>2021-11-20T19:19:28.243Z</time>
      </trkpt>
      <trkpt lat="47.547320" lon="7.863864">
        <ele>336.029089</ele>
        <time>2021-11-20T19:19:42.183Z</time>
      </trkpt>
      <trkpt lat="47.546974" lon="7.864423">
        <ele>336.262848</ele>
        <time>2021-11-20T19:19:53.006Z</time>
      </trkpt>
      <trkpt lat="47.546885" lon="7.864500">
        <ele>336.309909</ele>
        <time>2021-11-20T19:19:56.091Z</time>
      </trkpt>
      <trkpt lat="47.546894" lon="7.864837">
        <ele>336.413856</ele>
        <time>2021-11-20T19:19:59.975Z</time>
      </trkpt>
      <trkpt lat="47.546889" lon="7.865225">
        <ele>336.533463</ele>
        <time>2021-11-20T19:20:05.400Z</time>
      </trkpt>
      <trkpt lat="47.546819" lon="7.865489">
        <ele>336.608533</ele>
        <time>2021-11-20T19:20:09.344Z</time>
      </trkpt>
      <trkpt lat="47.546510" lon="7.865766">
        <ele>336.292294</ele>
        <time>2021-11-20T19:20:15.978Z</time>
      </trkpt>
      <trkpt lat="47.546327" lon="7.865959">
        <ele>336.095603</ele>
        <time>2021-11-20T19:20:19.494Z</time>
      </trkpt>
      <trkpt lat="47.546096" lon="7.866147">
        <ele>335.864826</ele>
        <time>2021-11-20T19:20:24.050Z</time>
      </trkpt>
      <trkpt lat="47.545240" lon="7.866887">
        <ele>335.088847</ele>
        <time>2021-11-20T19:20:40.723Z</time>
      </trkpt>
      <trkpt lat="47.545160" lon="7.866985">
        <ele>335.184610</ele>
        <time>2021-11-20T19:20:42.679Z</time>
      </trkpt>
      <trkpt lat="47.545003" lon="7.867278">
        <ele>335.417559</ele>
        <time>2021-11-20T19:20:48.347Z</time>
      </trkpt>
      <trkpt lat="47.544568" lon="7.867693">
        <ele>335.894858</ele>
        <time>2021-11-20T19:21:01.138Z</time>
      </trkpt>
      <trkpt lat="47.544469" lon="7.867776">
        <ele>335.999797</ele>
        <time>2021-11-20T19:21:04.000Z</time>
      </trkpt>
      <trkpt lat="47.544410" lon="7.867825">
        <ele>336.062194</ele>
        <time>2021-11-20T19:21:06.088Z</time>
      </trkpt>
      <trkpt lat="47.544246" lon="7.867967">
        <ele>336.237431</ele>
        <time>2021-11-20T19:21:10.778Z</time>
      </trkpt>
      <trkpt lat="47.544214" lon="7.867988">
        <ele>336.269717</ele>
        <time>2021-11-20T19:21:11.627Z</time>
      </trkpt>
      <trkpt lat="47.543801" lon="7.868269">
        <ele>336.688973</ele>
        <time>2021-11-20T19:21:23.548Z</time>
      </trkpt>
      <trkpt lat="47.543657" lon="7.868359">
        <ele>336.700997</ele>
        <time>2021-11-20T19:21:27.911Z</time>
      </trkpt>
      <trkpt lat="47.543201" lon="7.868657">
        <ele>336.700997</ele>
        <time>2021-11-20T19:21:38.954Z</time>
      </trkpt>
      <trkpt lat="47.543105" lon="7.868711">
        <ele>336.700997</ele>
        <time>2021-11-20T19:21:41.637Z</time>
      </trkpt>
      <trkpt lat="47.543049" lon="7.868759">
        <ele>336.700997</ele>
        <time>2021-11-20T19:21:43.024Z</time>
      </trkpt>
      <trkpt lat="47.542764" lon="7.869144">
        <ele>336.700997</ele>
        <time>2021-11-20T19:21:51.798Z</time>
      </trkpt>
      <trkpt lat="47.542722" lon="7.869201">
        <ele>336.700997</ele>
        <time>2021-11-20T19:21:52.941Z</time>
      </trkpt>
      <trkpt lat="47.542696" lon="7.869257">
        <ele>336.700997</ele>
        <time>2021-11-20T19:21:53.689Z</time>
      </trkpt>
      <trkpt lat="47.542696" lon="7.869257">
        <ele>336.700997</ele>
        <time>2021-11-20T19:21:53.733Z</time>
      </trkpt>
    </trkseg>
  </trk>
</gpx>